[[{"header":{"parameterUnit":"m.s-1","parameterCategory":1,"la1":31.0,"la2":29.5877,"lo1":-88.7671,"lo2":-86.6584,"dy":0.0162,"dx":0.0185,"nx":115,"ny":88,"refTime":"2024-07-10T06:00:00:Z","depth":0,"parameterNumber":2,"parameterNumberName":"U-component_of_WINDS"},"data":[0.0,0.0,0.0,0.0,0.0,0.0,0.0,0.0,0.0,0.0,0.0,0.0,0.0,0.0,0.0,0.0,0.0,0.0,0.0,0.0,0.0,0.0,0.0,0.0,0.0,0.0,0.0,0.0,0.0,0.0,0.0,0.0,0.0,0.0,0.0,0.0,0.0,0.0,0.0,0.0,0.0,0.0,0.0,0.0,0.0,0.0,0.0,0.0,0.0,0.0,0.0,0.0,0.0,0.0,0.0,0.0,0.0,0.0,0.0,0.0,0.0,0.0,0.0,0.0,0.0,0.0,0.0,0.0,0.0,0.0,0.0,0.0,0.0,0.0,0.0,0.0,0.0,0.0,0.0,0.0,0.0,0.0,0.0,0.0,0.0,0.0,0.0,0.0,0.0,0.0,0.0,0.0,0.0,0.0,0.0,0.0,0.0,0.0,0.0,0.0,0.0,0.0,0.0,0.0,0.0,0.0,0.0,0.0,0.0,0.0,0.0,0.0,0.0,0.0,0.0,0.0,0.0,0.0,0.0,0.0,0.0,0.0,0.0,0.0,0.0,0.0,0.0,0.0,0.0,0.0,0.0,0.0,0.0,0.0,0.0,0.0,0.0,0.0,0.0,0.0,0.0,0.0,0.0,0.0,0.0,0.0,0.0,0.0,0.0,0.0,0.0,0.0,0.0,0.0,0.0,0.0,0.0,0.0,0.0,0.0,0.0,0.0,0.0,0.0,0.0,0.0,0.0,0.0,0.0,0.0,0.0,0.0,0.0,0.0,0.0,0.0,0.0,0.0,0.0,0.0,0.0,0.0,0.0,0.0,0.0,0.0,0.0,0.0,0.0,0.0,0.0,0.0,0.0,0.0,0.0,0.0,0.0,0.0,0.0,0.0,0.0,0.0,0.0,0.0,0.0,0.0,0.0,0.0,0.0,0.0,0.0,0.0,0.0,0.0,0.0,0.0,0.0,0.0,0.0,0.0,0.0,0.0,0.0,0.0,0.0,0.0,0.0,0.0,0.0,0.0,0.0,0.0,0.0,0.0,0.0,0.0,0.0,0.0,0.0,0.0,0.0,0.0,0.0,0.0,0.0,0.0,0.0,0.0,0.0,0.0,0.0,0.0,0.0,0.0,0.0,0.0,0.0,0.0,0.0,0.0,0.0,0.0,0.0,0.0,0.0,0.0,0.0,0.0,0.0,0.0,0.0,0.0,0.0,0.0,0.0,0.0,0.0,0.0,0.0,0.0,0.0,0.0,0.0,0.0,0.0,0.0,0.0,0.0,0.0,0.0,0.0,0.0,0.0,0.0,0.0,0.0,0.0,0.0,0.0,0.0,0.0,0.0,0.0,0.0,0.0,0.0,0.0,0.0,0.0,0.0,0.0,0.0,0.0,0.0,0.0,0.0,0.0,0.0,0.0,0.0,0.0,0.0,0.0,0.0,0.0,0.0,0.0,0.0,0.0,0.0,0.0,0.0,0.0,0.0,0.0,0.0,0.0,0.0,0.0,0.0,0.0,0.0,0.0,0.0,0.0,0.0,0.0,0.0,0.0,0.0,0.0,0.0,0.0,0.0,0.0,0.0,0.0,0.0,0.0,0.0,0.0,0.0,0.0,0.0,0.0,0.0,0.0,0.0,0.0,0.0,0.0,0.0,0.0,0.0,0.0,0.0,0.0,0.0,0.0,0.0,0.0,0.0,0.0,0.0,0.0,0.0,0.0,0.0,0.0,0.0,0.0,0.0,0.0,0.0,0.0,0.0,0.0,0.0,0.0,0.0,0.0,0.0,0.0,0.0,0.0,0.0,0.0,0.0,0.0,0.0,0.0,0.0,0.0,0.0,0.0,0.0,0.0,0.0,0.0,0.0,0.0,0.0,0.0,0.0,0.0,0.0,0.0,0.0,0.0,0.0,0.0,0.0,0.0,0.0,0.0,0.0,0.0,0.0,0.0,0.0,0.0,0.0,0.0,0.0,0.0,0.0,0.0,0.0,0.0,0.0,0.0,0.0,0.0,0.0,0.0,0.0,0.0,0.0,0.0,0.0,0.0,0.0,0.0,0.0,0.0,0.0,0.0,0.0,0.0,0.0,0.0,0.0,0.0,0.0,0.0,0.0,0.0,0.0,0.0,0.0,0.0,0.0,0.0,0.0,0.0,0.0,0.0,0.0,0.0,0.0,0.0,0.0,0.0,0.0,0.0,0.0,0.0,0.0,0.0,0.0,0.0,0.0,0.0,0.0,0.0,0.0,0.0,0.0,0.0,0.0,0.0,0.0,0.0,0.0,0.0,0.0,0.0,0.0,0.0,0.0,0.0,0.0,0.0,0.0,0.0,0.0,0.0,0.0,0.0,0.0,0.0,0.0,0.0,0.0,0.0,0.0,0.0,0.0,0.0,0.0,0.0,0.0,0.0,0.0,0.0,0.0,0.0,0.0,0.0,0.0,0.0,0.0,0.0,0.0,0.0,0.0,0.0,0.0,0.0,0.0,0.0,0.0,0.0,0.0,0.0,0.0,0.0,0.0,0.0,0.0,0.0,0.0,0.0,0.0,0.0,0.0,0.0,0.0,0.0,0.0,0.0,0.0,0.0,0.0,0.0,0.0,0.0,0.0,0.0,0.0,0.0,0.0,0.0,0.0,0.0,0.0,0.0,0.0,0.0,0.0,0.0,0.0,0.0,0.0,0.0,0.0,0.0,0.0,0.0,0.0,0.0,0.0,0.0,0.0,0.0,0.0,0.0,0.0,0.0,0.0,0.0,0.0,0.0,0.0,0.0,0.0,0.0,0.0,0.0,0.0,0.0,0.0,0.0,0.0,0.0,0.0,0.0,0.0,0.0,0.0,0.0,0.0,0.0,0.0,0.0,0.0,0.0,0.0,0.0,0.0,0.0,0.0,0.0,0.0,0.0,0.0,0.0,0.0,0.0,0.0,0.0,0.0,0.0,0.0,0.0,0.0,0.0,0.0,0.0,0.0,0.0,0.0,0.0,0.0,0.0,0.0,0.0,0.0,0.0,0.0,0.0,0.0,0.0,0.0,0.0,0.0,0.0,0.0,0.0,0.0,0.0,0.0,0.0,0.0,0.0,0.0,0.0,0.0,0.0,0.0,0.0,0.0,0.0,0.0,0.0,0.0,0.0,0.0,0.0,0.0,0.0,0.0,0.0,0.0,0.0,0.0,0.0,0.0,0.0,0.0,0.0,0.0,0.0,0.0,0.0,0.0,0.0,0.0,0.0,0.0,0.0,0.0,0.0,0.0,0.0,0.0,0.0,0.0,0.0,0.0,0.0,0.0,0.0,0.0,0.0,0.0,0.0,0.0,0.0,0.0,0.0,0.0,0.0,0.0,0.0,0.0,0.0,0.0,0.0,0.0,0.0,0.0,0.0,0.0,0.0,0.0,0.0,0.0,0.0,0.0,0.0,0.0,0.0,0.0,0.0,0.0,0.0,0.0,0.0,0.0,0.0,0.0,0.0,0.0,0.0,0.0,0.0,0.0,0.0,0.0,0.0,0.0,0.0,0.0,0.0,0.0,0.0,0.0,0.0,0.0,0.0,0.0,0.0,0.0,0.0,0.0,0.0,0.0,0.0,0.0,0.0,0.0,0.0,0.0,0.0,0.0,0.0,0.0,0.0,0.0,0.0,0.0,0.0,0.0,0.0,0.0,0.0,0.0,0.0,0.0,0.0,0.0,0.0,0.0,0.0,0.0,0.0,0.0,0.0,0.0,0.0,0.0,0.0,0.0,0.0,0.0,0.0,0.0,0.0,0.0,0.0,0.0,0.0,0.0,0.0,0.0,0.0,0.0,0.0,0.0,0.0,0.0,0.0,0.0,0.0,0.0,0.0,0.0,0.0,0.0,0.0,0.0,0.0,0.0,0.0,0.0,0.0,0.0,0.0,0.0,0.0,0.0,0.0,0.0,0.0,0.0,0.0,0.0,0.0,0.0,0.0,0.0,0.0,0.0,0.0,0.0,0.0,0.0,0.0,0.0,0.0,0.0,0.0,0.0,0.0,0.0,0.0,0.0,0.0,0.0,0.0,0.0,0.0,0.0,0.0,0.0,0.0,0.0,0.0,0.0,0.0,0.0,0.0,0.0,0.0,0.0,0.0,0.0,0.0,0.0,0.0,0.0,0.0,0.0,0.0,0.0,0.0,0.0,0.0,0.0,0.0,0.0,0.0,0.0,0.0,0.0,0.0,0.0,0.0,0.0,0.0,0.0,0.0,0.0,0.0,0.0,0.0,0.0,0.0,0.0,0.0,0.0,0.0,0.0,0.0,0.0,-0.127,0.0,0.0,0.0,0.0,0.0,0.0,0.0,0.0,0.0,0.0,0.0,0.0,0.0,0.0,0.0,0.0,0.0,0.0,0.0,0.0,0.0,0.0,0.0,0.0,0.0,0.0,0.0,0.0,0.0,0.0,0.0,0.0,0.0,0.0,0.0,0.0,0.0,0.0,0.0,0.0,0.0,0.0,0.0,0.0,0.0,0.0,0.0,0.0,0.0,0.0,0.0,0.0,0.0,0.0,0.0,0.0,0.0,0.0,0.0,0.0,0.0,0.0,0.0,0.0,0.0,0.0,0.0,0.0,0.0,0.0,0.0,0.0,0.0,0.0,0.0,0.0,0.0,0.0,0.0,0.0,0.0,0.0,0.0,0.0,0.0,0.0,0.0,0.0,0.0,0.0,0.0,0.0,0.0,0.0,0.0,0.0,0.0,0.0,0.0,0.0,0.0,0.0,0.0,0.0,0.0,0.0,0.0,0.0,0.0,0.0,-0.0,-0.0,-0.0942,-0.1667,-0.205,0.0,0.0,0.0,0.0,0.0,0.0,0.0,0.0,0.0,0.0,0.0,0.0,0.0,0.0,0.0,0.0,0.0,0.0,0.0,0.0,0.0,0.0,0.0,0.0,0.0,0.0,0.0,0.0,0.0,0.0,0.0,0.0,0.0,0.0,0.0,0.0,0.0,0.0,0.0,0.0,0.0,0.0,0.0,0.0,0.0,0.0,0.0,0.0,0.0,0.0,0.0,0.0,0.0,0.0,0.0,0.0,0.0,0.0,0.0,0.0,0.0,0.0,0.0,0.0,0.0,0.0,0.0,0.0,0.0,0.0,0.0,0.0,0.0,0.0,0.0,0.0,0.0,0.0,0.0,0.0,0.0,0.0,0.0,0.0,0.0,0.0,0.0,0.0,0.0,0.0,0.0,0.0,0.0,0.0,0.0,0.0,0.0,0.0,0.0,0.0,0.0,0.0,0.0,0.0,0.0,0.0,0.0,0.0,0.0,0.0,0.0,0.0,-0.2141,-0.3125,-0.2721,0.0,0.0,0.0,0.0,0.0,0.0,0.0,0.0,0.0,0.0,0.0,0.0,0.0,0.0,0.0,0.0,0.0,0.0,0.0,0.0,0.0,0.0,0.0,0.0,0.0,0.0,0.0,0.0,0.0,0.0,0.0,0.0,0.0,0.0,0.0,0.0,0.0,0.0,0.0,0.0,0.0,0.0,0.0,0.0,0.0,0.0,0.0,0.0,0.0,0.0,0.0,0.0,0.0,0.0,0.0,0.0,0.0,0.0,0.0,0.0,0.0,0.0,0.0,0.0,0.0,0.0,0.0,0.0,0.0,0.0,0.0,0.0,0.0,0.0,0.0,0.0,0.0,0.0,0.0,0.0,0.0,0.0,0.0,0.0,0.0,0.0,0.0,0.0,0.0,0.0,0.0,0.0,0.0,0.0,0.0,0.0,0.0,0.0,0.0,0.0,0.0,0.0,0.0,0.0,0.0,0.0,0.0,0.0,0.0,0.0,-0.0,-0.0,-0.3337,0.0,-0.29,0.0,0.0,0.0,0.0,0.0,0.0,0.0,0.0,0.0,0.0,0.0,0.0,0.0,0.0,0.0,0.0,0.0,0.0,0.0,0.0,0.0,0.0,0.0,0.0,0.0,0.0,0.0,0.0,0.0,0.0,0.0,0.0,0.0,0.0,0.0,0.0,0.0,0.0,0.0,0.0,0.0,0.0,0.0,0.0,0.0,0.0,0.0,0.0,0.0,0.0,0.0,0.0,0.0,0.0,0.0,0.0,0.0,0.0,0.0,0.0,0.0,0.0,0.0,0.0,0.0,0.0,0.0,0.0,0.0,0.0,0.0,0.0,0.0,0.0,0.0,0.0,0.0,0.0,0.0,0.0,0.0,0.0,0.0,0.0,0.0,0.0,0.0,0.0,0.0,0.0,0.0,0.0,0.0,0.0,0.0,0.0,0.0,0.0,0.0,0.0,0.0,0.0,0.0,0.0,0.0,0.0,0.0,0.0,0.0,0.0,0.0,-0.0042,-0.1937,-0.3133,0.0,0.0,0.0,0.0,0.0,0.0,0.0,0.0,0.0,0.0,0.0,0.0,0.0,0.0,0.0,0.0,0.0,0.0,0.0,0.0,0.0,0.0,0.0,0.0,0.0,0.0,0.0,0.0,0.0,0.0,0.0,0.0,0.0,0.0,0.0,0.0,0.0,0.0,0.0,0.0,0.0,0.0,0.0,0.0,0.0,0.0,0.0,0.0,0.0,0.0,0.0,0.0,0.0,0.0,0.0,0.0,0.0,0.0,0.0,0.0,0.0,0.0,0.0,0.0,0.0,0.0,0.0,0.0,0.0,0.0,0.0,0.0,0.0,0.0,0.0,0.0,0.0,0.0,0.0,0.0,0.0,0.0,0.0,0.0,0.0,0.0,0.0,0.0,0.0,0.0,0.0,0.0,0.0,0.0,0.0,0.0,0.0,0.0,0.0,0.0,0.0,0.0,0.0,0.0,0.0,0.0,0.0,0.0,0.0,0.0,-0.5381,0.0,-0.0619,-0.1194,-0.2255,-0.3454,0.0,0.0,0.0,0.0,0.0,0.0,0.0,0.0,0.0,0.0,0.0,0.0,0.0,0.0,0.0,0.0,0.0,0.0,0.0,0.0,0.0,0.0,0.0,0.0,0.0,0.0,0.0,0.0,0.0,0.0,0.0,0.0,0.0,0.0,0.0,0.0,0.0,0.0,0.0,0.0,0.0,0.0,0.0,0.0,0.0,0.0,0.0,0.0,0.0,0.0,0.0,0.0,0.0,0.0,0.0,0.0,0.0,0.0,0.0,0.0,0.0,0.0,0.0,0.0,0.0,0.0,0.0,0.0,0.0,0.0,0.0,0.0,0.0,0.0,0.0,0.0,0.0,0.0,0.0,0.0,0.0,0.0,0.0,0.0,0.0,0.0,0.0,0.0,0.0,0.0,0.0,0.0,0.0,0.0,0.0,0.0,0.0,0.0,0.0,0.0,0.0,0.0,0.0,0.0,0.0,0.0,0.0,0.0,0.0,-0.5361,-0.4054,-0.139,-0.2141,-0.2516,0.0,0.0,0.0,0.0,0.0,0.0,0.0,0.0,0.0,0.0,0.0,0.0,0.0,0.0,0.0,0.0,0.0,0.0,0.0,0.0,0.0,0.0,0.0,0.0,0.0,0.0,0.0,0.0,0.0,0.0,0.0,0.0,0.0,0.0,0.0,0.0,0.0,0.0,0.0,0.0,0.0,0.0,0.0,0.0,0.0,0.0,0.0,0.0,0.0,0.0,0.0,0.0,0.0,0.0,0.0,0.0,0.0,0.0,0.0,0.0,0.0,0.0,0.0,0.0,0.0,0.0,0.0,0.0,0.0,0.0,0.0,0.0,0.0,0.0,0.0,0.0,0.0,0.0,0.0,0.0,0.0,0.0,0.0,0.0,0.0,0.0,0.0,0.0,0.0,0.0,0.0,0.0,0.0,0.0,0.0,0.0,0.0,0.0,0.0,0.0,0.0,0.0,0.0,0.0,0.0,0.0,0.0,0.0,0.0,-0.3715,-0.4218,-0.3976,-0.2857,-0.2728,-0.2813,0.0,0.0,0.0,0.0,0.0,0.0,0.0,0.0,0.0,0.0,0.0,0.0,0.0,0.0,0.0,0.0,0.0,0.0,0.0,0.0,0.0,0.0,0.0,0.0,0.0,0.0,0.0,0.0,0.0,0.0,0.0,0.0,0.0,0.0,0.0,0.0,0.0,0.0,0.0,0.0,0.0,0.0,0.0,0.0,0.0,0.0,0.0,0.0,0.0,0.0,0.0,0.0,0.0,0.0,0.0,0.0,0.0,0.0,0.0,0.0,0.0,0.0,0.0,0.0,0.0,0.0,0.0,0.0,0.0,0.0,0.0,0.0,0.0,0.0,0.0,0.0,0.0,0.0,0.0,0.0,0.0,0.0,0.0,0.0,0.0,0.0,0.0,0.0,0.0,0.0,0.0,0.0,0.0,0.0,0.0,0.0,0.0,0.0,0.0,0.0,0.0,0.0,0.0,0.0,0.0,0.0,0.0,0.0,0.0,-0.3102,0.0,-0.4036,0.0,-0.3459,-0.3252,0.0,0.0,0.0,0.0,0.0,0.0,0.0,0.0,0.0,0.0,0.0,0.0,0.0,0.0,0.0,0.0,0.0,0.0,0.0,0.0,0.0,0.0,0.0,0.0,0.0,0.0,0.0,0.0,0.0,0.0,0.0,0.0,0.0,0.0,0.0,0.0,0.0,0.0,0.0,0.0,0.0,0.0,0.0,0.0,0.0,0.0,0.0,0.0,0.0,0.0,0.0,0.0,0.0,0.0,0.0,0.0,0.0,0.0,0.0,0.0,0.0,0.0,0.0,0.0,0.0,0.0,0.0,0.0,0.0,0.0,0.0,0.0,0.0,0.0,0.0,0.0,0.0,0.0,0.0,0.0,0.0,0.0,0.0,0.0,0.0,0.0,0.0,0.0,0.0,0.0,0.0,0.0,0.0,0.0,0.0,0.0,0.0,0.0,0.0,0.0,0.0,0.0,0.0,0.0,0.0,0.0,0.0,0.0,-0.3115,-0.3932,-0.4313,-0.434,-0.4006,-0.4285,-0.3818,0.0,0.0,0.0,0.0,0.0,0.0,0.0,0.0,0.0,0.0,0.0,0.0,0.0,0.0,0.0,0.0,0.0,0.0,0.0,0.0,0.0,0.0,0.0,0.0,0.0,0.0,0.0,0.0,0.0,0.0,0.0,0.0,0.0,0.0,0.0,0.0,0.0,0.0,0.0,0.0,0.0,0.0,0.0,0.0,0.0,0.0,0.0,0.0,0.0,0.0,0.0,0.0,0.0,0.0,0.0,0.0,0.0,0.0,0.0,0.0,0.0,0.0,0.0,0.0,0.0,0.0,0.0,0.0,0.0,0.0,0.0,0.0,0.0,0.0,0.0,0.0,0.0,0.0,0.0,0.0,0.0,0.0,0.0,0.0,0.0,0.0,0.0,0.0,0.0,0.0,0.0,0.0,0.0,0.0,0.0,0.0,0.0,0.0,0.0,0.0,0.0,0.0,0.0,0.0,0.0,0.0,0.0,0.0,0.0,-0.3961,-0.4106,-0.4354,-0.4683,-0.4198,-0.3858,0.0,0.0,0.0,0.0,0.0,0.0,0.0,0.0,0.0,0.0,0.0,0.0,0.0,0.0,0.0,0.0,0.0,0.0,0.0,0.0,0.0,0.0,0.0,0.0,0.0,0.0,0.0,0.0,0.0,0.0,0.0,0.0,0.0,0.0,0.0,0.0,0.0,0.0,0.0,0.0,0.0,0.0,0.0,0.0,0.0,0.0,0.0,0.0,0.0,0.0,0.0,0.0,0.0,0.0,0.0,0.0,0.0,0.0,0.0,0.0,0.0,0.0,0.0,0.0,0.0,0.0,0.0,0.0,0.0,0.0,0.0,0.0,0.0,0.0,0.0,0.0,0.0,0.0,0.0,0.0,0.0,0.0,0.0,0.0,0.0,0.0,0.0,0.0,0.0,0.0,0.0,0.0,0.0,0.0,0.0,0.0,0.0,0.0,0.0,0.0,0.0,0.0,0.0,0.0,0.0,0.0,0.0,0.0,0.0,-0.4598,-0.4706,-0.4911,-0.5209,-0.4477,-0.404,-0.406,0.0,0.0,0.0,0.0,0.0,0.0,0.0,0.0,0.0,0.0,0.0,0.0,0.0,0.0,0.0,0.0,0.0,0.0,0.0,0.0,0.0,0.0,0.0,0.0,0.0,0.0,0.0,0.0,0.0,0.0,0.0,0.0,0.0,0.0,0.0,0.0,0.0,0.0,0.0,0.0,0.0,0.0,0.0,0.0,0.0,0.0,0.0,0.0,0.0,0.0,0.0,0.0,0.0,0.0,0.0,0.0,0.0,0.0,0.0,0.0,0.0,0.0,0.0,0.0,0.0,0.0,0.0,0.0,0.0,0.0,0.0,0.0,0.0,0.0,0.0,0.0,0.0,0.0,0.0,0.0,0.0,0.0,0.0,0.0,0.0,0.0,0.0,0.0,0.0,0.0,0.0,0.0,0.0,0.0,0.0,0.0,0.0,0.0,0.0,0.0,0.0,0.0,0.0,0.0,0.0,0.0,0.0,0.0,-0.5755,-0.594,-0.5895,-0.5542,-0.5121,-0.4426,0.0,0.0,0.0,0.0,0.0,0.0,0.0,0.0,0.0,0.0,0.0,0.0,0.0,0.0,0.0,0.0,0.0,0.0,0.0,0.0,0.0,0.0,0.0,0.0,0.0,0.0,0.0,0.0,0.0,0.0,0.0,0.0,0.0,0.0,0.0,0.0,0.0,0.0,0.0,0.0,0.0,0.0,0.0,0.0,0.0,0.0,0.0,0.0,0.0,0.0,0.0,0.0,0.0,0.0,0.0,0.0,0.0,0.0,0.0,0.0,0.0,0.0,0.0,0.0,0.0,0.0,0.0,0.0,0.0,0.0,0.0,0.0,0.0,0.0,0.0,0.0,0.0,0.0,0.0,0.0,0.0,0.0,0.0,0.0,0.0,0.0,0.0,0.0,0.0,0.0,0.0,0.0,0.0,0.0,0.0,0.0,0.0,0.0,0.0,0.0,0.0,0.0,0.0,0.0,0.0,0.0,0.0,0.0,0.0,-0.6317,-0.6791,-0.6858,-0.6512,-0.5691,-0.5081,0.0,0.0,0.0,0.0,0.0,0.0,0.0,0.0,0.0,0.0,0.0,0.0,0.0,0.0,0.0,0.0,0.0,0.0,0.0,0.0,0.0,0.0,0.0,0.0,0.0,0.0,0.0,0.0,0.0,0.0,0.0,0.0,0.0,0.0,0.0,0.0,0.0,0.0,0.0,0.0,0.0,0.0,0.0,0.0,0.0,0.0,0.0,0.0,0.0,0.0,0.0,0.0,0.0,0.0,0.0,0.0,0.0,0.0,0.0,0.0,0.0,0.0,0.0,0.0,0.0,0.0,0.0,0.0,0.0,0.0,0.0,0.0,0.0,0.0,0.0,0.0,0.0,0.0,0.0,0.0,0.0,0.0,0.0,0.0,0.0,0.0,0.0,0.0,0.0,0.0,0.0,0.0,0.0,0.0,0.0,0.0,0.0,0.0,0.0,0.0,0.0,0.0,0.0,0.0,0.0,0.0,0.0,0.0,-0.4996,-0.6891,-0.7382,-0.7543,-0.7305,-0.6403,-0.5671,0.0,0.0,0.0,0.0,0.0,0.0,0.0,0.0,0.0,0.0,0.0,0.0,0.0,0.0,0.0,0.0,0.0,0.0,0.0,0.0,0.0,0.0,0.0,0.0,0.0,0.0,0.0,0.0,0.0,0.0,0.0,0.0,0.0,0.0,0.0,0.0,0.0,0.0,0.0,0.0,0.0,0.0,0.0,0.0,0.0,0.0,0.0,0.0,0.0,0.0,0.0,0.0,0.0,0.0,0.0,0.0,0.0,0.0,0.0,0.0,0.0,0.0,0.0,0.0,0.0,0.0,0.0,0.0,0.0,0.0,0.0,0.0,0.0,0.0,0.0,0.0,0.0,0.0,0.0,0.0,0.0,0.0,0.0,0.0,0.0,0.0,0.0,0.0,0.0,0.0,0.0,0.0,0.0,0.0,0.0,0.0,0.0,0.0,0.0,0.0,0.0,0.0,0.0,0.0,0.0,0.0,0.0,0.0,-0.5307,-0.7446,-0.7792,-0.797,-0.7821,-0.7095,-0.6234,0.0,0.0,0.0,0.0,0.0,0.0,0.0,0.0,0.0,0.0,0.0,0.0,0.0,0.0,0.0,0.0,0.0,0.0,0.0,0.0,0.0,0.0,0.0,0.0,0.0,0.0,0.0,0.0,0.0,0.0,0.0,0.0,0.0,0.0,0.0,0.0,0.0,0.0,0.0,0.0,0.0,0.0,0.0,0.0,0.0,0.0,0.0,0.0,0.0,0.0,0.0,0.0,0.0,0.0,0.0,0.0,0.0,0.0,0.0,0.0,0.0,0.0,0.0,0.0,0.0,0.0,0.0,0.0,0.0,0.0,0.0,0.0,0.0,0.0,0.0,0.0,0.0,0.0,0.0,0.0,0.0,0.0,0.0,0.0,0.0,0.0,0.0,0.0,0.0,0.0,0.0,0.0,0.0,0.0,0.0,0.0,0.0,0.0,0.0,0.0,0.0,0.0,0.0,0.0,0.0,0.0,0.0,0.0,-0.6893,-0.7869,-0.7999,-0.8024,-0.7991,-0.7156,-0.6462,0.0,0.0,0.0,0.0,0.0,0.0,0.0,0.0,0.0,0.0,0.0,0.0,0.0,0.0,0.0,0.0,0.0,0.0,0.0,0.0,0.0,0.0,0.0,0.0,0.0,0.0,0.0,0.0,0.0,0.0,0.0,0.0,0.0,0.0,0.0,0.0,0.0,0.0,0.0,0.0,0.0,0.0,0.0,0.0,0.0,0.0,0.0,0.0,-0.736,0.0,0.0,0.0,0.0,0.0,0.0,0.0,0.0,0.0,0.0,0.0,0.0,0.0,0.0,0.0,0.0,0.0,0.0,0.0,0.0,0.0,0.0,0.0,0.0,0.0,0.0,0.0,0.0,0.0,0.0,0.0,0.0,0.0,0.0,0.0,0.0,0.0,0.0,0.0,0.0,0.0,0.0,0.0,0.0,0.0,0.0,0.0,0.0,0.0,0.0,0.0,0.0,0.0,0.0,0.0,0.0,0.0,0.0,0.0,-0.7658,-0.7822,-0.7911,-0.8038,-0.8018,-0.7448,-0.6826,0.0,0.0,0.0,0.0,0.0,0.0,0.0,0.0,0.0,0.0,0.0,0.0,0.0,0.0,0.0,0.0,0.0,0.0,0.0,0.0,0.0,0.0,0.0,0.0,0.0,0.0,0.0,0.0,0.0,0.0,0.0,0.0,0.0,0.0,0.0,0.0,0.0,0.0,0.0,0.0,0.0,0.0,0.0,0.0,0.0,0.0,0.0,0.0,0.0,0.0,0.0,0.0,0.0,0.0,0.0,0.0,0.0,0.0,0.0,0.0,0.0,0.0,0.0,0.0,0.0,0.0,0.0,0.0,0.0,0.0,0.0,0.0,0.0,0.0,0.0,0.0,0.0,0.0,0.0,0.0,0.0,0.0,0.0,0.0,0.0,0.0,0.0,0.0,0.0,0.0,0.0,0.0,0.0,0.0,0.0,0.0,0.0,0.0,0.0,0.0,0.0,0.0,0.0,0.0,0.0,0.0,0.0,-0.6478,-0.7743,-0.7638,-0.7909,-0.8038,-0.8038,-0.7773,-0.7129,-0.6002,0.0,0.0,0.0,0.0,0.0,0.0,0.0,0.0,0.0,0.0,0.0,0.0,0.0,0.0,0.0,0.0,0.0,0.0,0.0,0.0,0.0,0.0,0.0,0.0,0.0,0.0,0.0,0.0,0.0,0.0,0.0,0.0,0.0,0.0,0.0,0.0,0.0,0.0,-0.6888,-0.9341,0.0,0.0,0.0,0.0,0.0,0.0,0.0,0.0,-0.9863,0.0,0.0,0.0,0.0,0.0,0.0,0.0,0.0,0.0,0.0,0.0,0.0,0.0,0.0,0.0,0.0,0.0,0.0,0.0,0.0,0.0,0.0,0.0,0.0,0.0,0.0,0.0,0.0,0.0,0.0,0.0,0.0,0.0,0.0,0.0,0.0,0.0,0.0,0.0,0.0,0.0,0.0,0.0,0.0,0.0,0.0,0.0,0.0,0.0,0.0,0.0,0.0,0.0,0.0,0.0,0.0,-0.3995,-0.5839,-0.7197,-0.7936,-0.8011,-0.8038,-0.8038,-0.7868,-0.7231,-0.6091,0.0,0.0,0.0,0.0,0.0,0.0,0.0,0.0,0.0,0.0,0.0,0.0,0.0,0.0,0.0,0.0,0.0,0.0,0.0,0.0,0.0,0.0,0.0,0.0,0.0,0.0,0.0,0.0,0.0,0.0,0.0,0.0,0.0,0.0,0.0,0.0,0.0,0.0,0.0,-1.1996,-1.2586,0.0,0.0,0.0,0.0,0.0,0.0,0.0,0.0,-1.1912,0.0,0.0,0.0,0.0,0.0,0.0,0.0,0.0,0.0,0.0,0.0,0.0,0.0,0.0,0.0,0.0,0.0,0.0,0.0,0.0,0.0,0.0,0.0,0.0,0.0,0.0,0.0,0.0,0.0,0.0,0.0,0.0,0.0,0.0,0.0,0.0,0.0,0.0,0.0,0.0,0.0,0.0,0.0,0.0,0.0,0.0,0.0,0.0,0.0,0.0,0.0,0.0,0.0,0.0,0.0,-0.5033,-0.645,-0.7424,-0.8004,-0.8038,-0.8038,-0.8024,-0.7597,-0.6939,0.0,0.0,0.0,0.0,0.0,0.0,0.0,0.0,0.0,0.0,0.0,0.0,0.0,0.0,0.0,0.0,0.0,0.0,0.0,0.0,0.0,0.0,0.0,0.0,0.0,0.0,0.0,0.0,0.0,0.0,0.0,0.0,0.0,0.0,0.0,0.0,0.0,0.0,0.0,0.0,-1.326,-1.4065,-1.258,0.0,0.0,0.0,0.0,0.0,0.0,-1.1401,-1.2572,0.0,0.0,0.0,0.0,0.0,0.0,0.0,0.0,0.0,0.0,0.0,0.0,0.0,0.0,0.0,0.0,0.0,0.0,0.0,0.0,0.0,0.0,0.0,0.0,0.0,0.0,0.0,0.0,0.0,0.0,0.0,0.0,0.0,0.0,0.0,0.0,0.0,0.0,0.0,0.0,0.0,0.0,0.0,0.0,0.0,0.0,0.0,0.0,0.0,0.0,0.0,0.0,0.0,0.0,0.0,-0.5992,-0.6944,-0.7787,-0.84,-0.8435,-0.8528,-0.881,-0.7949,-0.713,0.0,0.0,0.0,0.0,0.0,0.0,0.0,0.0,0.0,0.0,0.0,0.0,0.0,0.0,0.0,0.0,0.0,0.0,0.0,0.0,0.0,0.0,0.0,0.0,0.0,0.0,0.0,0.0,0.0,0.0,0.0,0.0,0.0,0.0,0.0,0.0,0.0,0.0,0.0,0.0,0.0,-1.494,-1.4769,-1.2298,0.0,0.0,0.0,0.0,-0.9787,-1.2407,0.0,0.0,0.0,0.0,0.0,0.0,0.0,0.0,0.0,0.0,0.0,0.0,0.0,0.0,0.0,0.0,0.0,0.0,0.0,0.0,0.0,0.0,0.0,0.0,0.0,0.0,0.0,0.0,0.0,0.0,0.0,0.0,0.0,0.0,0.0,0.0,0.0,0.0,0.0,0.0,0.0,0.0,0.0,0.0,0.0,0.0,0.0,0.0,0.0,0.0,0.0,0.0,0.0,0.0,0.0,0.0,-0.6474,-0.6697,-0.7805,-0.9649,-0.9805,-1.0288,-1.1356,-1.0032,-0.8674,0.0,0.0,0.0,0.0,0.0,0.0,0.0,0.0,0.0,0.0,0.0,0.0,0.0,0.0,0.0,0.0,0.0,0.0,0.0,0.0,0.0,0.0,0.0,0.0,0.0,0.0,0.0,0.0,0.0,0.0,0.0,0.0,0.0,0.0,0.0,0.0,0.0,0.0,0.0,0.0,0.0,-1.5072,-1.5158,-1.3283,-1.1666,0.0,0.0,-0.704,-1.1977,-1.4731,0.0,0.0,0.0,0.0,0.0,0.0,0.0,0.0,0.0,0.0,0.0,0.0,0.0,0.0,0.0,0.0,0.0,0.0,0.0,0.0,0.0,0.0,0.0,0.0,0.0,0.0,0.0,0.0,0.0,0.0,0.0,0.0,0.0,0.0,0.0,0.0,0.0,0.0,0.0,0.0,0.0,0.0,0.0,0.0,0.0,0.0,0.0,0.0,0.0,0.0,0.0,0.0,0.0,0.0,0.0,-0.741,-0.8022,-0.8998,-1.0039,-1.1044,-1.0386,-1.0297,-1.0779,-0.8853,-0.7473,0.0,0.0,0.0,0.0,0.0,0.0,0.0,0.0,0.0,0.0,0.0,0.0,0.0,0.0,0.0,0.0,0.0,0.0,0.0,0.0,0.0,0.0,0.0,0.0,0.0,0.0,0.0,0.0,0.0,0.0,0.0,0.0,0.0,0.0,0.0,0.0,0.0,0.0,0.0,0.0,0.0,0.0,-1.5915,-1.4572,0.0,0.0,0.0,-1.0035,-1.2133,0.0,0.0,0.0,0.0,0.0,0.0,0.0,0.0,0.0,0.0,0.0,0.0,0.0,0.0,0.0,0.0,0.0,0.0,0.0,0.0,0.0,0.0,0.0,0.0,0.0,0.0,0.0,0.0,0.0,0.0,0.0,0.0,0.0,0.0,0.0,0.0,0.0,0.0,0.0,0.0,0.0,0.0,0.0,0.0,0.0,0.0,0.0,0.0,0.0,0.0,0.0,0.0,0.0,0.0,0.0,0.0,0.0,-0.8806,-1.0712,-1.1833,-1.1913,-1.1049,-1.0555,-1.0538,-0.8804,0.0,0.0,0.0,0.0,0.0,0.0,0.0,0.0,0.0,0.0,0.0,0.0,0.0,0.0,0.0,0.0,0.0,0.0,0.0,0.0,0.0,0.0,0.0,0.0,0.0,0.0,0.0,-0.5739,0.0,0.0,0.0,0.0,0.0,0.0,0.0,0.0,0.0,0.0,0.0,0.0,0.0,0.0,-1.5303,-1.6904,-1.5987,-1.5035,0.0,0.0,-1.3345,-1.2845,-1.5336,-1.6085,0.0,0.0,0.0,0.0,0.0,0.0,0.0,0.0,0.0,0.0,0.0,0.0,0.0,0.0,0.0,0.0,0.0,0.0,0.0,0.0,0.0,0.0,0.0,0.0,0.0,0.0,0.0,0.0,0.0,0.0,0.0,0.0,0.0,0.0,0.0,0.0,0.0,0.0,0.0,0.0,0.0,0.0,0.0,0.0,0.0,0.0,0.0,0.0,0.0,0.0,0.0,0.0,0.0,0.0,0.0,-0.7975,-1.0423,-1.1915,-1.2223,-1.2144,-1.2044,-1.2044,-1.1755,-1.0524,0.0,0.0,0.0,0.0,0.0,0.0,0.0,0.0,0.0,0.0,0.0,0.0,0.0,0.0,0.0,0.0,0.0,0.0,0.0,0.0,0.0,0.0,0.0,0.0,0.0,0.0,0.0,0.0,0.0,0.0,0.0,0.0,0.0,0.0,0.0,0.0,0.0,0.0,0.0,0.0,0.0,-1.6937,-1.8213,-1.7318,-1.6673,0.0,0.0,-1.6253,-1.5141,-1.729,-1.7398,-1.2138,0.0,0.0,0.0,0.0,0.0,0.0,0.0,0.0,0.0,0.0,0.0,0.0,0.0,0.0,0.0,0.0,0.0,0.0,0.0,0.0,0.0,0.0,0.0,0.0,0.0,0.0,0.0,0.0,0.0,0.0,0.0,0.0,0.0,0.0,0.0,0.0,0.0,0.0,0.0,0.0,0.0,0.0,0.0,0.0,0.0,0.0,0.0,0.0,0.0,0.0,0.0,0.0,0.0,-0.888,-0.9006,-1.2627,-1.4558,-1.4654,-1.4113,-1.378,-1.3791,-1.2575,-1.1127,0.0,0.0,0.0,0.0,0.0,0.0,0.0,0.0,0.0,0.0,0.0,0.0,0.0,0.0,0.0,0.0,0.0,0.0,0.0,0.0,0.0,0.0,0.0,0.0,0.0,0.0,0.0,0.0,-0.7278,-0.7697,-0.75,0.0,0.0,0.0,0.0,0.0,0.0,0.0,0.0,0.0,0.0,-1.7779,-1.9375,-1.8589,0.0,0.0,-1.6842,-1.5413,-1.4934,-1.4542,-1.3698,-1.1776,-1.1714,0.0,0.0,0.0,0.0,0.0,0.0,0.0,0.0,0.0,0.0,0.0,0.0,0.0,0.0,0.0,0.0,0.0,0.0,0.0,0.0,0.0,0.0,0.0,0.0,0.0,0.0,0.0,0.0,0.0,0.0,0.0,0.0,0.0,0.0,0.0,0.0,0.0,0.0,0.0,0.0,0.0,0.0,0.0,0.0,0.0,0.0,0.0,0.0,0.0,0.0,0.0,0.0,-0.9752,-0.991,-1.4078,-1.6157,-1.5918,-1.5178,-1.4651,-1.4231,-1.3259,-1.2005,0.0,0.0,0.0,0.0,0.0,0.0,0.0,0.0,0.0,0.0,0.0,0.0,0.0,0.0,0.0,0.0,0.0,0.0,0.0,0.0,0.0,0.0,0.0,0.0,0.0,0.0,0.0,0.0,-0.7437,-0.7602,-0.7602,0.0,0.0,0.0,0.0,0.0,0.0,0.0,0.0,0.0,0.0,-1.8802,-1.9832,-1.8919,-1.8285,-1.9185,-1.6964,-1.5084,-1.5131,-1.4249,-1.3209,-1.2226,0.0,0.0,0.0,0.0,0.0,0.0,0.0,0.0,0.0,0.0,0.0,0.0,0.0,0.0,0.0,0.0,0.0,0.0,0.0,0.0,0.0,0.0,0.0,0.0,0.0,0.0,0.0,0.0,0.0,0.0,-0.2653,0.0,0.0,0.0,0.0,0.0,0.0,0.0,0.0,0.0,0.0,0.0,0.0,0.0,0.0,0.0,0.0,0.0,0.0,0.0,0.0,0.0,0.0,-0.9922,-1.0432,-1.4283,-1.5944,-1.5092,-1.5024,-1.4492,-1.3331,-1.4037,-1.3703,-1.2163,0.0,0.0,0.0,0.0,0.0,0.0,0.0,0.0,0.0,0.0,0.0,0.0,0.0,0.0,0.0,0.0,0.0,0.0,0.0,0.0,0.0,0.0,0.0,0.0,0.0,0.0,-0.766,-0.777,-0.7875,0.0,0.0,0.0,0.0,0.0,0.0,0.0,0.0,0.0,0.0,-1.6464,-1.9994,-1.9488,-1.8091,-1.7591,-1.8783,-1.7315,-1.6179,-1.6356,-1.7603,-1.7553,0.0,0.0,0.0,0.0,0.0,0.0,0.0,0.0,0.0,0.0,0.0,0.0,0.0,0.0,0.0,0.0,0.0,0.0,0.0,0.0,0.0,0.0,0.0,0.0,0.0,0.0,0.0,-0.3711,-0.2869,0.0,0.0,0.0,0.0,0.0,0.0,0.0,0.0,0.0,0.0,0.0,-0.6261,-0.6607,0.0,0.0,0.0,0.0,0.0,0.0,0.0,0.0,0.0,0.0,0.0,0.0,-1.0001,-1.0738,-1.4551,-1.6539,-1.6394,-1.6586,-1.7095,-1.7825,-1.7715,-1.6689,-1.4824,0.0,0.0,0.0,0.0,0.0,0.0,0.0,0.0,0.0,0.0,0.0,0.0,0.0,0.0,0.0,0.0,0.0,0.0,0.0,0.0,0.0,0.0,0.0,0.0,0.0,-0.8118,0.0,0.0,0.0,0.0,0.0,0.0,0.0,0.0,0.0,0.0,0.0,-1.3673,-1.4255,-1.741,-1.9708,-1.9878,-1.8634,-1.7756,0.0,0.0,0.0,0.0,0.0,0.0,0.0,0.0,0.0,0.0,0.0,0.0,0.0,0.0,-1.5767,-1.386,-1.4121,-1.4716,-1.4621,0.0,0.0,0.0,0.0,0.0,0.0,0.0,0.0,0.0,0.0,0.0,0.0,0.0,0.0,-0.4804,0.0,-0.5085,0.0,0.0,0.0,0.0,0.0,0.0,0.0,0.0,-0.6736,-0.7136,-0.7272,-0.8073,-0.8328,0.0,-0.848,-0.8252,0.0,0.0,0.0,0.0,0.0,0.0,0.0,0.0,-1.0854,-1.1677,-1.5081,-1.6967,-1.7284,-1.7956,-1.8916,-2.0231,-2.0008,-1.9129,-1.7461,-1.6807,-1.538,0.0,0.0,0.0,0.0,0.0,0.0,0.0,0.0,0.0,0.0,0.0,0.0,0.0,0.0,0.0,0.0,0.0,0.0,0.0,0.0,0.0,0.0,0.0,-0.825,0.0,0.0,0.0,0.0,0.0,0.0,0.0,0.0,0.0,-1.5691,-1.5219,-1.5381,-1.6299,-1.8099,-1.9516,-1.9713,0.0,0.0,0.0,0.0,0.0,0.0,0.0,-1.6124,-1.704,-1.7204,-1.761,-1.8632,-1.9589,-1.9905,-1.8801,0.0,0.0,-1.7003,-1.6858,-1.7277,-1.7265,-1.883,-2.0451,-2.1459,-2.1473,-2.2367,0.0,0.0,0.0,0.0,0.0,0.0,0.0,0.0,-0.6201,-0.6064,0.0,-0.7474,0.0,0.0,0.0,0.0,0.0,-0.6556,0.0,0.0,-0.8334,-0.8735,-0.8815,-1.0428,-1.1072,-1.1105,-1.2392,-1.2628,-1.1771,-0.9203,0.0,0.0,0.0,0.0,0.0,0.0,-1.2395,-1.3498,-1.5993,-1.7427,-1.7757,-1.9066,-1.9994,-2.0436,-2.1015,-2.0891,-2.0019,-1.911,-1.8181,-1.7104,-1.2786,0.0,0.0,0.0,0.0,0.0,0.0,0.0,0.0,0.0,0.0,0.0,0.0,0.0,0.0,0.0,0.0,0.0,0.0,0.0,0.0,-0.8215,0.0,0.0,0.0,0.0,0.0,0.0,0.0,0.0,0.0,0.0,-1.9252,-1.7894,-1.6963,-1.7597,0.0,0.0,0.0,0.0,-1.8094,-1.8787,-1.7588,-1.7153,-1.8709,-1.9506,-1.9972,-2.0104,0.0,0.0,-2.1356,-2.2804,-2.3377,-2.1352,-2.197,-2.1899,-1.9567,-1.953,-1.988,-2.0201,-2.132,-2.2642,-2.4138,-2.4514,-2.5673,-0.7938,0.0,0.0,0.0,0.0,-0.6953,-0.7937,-0.9672,-0.954,-0.8658,-0.749,-0.9866,0.0,0.0,0.0,0.0,0.0,0.0,-1.0739,-1.125,-1.184,-1.2219,-1.2346,-1.2986,-1.3164,-1.3206,-1.4633,-1.459,-1.3445,-1.4171,-1.2385,-0.8235,0.0,0.0,0.0,0.0,-1.3411,-1.4696,-1.7775,-1.9685,-2.0178,-2.1364,-2.2391,-2.3097,-2.3706,-2.3422,-2.2298,-2.2538,-2.1328,-1.8428,-1.8956,0.0,0.0,0.0,0.0,0.0,0.0,0.0,0.0,0.0,0.0,0.0,0.0,0.0,0.0,0.0,0.0,0.0,0.0,0.0,-0.9978,-1.0755,-1.1297,0.0,0.0,0.0,0.0,0.0,0.0,0.0,0.0,0.0,-2.0494,-1.9435,-1.8784,0.0,0.0,-1.9322,-1.9239,-1.847,-1.797,-1.8313,-1.838,0.0,0.0,-2.2242,-2.3574,-2.5154,-2.335,-2.275,-2.5965,-2.7509,-2.8125,-2.7051,-2.7138,-2.716,-2.6445,-2.3847,-2.2295,-2.2335,-2.4386,-2.5993,-2.5518,-2.7577,-3.0352,-1.0175,-0.9267,-0.884,-0.9356,-1.0297,-1.0271,-1.1097,-1.2578,-1.2455,-1.199,-1.1494,-1.3147,-1.5214,-1.7204,-1.3626,0.0,0.0,0.0,-1.4102,-1.487,-1.567,-1.6291,-1.6457,-1.7207,-1.751,-1.7613,-1.8915,-1.8947,-1.7968,-1.9112,-1.7419,-1.3209,0.0,0.0,-1.1571,-1.3573,-1.5363,-1.6941,-1.9255,-2.1155,-2.2552,-2.3947,-2.4814,-2.5125,-2.5448,-2.5199,-2.4234,-2.4506,-2.3534,-2.1192,-2.234,-2.1228,0.0,0.0,0.0,0.0,0.0,0.0,0.0,0.0,0.0,0.0,0.0,-0.9096,0.0,0.0,0.0,0.0,-1.0103,-1.2883,-1.4264,-1.396,0.0,0.0,0.0,0.0,0.0,0.0,0.0,-1.6388,-1.8507,-2.0268,-2.1283,-2.027,-1.9745,-2.0497,-2.0469,-2.0429,-2.028,0.0,-2.079,-2.0729,-2.1787,-2.2964,-2.4154,-2.5319,-2.6632,-2.831,-2.6682,-2.5831,-2.8685,-3.1081,-3.1791,-3.0232,-2.9804,-2.9788,-2.9788,-2.7509,-2.5775,-2.5555,-2.7788,-2.9192,-2.8345,-3.0912,-3.3405,-1.2957,-1.2847,-1.2091,-1.2904,-1.45,-1.46,-1.4823,-1.5046,-1.5046,-1.5726,-1.6809,-1.672,-1.6879,-1.7054,-1.5457,0.0,-1.4263,-1.6267,-1.7636,-1.8404,-1.9877,-2.0709,-2.0872,-2.2348,-2.2997,-2.2894,-2.4285,-2.4574,-2.3983,-2.3445,-2.1908,-1.9239,-1.7274,-1.584,-1.4929,-1.6249,-1.7964,-1.9998,-2.0742,-2.2355,-2.4909,-2.6576,-2.7137,-2.6465,-2.6367,-2.6133,-2.5684,-2.5254,-2.4824,-2.4336,-2.3567,-2.3173,-2.291,0.0,0.0,0.0,0.0,0.0,0.0,0.0,0.0,0.0,0.0,0.0,0.0,0.0,0.0,0.0,-1.0374,0.0,-1.8951,-1.7631,0.0,0.0,0.0,-1.6195,-1.7563,-1.8561,-1.8784,-1.7956,0.0,0.0,-2.2138,-2.0775,-2.0335,-2.1607,-2.2028,-2.2028,-2.1876,-2.3695,-2.5212,-2.5009,-2.6616,-2.7832,-2.8,-2.8748,-2.9611,-3.048,-3.0076,-3.0143,-3.0882,-3.3498,-3.428,-3.1525,-3.0751,-3.0909,-3.0768,-3.0892,-3.0758,-3.0102,-3.116,-3.207,-3.1729,-3.3273,-3.4731,-1.3931,-1.515,-1.4896,-1.4901,-1.4966,-1.5017,-1.5894,-1.7092,-1.7092,-1.8009,-1.9483,-1.9194,-1.8892,-1.8937,-1.9665,-2.0082,-2.0231,-2.2015,-2.3569,-2.4986,-2.5429,-2.5629,-2.5715,-2.6092,-2.5588,-2.4729,-2.5967,-2.6013,-2.4878,-2.458,-2.3392,-2.1496,-2.0759,-1.9502,-1.7476,-1.844,-1.9925,-2.1957,-2.3555,-2.5344,-2.7381,-2.7571,-2.7427,-2.6875,-2.623,-2.5684,-2.5234,-2.4805,-2.4375,-2.3965,-2.3811,-2.3536,-2.3105,-1.8438,0.0,0.0,0.0,0.0,0.0,0.0,0.0,0.0,0.0,-1.3405,-1.0842,0.0,-1.5209,0.0,-1.4197,-1.7337,-1.8948,-2.1164,0.0,0.0,-1.8998,-1.8768,-2.214,-2.1394,-2.0508,-2.0294,-2.2282,-2.3746,-2.4004,-2.3678,-2.327,-2.3319,-2.3281,-2.352,-2.3969,-2.4847,-2.6167,-2.7473,-2.8726,-2.9953,-3.13,-3.3114,-3.4199,-3.4539,-3.437,-3.4501,-3.4627,-3.5262,-3.5711,-3.4859,-3.4991,-3.518,-3.5059,-3.5444,-3.5576,-3.5369,-3.4168,-3.2516,-3.1133,-3.3431,-3.584,-1.6172,-1.7076,-1.7859,-1.8001,-1.7742,-1.6106,-1.6055,-1.7063,-1.7827,-1.8765,-1.9653,-2.0711,-2.1075,-2.1028,-2.3225,-2.4416,-2.4845,-2.7133,-2.8671,-2.9692,-2.9883,-2.9922,-2.9809,-2.9184,-2.8053,-2.6572,-2.7409,-2.6836,-2.526,-2.5846,-2.5194,-2.3441,-2.4021,-2.3612,-2.2072,-2.1666,-2.2403,-2.4201,-2.5827,-2.7359,-2.8535,-2.8164,-2.7461,-2.6484,-2.6172,-2.5449,-2.4258,-2.416,-2.3848,-2.3262,-2.3457,-2.3437,-2.3086,-2.0843,-1.714,0.0,0.0,0.0,0.0,0.0,0.0,0.0,0.0,0.0,0.0,0.0,-1.8515,-1.8991,-1.8742,-1.8824,-1.926,-2.322,-2.5486,-2.44,-2.3099,-2.2902,-2.4645,-2.3898,-2.3036,-2.2418,-2.3461,-2.4368,-2.4502,-2.4597,-2.4524,-2.4215,-2.5644,-2.6451,-2.6117,-2.7541,-2.9393,-3.0528,-3.1714,-3.2965,-3.4097,-3.5141,-3.6035,-3.6055,-3.6034,-3.607,-3.6348,-3.6502,-3.6538,-3.666,-3.6797,-3.6953,-3.6953,-3.7129,-3.7305,-3.7086,-3.6055,-3.4799,-3.3721,-3.478,-3.622,-1.8372,-1.864,-2.0195,-2.0589,-2.0195,-1.7205,-1.6043,-1.6302,-1.7602,-1.8244,-1.8744,-2.1768,-2.3097,-2.3288,-2.6301,-2.7952,-2.8611,-3.1461,-3.2912,-3.3162,-3.3353,-3.3191,-3.2716,-3.1516,-2.9884,-2.817,-2.8051,-2.714,-2.5506,-2.6592,-2.6537,-2.5094,-2.6371,-2.7014,-2.6749,-2.5241,-2.5145,-2.6391,-2.7657,-2.8555,-2.8906,-2.8457,-2.7441,-2.5937,-2.6035,-2.5195,-2.3262,-2.3457,-2.3281,-2.2578,-2.2913,-2.311,-2.296,-2.2783,-2.0111,0.0,-1.6899,0.0,0.0,0.0,0.0,0.0,0.0,0.0,0.0,-1.9124,-2.0891,-2.8072,-2.4063,-2.1258,-2.1324,-2.515,-2.786,-2.8394,-2.7764,-2.6939,-2.6145,-2.5951,-2.5447,-2.412,-2.3904,-2.413,-2.4556,-2.4528,-2.4643,-2.5665,-2.8869,-3.0277,-2.8617,-3.0797,-3.2905,-3.3448,-3.4883,-3.5568,-3.5938,-3.5957,-3.6152,-3.6211,-3.615,-3.6186,-3.6738,-3.721,-3.7465,-3.7285,-3.7324,-3.7383,-3.7383,-3.7422,-3.748,-3.7519,-3.7339,-3.7261,-3.6964,-3.6585,-3.6463,-1.8081,-1.85,-1.8896,-1.8116,-1.6818,-1.6172,-1.6689,-1.7988,-1.6818,-1.7216,-1.8756,-2.1992,-2.4116,-2.5381,-2.8597,-3.062,-3.2004,-3.3809,-3.4825,-3.4803,-3.4825,-3.3556,-3.1126,-3.0799,-2.9164,-2.6574,-2.647,-2.6298,-2.5885,-2.4928,-2.4754,-2.5476,-2.5577,-2.6213,-2.7146,0.0,0.0,0.0,-2.8524,-2.8848,-2.8887,-2.8164,-2.7305,-2.6289,-2.5312,0.0,-2.3223,-2.291,-2.2676,-2.2539,-2.2938,0.0,0.0,0.0,0.0,0.0,0.0,0.0,0.0,0.0,0.0,0.0,-2.4296,-2.3176,-2.1614,-2.2351,-2.5014,-2.9839,-3.0631,-3.0776,-3.0825,-3.0062,-3.061,-3.2919,-2.9304,-2.7071,-2.8558,-2.6349,-2.4575,-2.4422,-2.4461,-2.458,-2.4929,-2.4593,-2.5838,-2.8742,-3.3081,-3.463,-3.2234,-3.272,-3.3762,-3.5177,-3.5801,-3.6172,-3.6484,-3.6543,-3.666,-3.6794,-3.6374,-3.6412,-3.7027,-3.7806,-3.8065,-3.7524,-3.7578,-3.7812,-3.7812,-3.8086,-3.8281,-3.832,-3.832,-3.8144,-3.7661,-3.7559,-3.7611,-1.9732,0.0,-1.9864,-1.9291,0.0,-1.7602,-1.7731,-1.8512,-1.7602,-1.8617,-2.1168,-2.3653,-2.604,-2.8328,-3.1526,-3.3289,-3.4161,-3.5681,-3.555,-3.405,-3.3289,-3.1775,-2.9423,-2.8637,-2.7142,-2.4901,-2.4778,-2.4409,-2.3544,-2.3574,-2.4332,-2.584,-2.6542,-2.7541,-2.9028,-2.9872,-2.9902,-2.9238,-2.9238,-2.9336,-2.9512,-2.8926,-2.7988,-2.6758,0.0,0.0,0.0,0.0,0.0,0.0,0.0,0.0,0.0,0.0,0.0,-2.4229,-2.329,-2.4512,-2.8416,-2.6033,-2.5233,-2.7415,-2.8047,-2.7122,-2.4424,-2.5982,-2.8501,-3.1752,-3.2595,-3.2981,-3.327,-3.2676,-3.3005,-3.4922,-3.2611,-3.0906,-3.084,-2.9666,-2.7583,-2.5318,-2.6328,-2.8114,-3.0595,-3.132,-3.1193,-3.1198,-3.499,-3.7494,-3.6133,-3.5473,-3.5629,-3.6502,-3.666,-3.6719,-3.6934,-3.6992,-3.7031,-3.7246,-3.692,-3.7016,-3.7436,-3.8157,-3.8477,-3.8112,-3.8105,-3.8242,-3.8262,-3.8437,-3.8574,-3.8574,-3.8574,-3.8476,-3.819,-3.8105,-3.8242,-2.163,-2.1603,-2.1363,-2.1256,-2.1129,-1.9695,-1.9285,-1.953,0.0,0.0,0.0,-2.5497,-2.7979,-3.076,-3.3669,-3.4936,-3.4913,-3.6117,-3.4868,-3.1479,-3.0296,-2.8546,-2.6491,-2.5521,-2.4255,-2.2812,-2.2952,-2.2466,-2.1235,-2.2466,-2.4178,-2.5984,-2.7314,-2.892,-3.0762,-3.0898,-3.0703,-3.0312,-2.9902,-2.9844,-3.0176,-2.9707,-2.875,-2.7266,-2.7441,-2.666,-2.4863,-2.5117,-2.498,-2.4297,-2.4648,-2.4313,-2.3,-2.3929,-2.5233,-2.6494,-2.7524,-2.8509,-2.9693,-2.8358,-2.7977,-2.9264,-3.0371,-2.9813,-2.7092,-2.8946,-3.1207,-3.3194,-3.2897,-3.3,-3.3828,-3.4191,-3.4942,-3.587,-3.5465,-3.4237,-3.2838,-3.2521,-3.0593,-2.7215,-2.848,-3.2165,-3.654,-3.7773,-3.7297,-3.4324,-3.6199,-3.8646,-3.8465,-3.7602,-3.7066,-3.7207,-3.7129,-3.7207,-3.7383,-3.7363,-3.7402,-3.7578,-3.7631,-3.7643,-3.7922,-3.834,-3.8555,-3.8516,-3.8574,-3.8409,-3.8117,-3.8263,-3.8409,-3.8117,-3.8428,-3.8574,-3.8574,-3.8574,-3.8555,-2.2069,-2.1924,-2.1884,-2.1857,-2.1857,-2.1595,-2.2339,-2.3565,-2.1583,-2.0975,-2.1603,-2.6073,-2.8947,-3.0644,-3.2561,-3.3332,-3.3183,-3.3386,-3.0983,0.0,-2.6338,-2.3947,-1.9991,-2.1061,-2.0863,-1.9394,-2.0703,-2.1362,-2.1109,-2.1348,-2.2937,-2.5741,-2.6227,-2.7931,-3.0645,-3.0898,-3.0859,-3.0781,-3.0351,-3.0137,-3.0176,-2.9414,-2.873,-2.8125,-2.748,-2.6816,-2.6152,-2.6191,-2.6152,-2.6035,-2.6426,-2.6657,-2.6602,-2.6756,-2.7917,-2.9944,-3.0343,-3.0539,-3.0678,-3.0458,-3.0564,-3.1074,-3.1328,-2.9949,-2.6576,-2.969,-3.2273,-3.3367,-3.3915,-3.4744,-3.5429,-3.5389,-3.5367,-3.585,-3.4599,-3.3357,-3.32,-3.1983,-3.1192,-3.1067,-3.0576,-3.2471,-3.7313,-3.8438,-3.8328,-3.7788,-3.7933,-3.8563,-3.8426,-3.7916,-3.7344,-3.7266,-3.709,-3.7226,-3.7676,-3.7734,-3.7851,-3.834,-3.8379,-3.8398,-3.8418,-3.8496,-3.8574,-3.8574,-3.8574,-3.797,-3.6719,-3.7492,-3.7805,-3.6885,-3.7492,-3.8574,-3.8574,-3.8574,-3.8574,-2.2364,-2.2205,-2.2044,-2.1991,-2.2109,-2.3,-2.3898,-2.463,-2.5408,-2.5638,-2.5585,-2.7504,-2.9691,-3.1856,-3.1856,-3.1681,-3.1506,-2.9718,-2.6848,-2.3182,-2.2167,-2.0078,-1.7407,-1.8836,-1.9242,-1.864,-2.0322,-2.1109,-2.1235,-2.1964,-2.3683,-2.5984,-2.7692,-2.9412,-3.0762,-3.0898,-3.0898,-3.0898,-3.0684,-3.0566,-3.0566,-3.0195,-2.9785,-2.9336,-2.8926,-2.8555,-2.8125,-2.8125,-2.8008,-2.7773,-2.8164,-2.8379,-2.8359,-2.8641,-2.9498,-3.0802,-3.091,-3.0923,-3.0876,-3.1112,-3.1368,-3.1816,-3.209,-3.1482,-2.9751,-3.12,-3.2517,-3.3369,-3.4241,-3.4992,-3.5942,-3.5672,-3.5508,-3.5916,-3.5218,-3.4727,-3.4627,-3.4223,-3.4092,-3.4603,-3.3907,-3.4807,-3.8144,-3.8609,-3.8543,-3.8555,-3.8574,-3.8574,-3.8574,-3.8262,-3.7988,-3.7988,-3.7891,-3.793,-3.8203,-3.8223,-3.8301,-3.8555,-3.8574,-3.8574,-3.8574,-3.8574,-3.8574,-3.8574,-3.8574,-3.8263,-3.7179,-3.7805,-3.7951,-3.7658,-3.7805,-3.8574,-3.8574,-3.8574,-3.8574,-2.2525,-2.2498,-2.2271,-2.2443,-2.296,-2.4247,-2.526,-2.6279,-2.8741,-2.981,-2.9886,-2.9481,-3.0546,-3.2424,-3.0956,-3.0062,-2.9108,-2.6064,-2.2921,-1.9815,-1.8024,-1.6379,-1.5135,-1.6818,-1.7859,-1.8116,-2.0068,-2.1109,-2.1222,-2.2841,-2.4655,-2.6591,-2.9412,-3.0898,-3.0898,-3.0898,-3.0898,-3.0898,-3.0898,-3.0898,-3.0898,-3.0898,-3.0703,-3.0391,-3.0351,-3.0195,-2.9883,-2.9863,-2.9707,-2.9414,-2.9687,-2.9839,-2.9584,-2.998,-3.0371,-3.0853,-3.0974,-3.0937,-3.1055,-3.1426,-3.1855,-3.2285,-3.2617,-3.2812,-3.2766,-3.2536,-3.2719,-3.3392,-3.4219,-3.521,-3.5751,-3.5681,-3.5664,-3.5976,-3.6035,-3.5938,-3.6191,-3.6465,-3.6758,-3.6833,-3.6598,-3.6751,-3.8117,-3.8516,-3.8574,-3.8574,-3.8574,-3.8574,-3.8574,-3.8574,-3.8574,-3.8574,-3.8574,-3.8535,-3.8574,-3.8555,-3.8555,-3.8574,-3.8574,-3.8574,-3.8574,-3.8574,-3.8574,-3.8574,-3.8574,-3.8263,-3.797,-3.8263,-3.8263,-3.7805,-3.7951,-3.8574,-3.8574,-3.8574,-3.8574,-2.2819,-2.2819,-2.2766,-2.3704,-2.4996,-2.5398,-2.7226,-2.993,-3.0175,-3.1021,-3.2227,-3.1963,-3.1696,-3.1465,-2.9934,-2.8268,-2.6365,-2.2945,-1.9701,-1.6679,-1.4605,-1.2931,-1.1894,-1.4744,-1.6172,-1.6689,-1.9546,-2.1109,-2.1348,-2.2952,-2.5269,-2.8068,-3.002,-3.0898,-3.0898,-3.0898,-3.0898,-3.0898,-3.0898,-3.0898,-3.0898,-3.0898,-3.0859,-3.084,-3.082,-3.082,-3.0723,-3.0762,-3.0742,-3.0723,-3.0703,-3.0742,-3.0703,-3.0781,-3.082,-3.084,-3.0879,-3.1035,-3.1445,-3.1875,-3.2285,-3.2695,-3.2773,-3.2988,-3.332,-3.3359,-3.3277,-3.3656,-3.4453,-3.5396,-3.589,-3.5916,-3.5957,-3.5996,-3.6035,-3.6172,-3.6523,-3.6641,-3.6816,-3.7226,-3.7151,-3.7383,-3.7922,-3.8379,-3.8574,-3.8574,-3.8574,-3.8574,-3.8574,-3.8574,-3.8574,-3.8574,-3.8574,-3.8574,-3.8574,-3.8574,-3.8574,-3.8574,-3.8574,-3.8574,-3.8574,-3.8574,-3.8574,-3.8574,-3.8574,-3.8117,-3.7198,-3.7198,-3.7951,-3.7179,-3.7639,-3.8574,-3.8574,-3.8574,-3.8574,-2.2859,-2.2859,-2.2859,-2.3924,-2.5517,-2.6573,-2.8541,-3.0753,-3.1795,-3.2497,-3.3019,-3.2988,-3.2539,-3.1793,-2.9136,-2.7402,-2.6362,-2.1847,-1.91,-1.7532,-1.5714,-1.4493,-1.4101,-1.6172,-1.7474,-1.7602,-1.9941,-2.1601,-2.2827,-2.5146,-2.7572,-2.9648,-3.0645,-3.0898,-3.0898,-3.0898,-3.0898,-3.0898,-3.0898,-3.0898,-3.0898,-3.0898,-3.0898,-3.0898,-3.0898,-3.0898,-3.0898,-3.0898,-3.0898,-3.0898,-3.0898,-3.0898,-3.0898,-3.0898,-3.0898,-3.0918,-3.125,-3.1582,-3.2226,-3.2441,-3.2715,-3.3125,-3.3164,-3.334,-3.375,-3.3611,-3.3733,-3.4425,-3.5191,-3.5811,-3.6032,-3.5937,-3.6035,-3.6035,-3.6035,-3.6191,-3.6621,-3.6894,-3.7207,-3.7617,-3.7864,-3.8117,-3.832,-3.8457,-3.8574,-3.8574,-3.8574,-3.8574,-3.8574,-3.8574,-3.8574,-3.8574,-3.8574,-3.8574,-3.8574,-3.8574,-3.8574,-3.8574,-3.8574,-3.8574,-3.8574,-3.8574,-3.8574,-3.8574,-3.8574,-3.8428,-3.7805,-3.7805,-3.8263,-3.7492,-3.7639,-3.8574,-3.8574,-3.8574,-3.8574,-2.2859,-2.2859,-2.2859,-2.4196,-2.6306,-2.7635,-2.9474,-3.1561,-3.2892,-3.3418,-3.3418,-3.3418,-3.3086,-3.2046,-2.8811,-2.7189,-2.6423,-2.154,-1.9137,-1.8851,-1.7085,-1.6095,-1.6357,-1.7855,-1.8618,-1.8863,-2.0361,-2.2215,-2.4286,-2.697,-2.9275,-3.0645,-3.0898,-3.0898,-3.0898,-3.0898,-3.0898,-3.0898,-3.0898,-3.0898,-3.0898,-3.0898,-3.0898,-3.0898,-3.0898,-3.0898,-3.0898,-3.0898,-3.0898,-3.0898,-3.0898,-3.0898,-3.0898,-3.0898,-3.0957,-3.127,-3.1879,-3.2309,-3.2773,-3.2891,-3.3105,-3.3379,-3.3418,-3.3594,-3.3965,-3.3843,-3.4231,-3.5062,-3.5681,-3.6051,-3.5976,-3.6035,-3.6035,-3.6035,-3.6113,-3.6367,-3.6797,-3.7207,-3.7637,-3.8047,-3.834,-3.8574,-3.8574,-3.8574,-3.8574,-3.8574,-3.8574,-3.8574,-3.8574,-3.8574,-3.8574,-3.8574,-3.8574,-3.8574,-3.8574,-3.8574,-3.8574,-3.8574,-3.8574,-3.8574,-3.8574,-3.8574,-3.8574,-3.8574,-3.8574,-3.8574,-3.8263,-3.8428,-3.8574,-3.8574,-3.8574,-3.8574,-3.8574,-3.8574,-3.8574,-2.2859,-2.2859,-2.2859,-2.4858,-2.8048,-2.8163,-3.0125,-3.3146,-3.3292,-3.3418,-3.3418,-3.3418,-3.3398,-3.3029,-2.941,-2.7549,-2.6487,-2.2015,-1.9663,-1.9397,-1.7738,-1.6809,-1.6799,-1.8336,-1.9007,-1.9256,-2.0515,-2.276,-2.5774,-2.7709,-2.9294,-3.0762,-3.0898,-3.0898,-3.0898,-3.0898,-3.0898,-3.0898,-3.0898,-3.0898,-3.0898,-3.0898,-3.0898,-3.0898,-3.0898,-3.0898,-3.0898,-3.0898,-3.0898,-3.0898,-3.0898,-3.0898,-3.0898,-3.0918,-3.127,-3.2038,-3.2911,-3.308,-3.2871,-3.3144,-3.3379,-3.3418,-3.3457,-3.3633,-3.4101,-3.4323,-3.4731,-3.5179,-3.5742,-3.5996,-3.6016,-3.6035,-3.6035,-3.6055,-3.6387,-3.6777,-3.7207,-3.7578,-3.8047,-3.8398,-3.8535,-3.8574,-3.8574,-3.8574,-3.8574,-3.8574,-3.8574,-3.8574,-3.8574,-3.8574,-3.8574,-3.8574,-3.8574,-3.8574,-3.8574,-3.8574,-3.8574,-3.8574,-3.8574,-3.8574,-3.8574,-3.8574,-3.8574,-3.8574,-3.8574,-3.8574,-3.8574,-3.8574,-3.8574,-3.8574,-3.8574,-3.8574,-3.8574,-3.8574,-3.8574,-2.2859,-2.2859,-2.2859,-2.4993,-2.8032,-2.8163,-3.0142,-3.3292,-3.3418,-3.3418,-3.3418,-3.3418,-3.3418,-3.3272,-3.0773,-2.8939,-2.7491,-2.4393,-2.2471,-2.1404,-2.0439,-2.0086,-2.0207,-2.0661,-2.0886,-2.1005,-2.145,-2.3191,-2.6331,-2.9046,-3.0524,-3.0801,-3.0898,-3.0898,-3.0898,-3.0898,-3.0898,-3.0898,-3.0898,-3.0898,-3.0898,-3.0898,-3.0898,-3.0898,-3.0898,-3.0898,-3.0898,-3.0898,-3.0898,-3.0898,-3.0898,-3.1016,-3.1269,-3.1069,-3.1556,-3.2789,-3.3267,-3.3277,-3.3184,-3.332,-3.3418,-3.3437,-3.3691,-3.4004,-3.4434,-3.4692,-3.4968,-3.5529,-3.5898,-3.6016,-3.6035,-3.6035,-3.6035,-3.6074,-3.6426,-3.6855,-3.7266,-3.7676,-3.8086,-3.8457,-3.8574,-3.8574,-3.8574,-3.8574,-3.8574,-3.8574,-3.8574,-3.8574,-3.8574,-3.8574,-3.8574,-3.8574,-3.8574,-3.8574,-3.8574,-3.8574,-3.8574,-3.8574,-3.8574,-3.8574,-3.8574,-3.8574,-3.8574,-3.8574,-3.8574,-3.8574,-3.8574,-3.8574,-3.8574,-3.8574,-3.8574,-3.8574,-3.8574,-3.8574,-3.8574,-2.3006,-2.3131,-2.357,-2.5383,-2.818,-2.8821,-3.066,-3.3292,-3.3418,-3.3418,-3.3418,-3.3418,-3.2835,-3.1832,-3.1121,-2.9457,-2.7354,-2.581,-2.4271,-2.2687,-2.2365,-2.2271,-2.2258,-2.2164,-2.2124,-2.2362,-2.3173,-2.4796,-2.6852,-3.0092,-3.1443,-3.1328,-3.1309,-3.123,-3.1133,-3.1094,-3.1035,-3.0937,-3.0898,-3.0957,-3.1074,-3.1094,-3.1172,-3.1289,-3.1309,-3.1152,-3.0918,-3.0898,-3.0898,-3.0898,-3.1016,-3.1289,-3.156,-3.1188,-3.1673,-3.3099,-3.3421,-3.3434,-3.3379,-3.3418,-3.3476,-3.3633,-3.3906,-3.4297,-3.4824,-3.4699,-3.52,-3.5743,-3.6035,-3.6035,-3.6035,-3.6035,-3.6074,-3.625,-3.6621,-3.7051,-3.7441,-3.7891,-3.8242,-3.8496,-3.8574,-3.8574,-3.8574,-3.8574,-3.8574,-3.8574,-3.8574,-3.8574,-3.8574,-3.8574,-3.8574,-3.8574,-3.8574,-3.8574,-3.8574,-3.8574,-3.8574,-3.8574,-3.8574,-3.8574,-3.8574,-3.8574,-3.8574,-3.8574,-3.8574,-3.8574,-3.8574,-3.8574,-3.8574,-3.8574,-3.8574,-3.8574,-3.8574,-3.8574,-3.8574,-2.3327,-2.3691,-2.4868,-2.6486,-2.8608,-2.9995,-3.1707,-3.3292,-3.3418,-3.3418,-3.3418,-3.3292,-3.1522,-2.924,-2.9983,-2.8804,-2.6172,-2.5606,-2.4545,-2.2942,-2.2806,-2.2792,-2.2766,-2.2539,-2.2553,-2.2794,-2.5618,-2.6996,-2.7487,-3.0501,-3.2129,-3.2129,-3.2051,-3.1836,-3.1523,-3.1504,-3.1328,-3.1094,-3.1035,-3.1172,-3.1465,-3.1523,-3.1699,-3.2031,-3.207,-3.1719,-3.0996,-3.0976,-3.1016,-3.1016,-3.1328,-3.1719,-3.1988,-3.1569,-3.1675,-3.3074,-3.3368,-3.3398,-3.3418,-3.3457,-3.3672,-3.3945,-3.4101,-3.4531,-3.4984,-3.5026,-3.5104,-3.5782,-3.6035,-3.6035,-3.6035,-3.6074,-3.623,-3.6621,-3.6973,-3.7402,-3.7832,-3.8281,-3.8574,-3.8574,-3.8574,-3.8574,-3.8574,-3.8574,-3.8574,-3.8574,-3.8574,-3.8574,-3.8574,-3.8574,-3.8574,-3.8574,-3.8574,-3.8574,-3.8574,-3.8574,-3.8574,-3.8574,-3.8574,-3.8574,-3.8574,-3.8574,-3.8574,-3.8574,-3.8574,-3.8574,-3.8574,-3.8574,-3.8574,-3.8574,-3.8574,-3.8574,-3.8574,-3.8574,-3.8574,-2.4454,-2.549,-2.5721,-2.7605,-3.0232,-3.0768,-3.1835,-3.3292,-3.3418,-3.3418,-3.3165,-3.2091,-3.0316,-2.8707,-2.8799,-2.7768,-2.5636,-2.5517,-2.4588,-2.3133,-2.2859,-2.2859,-2.2846,-2.2766,-2.3392,-2.4684,-2.6719,-2.8348,-2.9418,-3.1569,-3.2461,-3.2226,-3.2187,-3.2109,-3.1973,-3.1973,-3.1875,-3.1797,-3.1777,-3.1855,-3.1953,-3.1973,-3.2051,-3.2148,-3.2168,-3.2031,-3.1777,-3.1777,-3.1758,-3.1758,-3.1894,-3.2007,-3.2235,-3.2498,-3.2874,-3.3262,-3.3359,-3.3418,-3.3457,-3.3691,-3.3906,-3.416,-3.4609,-3.5039,-3.5371,-3.549,-3.5685,-3.6016,-3.6035,-3.6035,-3.6074,-3.6465,-3.6681,-3.666,-3.7051,-3.748,-3.791,-3.832,-3.8535,-3.8574,-3.8574,-3.8574,-3.8574,-3.8574,-3.8574,-3.8574,-3.8574,-3.8574,-3.8574,-3.8574,-3.8574,-3.8574,-3.8574,-3.8574,-3.8574,-3.8574,-3.8574,-3.8574,-3.8574,-3.8574,-3.8574,-3.8574,-3.8574,-3.8574,-3.8574,-3.8574,-3.8574,-3.8574,-3.8574,-3.8574,-3.8574,-3.8574,-3.8574,-3.8574,-3.8574,-2.6135,-2.7741,-2.81,-2.9581,-3.1697,-3.1838,-3.2592,-3.3506,-3.3476,-3.335,-3.3046,-3.1616,-2.9025,-2.6887,-2.6846,-2.6172,-2.4588,-2.4588,-2.3924,-2.2996,-2.2859,-2.2859,-2.2859,-2.2859,-2.3802,-2.5517,-2.737,-2.8963,-3.0428,-3.2093,-3.2891,-3.2676,-3.2637,-3.2559,-3.2422,-3.2383,-3.2344,-3.2207,-3.2148,-3.2246,-3.2363,-3.2402,-3.248,-3.2617,-3.2637,-3.2637,-3.2637,-3.2637,-3.248,-3.2266,-3.2144,-3.2273,-3.2661,-3.3116,-3.3418,-3.3418,-3.3437,-3.3476,-3.3652,-3.3926,-3.4258,-3.459,-3.5078,-3.5469,-3.5625,-3.5898,-3.6016,-3.6035,-3.6035,-3.6035,-3.6094,-3.6583,-3.6877,-3.6914,-3.7305,-3.7695,-3.7961,-3.7632,-3.7932,-3.8302,-3.8564,-3.8564,-3.8633,-3.8574,-3.8574,-3.8574,-3.8574,-3.8574,-3.8574,-3.8574,-3.8574,-3.8574,-3.8574,-3.8574,-3.8574,-3.8574,-3.8574,-3.8574,-3.8574,-3.8574,-3.8574,-3.8574,-3.8574,-3.8574,-3.8574,-3.8574,-3.8574,-3.8574,-3.8574,-3.8574,-3.8574,-3.8574,-3.8574,-3.8574,-3.8574,-2.8256,-3.0182,-3.1484,-3.2016,-3.2514,-3.3421,-3.3875,-3.3984,-3.3339,-3.3212,-3.3001,-3.0897,-2.7572,-2.4152,-2.4862,-2.4588,-2.3133,-2.3133,-2.3133,-2.2996,-2.2859,-2.2859,-2.2859,-2.3133,-2.4331,-2.5905,-2.7635,-2.9327,-3.1231,-3.2562,-3.3418,-3.332,-3.3281,-3.3223,-3.2891,-3.2832,-3.2656,-3.2402,-3.2324,-3.25,-3.2812,-3.2832,-3.2988,-3.332,-3.332,-3.3301,-3.3281,-3.3281,-3.2988,-3.2402,-3.2332,-3.2661,-3.3175,-3.3418,-3.3418,-3.3418,-3.3437,-3.3672,-3.3965,-3.4219,-3.4531,-3.5176,-3.5391,-3.5586,-3.5918,-3.5996,-3.6035,-3.6035,-3.6035,-3.6035,-3.6094,-3.6642,-3.7073,-3.7363,-3.7754,-3.8125,-3.8331,-3.7032,-3.7179,-3.8175,-3.8592,-3.8561,-3.8613,-3.8574,-3.8574,-3.8574,-3.8574,-3.8574,-3.8574,-3.8574,-3.8574,-3.8574,-3.8574,-3.8574,-3.8574,-3.8574,-3.8574,-3.8574,-3.8574,-3.8574,-3.8574,-3.8574,-3.8574,-3.8574,-3.8574,-3.8574,-3.8574,-3.8574,-3.8574,-3.8574,-3.8574,-3.8574,-3.8574,-3.8574,-3.8574,-3.06,-3.2261,-3.2438,-3.3262,-3.4413,-3.4284,-3.4082,-3.3875,-3.2279,-3.2298,-3.2208,-2.8807,-2.562,-2.3185,-2.3419,-2.3256,-2.2996,-2.2859,-2.2859,-2.2859,-2.2859,-2.2859,-2.3256,-2.4317,-2.5786,-2.7503,-2.9213,-3.1047,-3.2619,-3.3146,-3.3418,-3.3418,-3.3418,-3.3379,-3.3262,-3.3223,-3.3203,-3.3105,-3.3086,-3.3105,-3.3203,-3.3242,-3.3301,-3.3379,-3.3418,-3.3418,-3.3418,-3.3418,-3.3359,-3.3144,-3.3039,-3.3136,-3.3398,-3.3418,-3.3437,-3.3496,-3.375,-3.4093,-3.418,-3.4668,-3.5137,-3.5371,-3.5664,-3.5898,-3.5996,-3.6035,-3.6035,-3.6035,-3.6035,-3.6035,-3.6133,-3.6699,-3.7402,-3.8105,-3.8301,-3.8418,-3.837,-3.8263,-3.8097,-3.8448,-3.8526,-3.797,-3.8613,-3.8574,-3.8574,-3.8574,-3.8574,-3.8574,-3.8574,-3.8574,-3.8574,-3.8574,-3.8574,-3.8574,-3.8574,-3.8574,-3.8574,-3.8574,-3.8574,-3.8574,-3.8574,-3.8574,-3.8574,-3.8574,-3.8574,-3.8574,-3.8574,-3.8574,-3.8574,-3.8574,-3.8574,-3.8574,-3.8574,-3.8574,-3.8574,-3.2595,-3.4296,-3.4053,-3.4659,-3.5547,-3.4726,-3.4336,-3.407,-3.2611,-3.1414,-3.0615,-2.8114,-2.5293,-2.3079,-2.2929,-2.2859,-2.2859,-2.2859,-2.2859,-2.2996,-2.3652,-2.406,-2.4317,-2.5248,-2.6839,-2.9196,-3.0254,-3.1707,-3.3019,-3.3418,-3.3418,-3.3418,-3.3418,-3.3418,-3.3398,-3.3418,-3.3418,-3.3398,-3.3418,-3.3418,-3.3418,-3.3418,-3.3418,-3.3418,-3.3418,-3.3418,-3.3418,-3.3418,-3.3418,-3.3398,-3.3418,-3.3418,-3.3418,-3.3418,-3.3516,-3.3858,-3.3945,-3.4031,-3.4629,-3.5117,-3.543,-3.5644,-3.5918,-3.5996,-3.6035,-3.6035,-3.6035,-3.6035,-3.6035,-3.5957,-3.621,-3.6872,-3.7793,-3.8379,-3.8574,-3.8574,-3.8574,-3.7435,-3.7601,-3.7524,-3.587,-3.5175,-3.7836,-3.8574,-3.8574,-3.8574,-3.8574,-3.8574,-3.8574,-3.8574,-3.8574,-3.8574,-3.8574,-3.8574,-3.8574,-3.8574,-3.8574,-3.8574,-3.8574,-3.8574,-3.8574,-3.8574,-3.8574,-3.8574,-3.8574,-3.8574,-3.8574,-3.8574,-3.8574,-3.8574,-3.8574,-3.8574,-3.8574,-3.8574,-3.8574,-3.4452,-3.6035,-3.6035,-3.6035,-3.5859,-3.5078,-3.4648,-3.4531,-3.3239,-3.1525,-2.9499,-2.8345,-2.5636,-2.2859,-2.2846,-2.2859,-2.2859,-2.2859,-2.3133,-2.3665,-2.4588,-2.5517,-2.6439,-2.6557,-2.8147,-3.0366,-3.09,-3.1963,-3.3146,-3.3418,-3.3418,-3.3418,-3.3418,-3.3418,-3.3418,-3.3418,-3.3418,-3.3418,-3.3418,-3.3418,-3.3418,-3.3418,-3.3418,-3.3418,-3.3418,-3.3418,-3.3418,-3.3418,-3.3418,-3.3418,-3.3418,-3.3418,-3.3418,-3.3437,-3.3858,-3.4379,-3.4219,-3.4289,-3.5176,-3.5237,-3.5451,-3.5898,-3.5996,-3.6035,-3.6035,-3.6035,-3.6035,-3.6035,-3.6055,-3.621,-3.6658,-3.7319,-3.8008,-3.8476,-3.8574,-3.8574,-3.8243,-3.646,-3.5833,-3.7893,-3.1876,-3.2402,-3.5705,-3.8574,-3.8574,-3.8574,-3.8574,-3.8574,-3.8574,-3.8574,-3.8574,-3.8574,-3.8574,-3.8574,-3.8574,-3.8574,-3.8574,-3.8574,-3.8574,-3.8574,-3.8574,-3.8574,-3.8574,-3.8574,-3.8574,-3.8574,-3.8574,-3.8574,-3.8574,-3.8574,-3.8574,-3.8574,-3.8574,-3.8574,-3.8574,-3.5587,-3.6035,-3.6035,-3.6035,-3.5879,-3.5098,-3.4707,-3.4478,-3.2319,-3.1912,-3.1235,-2.8112,-2.5128,-2.2859,-2.2996,-2.2859,-2.3133,-2.327,-2.3529,-2.4993,-2.5248,-2.7222,-2.8935,-2.9492,-2.9995,-3.1176,-3.2218,-3.3019,-3.3418,-3.3418,-3.3418,-3.3418,-3.3418,-3.3418,-3.3418,-3.3418,-3.3418,-3.3418,-3.3418,-3.3418,-3.3418,-3.3418,-3.3418,-3.3418,-3.3418,-3.3418,-3.3418,-3.3418,-3.3418,-3.3418,-3.3437,-3.333,-3.3496,-3.4083,-3.4547,-3.4674,-3.4805,-3.4984,-3.5391,-3.5684,-3.5898,-3.5996,-3.6035,-3.6035,-3.6035,-3.6035,-3.6035,-3.5957,-3.6053,-3.6557,-3.7681,-3.8177,-3.8367,-3.8496,-3.8574,-3.8574,-3.8574,-3.8078,-3.7932,-3.7855,-3.7099,-3.6586,-3.8224,-3.8574,-3.8574,-3.8574,-3.8574,-3.8574,-3.8574,-3.8574,-3.8574,-3.8574,-3.8574,-3.8574,-3.8574,-3.8574,-3.8574,-3.8574,-3.8574,-3.8574,-3.8574,-3.8574,-3.8574,-3.8574,-3.8574,-3.8574,-3.8574,-3.8574,-3.8574,-3.8574,-3.8574,-3.8574,-3.8574,-3.8574,-3.8574,-3.6035,-3.6035,-3.6035,-3.6035,-3.5918,-3.5312,-3.4902,-3.4517,-3.3291,-3.2842,-3.2598,-2.9658,-2.6326,-2.3119,-2.3788,-2.4196,-2.4317,-2.5128,-2.592,-2.6886,-2.7781,-2.9338,-3.0799,-3.1967,-3.2316,-3.2275,-3.2892,-3.3418,-3.3418,-3.3418,-3.3418,-3.3418,-3.3437,-3.3418,-3.3418,-3.3437,-3.3418,-3.3418,-3.3418,-3.3418,-3.3418,-3.3418,-3.3418,-3.3418,-3.3418,-3.3418,-3.3418,-3.3418,-3.3535,-3.3652,-3.3544,-3.3447,-3.3594,-3.4547,-3.5281,-3.5297,-3.5059,-3.5315,-3.5529,-3.5879,-3.6016,-3.6035,-3.6035,-3.6035,-3.6035,-3.6035,-3.5977,-3.6152,-3.6502,-3.7168,-3.8418,-3.857,-3.8563,-3.8661,-3.8574,-3.8574,-3.8574,-3.8574,-3.8574,-3.8574,-3.8389,-3.8205,-3.8574,-3.8574,-3.8574,-3.8574,-3.8574,-3.8574,-3.8574,-3.8574,-3.8574,-3.8574,-3.8574,-3.8574,-3.8574,-3.8574,-3.8574,-3.8574,-3.8574,-3.8574,-3.8574,-3.8574,-3.8574,-3.8574,-3.8574,-3.8574,-3.8574,-3.8574,-3.8574,-3.8574,-3.8574,-3.8574,-3.8574,-3.8574,-3.8574,-3.6035,-3.6035,-3.6035,-3.6035,-3.5957,-3.5566,-3.5176,-3.4844,-3.4726,-3.4085,-3.3331,-3.2093,-2.8677,-2.5726,-2.5412,-2.592,-2.6306,-2.7121,-2.7916,-2.8874,-3.0136,-3.1235,-3.2245,-3.3325,-3.3747,-3.3633,-3.3476,-3.3437,-3.3437,-3.3496,-3.3594,-3.3555,-3.3633,-3.375,-3.3672,-3.3633,-3.373,-3.375,-3.3769,-3.3564,-3.3544,-3.3544,-3.3711,-3.373,-3.373,-3.373,-3.375,-3.375,-3.3828,-3.4141,-3.3863,-3.3669,-3.3945,-3.5012,-3.601,-3.5964,-3.5315,-3.5471,-3.5724,-3.5996,-3.6035,-3.6035,-3.6035,-3.6035,-3.6035,-3.6055,-3.6035,-3.6405,-3.6794,-3.7783,-3.8537,-3.8668,-3.8681,-3.8574,-3.8574,-3.8574,-3.8574,-3.8574,-3.8574,-3.8574,-3.8574,-3.8574,-3.8574,-3.8574,-3.8574,-3.8574,-3.8574,-3.8574,-3.8574,-3.8574,-3.8574,-3.8574,-3.8574,-3.8574,-3.8574,-3.8574,-3.8574,-3.8574,-3.8574,-3.8574,-3.8574,-3.8574,-3.8574,-3.8574,-3.8574,-3.8574,-3.8574,-3.8574,-3.8574,-3.8574,-3.8574,-3.8574,-3.8574,-3.8574,-3.8574,-3.6035,-3.6035,-3.6035,-3.6035,-3.5957,-3.5586,-3.5371,-3.5215,-3.4902,-3.4599,-3.4203,-3.239,-3.1673,-3.0589,-2.8561,-2.78,-2.7949,-2.8642,-2.955,-3.0584,-3.1588,-3.2411,-3.3877,-3.4328,-3.4531,-3.4316,-3.3906,-3.3535,-3.3594,-3.375,-3.3945,-3.4043,-3.4258,-3.4394,-3.4375,-3.4473,-3.4355,-3.4316,-3.4336,-3.4018,-3.3811,-3.4167,-3.4375,-3.4355,-3.4336,-3.4355,-3.4414,-3.4453,-3.4531,-3.4609,-3.458,-3.4502,-3.4687,-3.5514,-3.5949,-3.5916,-3.582,-3.5743,-3.5996,-3.6035,-3.6035,-3.6035,-3.6035,-3.6035,-3.6035,-3.6074,-3.6132,-3.6638,-3.7422,-3.8497,-3.8583,-3.8535,-3.8574,-3.8574,-3.8574,-3.8574,-3.8574,-3.8574,-3.8574,-3.8574,-3.8574,-3.8574,-3.8574,-3.8574,-3.8574,-3.8574,-3.8574,-3.8574,-3.8574,-3.8574,-3.8574,-3.8574,-3.8574,-3.8574,-3.8574,-3.8574,-3.8574,-3.8574,-3.8574,-3.8574,-3.8574,-3.8574,-3.8574,-3.8574,-3.8574,-3.8574,-3.8574,-3.8574,-3.8574,-3.8574,-3.8574,-3.8574,-3.8574,-3.8574,-3.8574,-3.6035,-3.6035,-3.6035,-3.6035,-3.5996,-3.582,-3.5586,-3.541,-3.5391,-3.5198,-3.4795,-3.3823,-3.2799,-3.1853,-3.076,-2.9917,-3.0049,-3.0983,-3.2003,-3.2993,-3.3407,-3.388,-3.5039,-3.5059,-3.5059,-3.4883,-3.4414,-3.4082,-3.4101,-3.4297,-3.4394,-3.4434,-3.4629,-3.4687,-3.4687,-3.4648,-3.4726,-3.4726,-3.4707,-3.4537,-3.4197,-3.4897,-3.5087,-3.4858,-3.4707,-3.4687,-3.4687,-3.4687,-3.4824,-3.4887,-3.489,-3.5006,-3.5276,-3.572,-3.5995,-3.5996,-3.6035,-3.6035,-3.6035,-3.6035,-3.6035,-3.6035,-3.6035,-3.6035,-3.6035,-3.6094,-3.6346,-3.7261,-3.7832,-3.8543,-3.8555,-3.8574,-3.8574,-3.8574,-3.8574,-3.8574,-3.8574,-3.8574,-3.8574,-3.8574,-3.8574,-3.8574,-3.8574,-3.8574,-3.8574,-3.8574,-3.8574,-3.8574,-3.8574,-3.8574,-3.8574,-3.8574,-3.8574,-3.8574,-3.8574,-3.8574,-3.8574,-3.8574,-3.8574,-3.8574,-3.8574,-3.8574,-3.8574,-3.8574,-3.8574,-3.8574,-3.8574,-3.8574,-3.8574,-3.8574,-3.8574,-3.8574,-3.8574,-3.8574,-3.8574,-3.6035,-3.6035,-3.6035,-3.6035,-3.6035,-3.6035,-3.582,-3.5644,-3.5859,-3.5781,-3.5373,-3.5237,-3.3974,-3.2363,-3.1938,-3.2038,-3.2169,-3.3532,-3.4173,-3.4561,-3.5004,-3.5391,-3.5508,-3.5527,-3.5508,-3.5449,-3.5195,-3.4863,-3.4648,-3.4785,-3.4844,-3.4902,-3.4902,-3.4961,-3.5039,-3.5117,-3.4961,-3.4961,-3.4961,-3.4961,-3.5132,-3.5514,-3.5686,-3.498,-3.4961,-3.5,-3.5078,-3.5078,-3.5215,-3.541,-3.5239,-3.5297,-3.5802,-3.6016,-3.6035,-3.6035,-3.6035,-3.6035,-3.6035,-3.6035,-3.6035,-3.6035,-3.6035,-3.6035,-3.6133,-3.6367,-3.6953,-3.8203,-3.8574,-3.8555,-3.8574,-3.8574,-3.8574,-3.8574,-3.8574,-3.8574,-3.8574,-3.8574,-3.8574,-3.8574,-3.8574,-3.8574,-3.8574,-3.8574,-3.8574,-3.8574,-3.8574,-3.8574,-3.8574,-3.8574,-3.8574,-3.8574,-3.8574,-3.8574,-3.8574,-3.8574,-3.8574,-3.8574,-3.8574,-3.8574,-3.8574,-3.8574,-3.8574,-3.8574,-3.8574,-3.8574,-3.8574,-3.8574,-3.8574,-3.8574,-3.8574,-3.8574,-3.8574,-3.8574,-3.8574,-3.6035,-3.6035,-3.6035,-3.6035,-3.6035,-3.6035,-3.5996,-3.5957,-3.5996,-3.5996,-3.5859,-3.5566,-3.5084,-3.4432,-3.42,-3.4216,-3.4347,-3.4386,-3.4883,-3.5273,-3.543,-3.5625,-3.5879,-3.5937,-3.5879,-3.5859,-3.582,-3.5391,-3.5078,-3.5176,-3.5312,-3.5371,-3.5586,-3.582,-3.5684,-3.5664,-3.5859,-3.584,-3.582,-3.5801,-3.5801,-3.5955,-3.5955,-3.5801,-3.5781,-3.5742,-3.5703,-3.5703,-3.5801,-3.5859,-3.5918,-3.5957,-3.6035,-3.6035,-3.6035,-3.6035,-3.6035,-3.6035,-3.6035,-3.6035,-3.6035,-3.6035,-3.6035,-3.6035,-3.623,-3.6955,-3.7681,-3.8398,-3.8574,-3.8574,-3.8574,-3.8574,-3.8574,-3.8574,-3.8574,-3.8574,-3.8574,-3.8574,-3.8574,-3.8574,-3.8574,-3.8574,-3.8574,-3.8574,-3.8574,-3.8574,-3.8574,-3.8574,-3.8574,-3.8574,-3.8574,-3.8574,-3.8574,-3.8574,-3.8574,-3.8574,-3.8574,-3.8574,-3.8574,-3.8574,-3.8574,-3.8574,-3.8574,-3.8574,-3.8574,-3.8574,-3.8574,-3.8574,-3.8574,-3.8574,-3.8574,-3.8574,-3.8574,-3.8574,-3.8574,-3.6035,-3.6035,-3.6035,-3.6035,-3.6035,-3.6035,-3.6035,-3.6035,-3.6035,-3.6035,-3.5996,-3.584,-3.5625,-3.5351,-3.4902,-3.4844,-3.5039,-3.5078,-3.5332,-3.5644,-3.5742,-3.584,-3.5976,-3.6016,-3.6035,-3.6035,-3.6016,-3.5879,-3.5586,-3.5586,-3.5762,-3.5762,-3.5898,-3.5976,-3.6035,-3.6035,-3.6016,-3.5996,-3.6016,-3.6016,-3.6035,-3.6035,-3.6035,-3.6035,-3.6035,-3.6035,-3.6035,-3.6035,-3.6035,-3.6035,-3.6035,-3.6035,-3.6035,-3.6035,-3.6035,-3.6035,-3.6035,-3.6035,-3.6035,-3.6035,-3.6055,-3.6035,-3.6055,-3.5996,-3.6189,-3.7008,-3.7891,-3.8516,-3.8574,-3.8574,-3.8574,-3.8574,-3.8574,-3.8574,-3.8574,-3.8574,-3.8574,-3.8574,-3.8574,-3.8574,-3.8574,-3.8574,-3.8574,-3.8574,-3.8574,-3.8574,-3.8574,-3.8574,-3.8574,-3.8574,-3.8574,-3.8574,-3.8574,-3.8574,-3.8574,-3.8574,-3.8574,-3.8574,-3.8574,-3.8574,-3.8574,-3.8574,-3.8574,-3.8574,-3.8574,-3.8574,-3.8574,-3.8574,-3.8574,-3.8574,-3.8574,-3.8574,-3.8574,-3.8574,-3.8574,-3.6035,-3.6035,-3.6035,-3.6035,-3.6035,-3.6035,-3.6035,-3.6035,-3.6035,-3.6035,-3.6035,-3.5996,-3.582,-3.5566,-3.5273,-3.5293,-3.5527,-3.5547,-3.5723,-3.5937,-3.6035,-3.6016,-3.6035,-3.6035,-3.6035,-3.6035,-3.6035,-3.5976,-3.5996,-3.5996,-3.5976,-3.6035,-3.5996,-3.6035,-3.6035,-3.6035,-3.6035,-3.6035,-3.6035,-3.6035,-3.6035,-3.6035,-3.6035,-3.6035,-3.6035,-3.6035,-3.6035,-3.6035,-3.6035,-3.6035,-3.6035,-3.6035,-3.6035,-3.6035,-3.6035,-3.6055,-3.5957,-3.623,-3.6269,-3.6406,-3.6211,-3.6211,-3.6348,-3.6463,-3.6495,-3.7274,-3.7922,-3.8535,-3.8574,-3.8574,-3.8574,-3.8574,-3.8574,-3.8574,-3.8574,-3.8574,-3.8574,-3.8574,-3.8574,-3.8574,-3.8574,-3.8574,-3.8574,-3.8574,-3.8574,-3.8574,-3.8574,-3.8574,-3.8574,-3.8574,-3.8574,-3.8574,-3.8574,-3.8574,-3.8574,-3.8574,-3.8574,-3.8574,-3.8574,-3.8574,-3.8574,-3.8574,-3.8574,-3.8574,-3.8574,-3.8574,-3.8574,-3.8574,-3.8574,-3.8574,-3.8574,-3.8574,-3.8574,-3.8574,-3.8574,-3.6035,-3.6035,-3.6016,-3.6016,-3.6035,-3.6035,-3.6035,-3.6035,-3.6035,-3.6035,-3.6035,-3.6016,-3.5996,-3.5918,-3.584,-3.584,-3.5957,-3.5976,-3.5976,-3.5996,-3.6035,-3.6035,-3.6035,-3.6035,-3.6035,-3.6035,-3.6035,-3.6035,-3.6035,-3.6035,-3.6035,-3.6035,-3.6035,-3.6035,-3.6035,-3.6035,-3.6035,-3.6035,-3.6035,-3.6035,-3.6035,-3.6035,-3.6035,-3.6035,-3.6035,-3.6035,-3.6035,-3.6035,-3.6035,-3.6035,-3.6035,-3.6035,-3.6035,-3.6035,-3.6035,-3.5996,-3.6171,-3.6504,-3.6956,-3.6976,-3.6779,-3.6738,-3.6934,-3.7047,-3.708,-3.7391,-3.7961,-3.8516,-3.8574,-3.8574,-3.8574,-3.8574,-3.8574,-3.8574,-3.8574,-3.8574,-3.8574,-3.8574,-3.8574,-3.8574,-3.8574,-3.8574,-3.8574,-3.8574,-3.8574,-3.8574,-3.8574,-3.8574,-3.8574,-3.8574,-3.8574,-3.8574,-3.8574,-3.8574,-3.8574,-3.8574,-3.8574,-3.8574,-3.8574,-3.8574,-3.8574,-3.8574,-3.8574,-3.8574,-3.8574,-3.8574,-3.8574,-3.8574,-3.8574,-3.8574,-3.8574,-3.8574,-3.8574,-3.8574,-3.8574,-3.5391,-3.5625,-3.5625,-3.5781,-3.6035,-3.6035,-3.6035,-3.6035,-3.6035,-3.6035,-3.6035,-3.6035,-3.6035,-3.6035,-3.6035,-3.6035,-3.6035,-3.6035,-3.6035,-3.6035,-3.6035,-3.6035,-3.6035,-3.6035,-3.6035,-3.6035,-3.6035,-3.6035,-3.6035,-3.6035,-3.6035,-3.6035,-3.6035,-3.6035,-3.6035,-3.6035,-3.6035,-3.6035,-3.6035,-3.6035,-3.6035,-3.6035,-3.6035,-3.6035,-3.6035,-3.6035,-3.6035,-3.6035,-3.6035,-3.6035,-3.6035,-3.6035,-3.6035,-3.6035,-3.5977,-3.5995,-3.6228,-3.6975,-3.7608,-3.7588,-3.707,-3.7148,-3.7422,-3.7533,-3.7429,-3.7864,-3.8301,-3.8535,-3.8574,-3.8574,-3.8574,-3.8574,-3.8574,-3.8574,-3.8574,-3.8574,-3.8574,-3.8574,-3.8574,-3.8574,-3.8574,-3.8574,-3.8574,-3.8574,-3.8574,-3.8574,-3.8574,-3.8574,-3.8574,-3.8574,-3.8574,-3.8574,-3.8574,-3.8574,-3.8574,-3.8574,-3.8574,-3.8574,-3.8574,-3.8574,-3.8574,-3.8574,-3.8574,-3.8574,-3.8574,-3.8574,-3.8574,-3.8574,-3.8574,-3.8574,-3.8574,-3.8574,-3.8574,-3.8574,-3.8574,-3.4883,-3.5176,-3.5176,-3.5508,-3.5976,-3.5879,-3.584,-3.582,-3.582,-3.5918,-3.6016,-3.6035,-3.6035,-3.6035,-3.6035,-3.6035,-3.6035,-3.6035,-3.6035,-3.6035,-3.6035,-3.6035,-3.6035,-3.6035,-3.6035,-3.6035,-3.6035,-3.6035,-3.6035,-3.6035,-3.6035,-3.6035,-3.6035,-3.6035,-3.6035,-3.6035,-3.6035,-3.6035,-3.6035,-3.6035,-3.6035,-3.6035,-3.6035,-3.6035,-3.6035,-3.6035,-3.6035,-3.6035,-3.6035,-3.6035,-3.6035,-3.6035,-3.6035,-3.6074,-3.6054,-3.6169,-3.6619,-3.7409,-3.8085,-3.7881,-3.7539,-3.7734,-3.793,-3.7864,-3.7922,-3.832,-3.8516,-3.8555,-3.8574,-3.8574,-3.8574,-3.8574,-3.8574,-3.8574,-3.8574,-3.8574,-3.8574,-3.8574,-3.8574,-3.8574,-3.8574,-3.8574,-3.8574,-3.8574,-3.8574,-3.8574,-3.8574,-3.8574,-3.8574,-3.8574,-3.8574,-3.8574,-3.8574,-3.8574,-3.8574,-3.8574,-3.8574,-3.8574,-3.8574,-3.8574,-3.8574,-3.8574,-3.8574,-3.8574,-3.8574,-3.8574,-3.8574,-3.8574,-3.8574,-3.8574,-3.8574,-3.8574,-3.8574,-3.8574,-3.8574,-3.4687,-3.4707,-3.4707,-3.5215,-3.5859,-3.5566,-3.541,-3.5488,-3.5508,-3.5703,-3.6016,-3.6035,-3.6035,-3.6035,-3.6035,-3.6035,-3.6035,-3.6035,-3.6035,-3.6035,-3.6035,-3.6035,-3.6035,-3.6035,-3.6035,-3.6035,-3.6035,-3.6035,-3.6035,-3.6035,-3.6035,-3.6035,-3.6035,-3.6035,-3.6035,-3.6035,-3.6035,-3.6035,-3.6035,-3.6035,-3.6035,-3.6035,-3.6035,-3.6035,-3.6035,-3.6035,-3.6035,-3.6035,-3.6035,-3.6035,-3.6035,-3.6035,-3.6035,-3.6035,-3.6054,-3.6109,-3.6852,-3.7642,-3.8438,-3.791,-3.8047,-3.8281,-3.8379,-3.8398,-3.8476,-3.8574,-3.8574,-3.8574,-3.8574,-3.8574,-3.8574,-3.8574,-3.8574,-3.8574,-3.8574,-3.8574,-3.8574,-3.8574,-3.8574,-3.8574,-3.8574,-3.8574,-3.8574,-3.8574,-3.8574,-3.8574,-3.8574,-3.8574,-3.8574,-3.8574,-3.8574,-3.8574,-3.8574,-3.8574,-3.8574,-3.8574,-3.8574,-3.8574,-3.8574,-3.8574,-3.8574,-3.8574,-3.8574,-3.8574,-3.8574,-3.8574,-3.8574,-3.8574,-3.8574,-3.8574,-3.8574,-3.8574,-3.8574,-3.8574,-3.8574,-3.4023,-3.4277,-3.4277,-3.4609,-3.5078,-3.5,-3.5098,-3.541,-3.5664,-3.5879,-3.5996,-3.6035,-3.6035,-3.6035,-3.6035,-3.6035,-3.6035,-3.6035,-3.6035,-3.6035,-3.6035,-3.6035,-3.6035,-3.6035,-3.6035,-3.6035,-3.6035,-3.6035,-3.6035,-3.6035,-3.6035,-3.6035,-3.6035,-3.6035,-3.6035,-3.6035,-3.6035,-3.6035,-3.6035,-3.6035,-3.6035,-3.6035,-3.6035,-3.6035,-3.6035,-3.6035,-3.6035,-3.6035,-3.6035,-3.6035,-3.6035,-3.6035,-3.6035,-3.6035,-3.6014,-3.6162,-3.6945,-3.7838,-3.8328,-3.8359,-3.8398,-3.8535,-3.8574,-3.8574,-3.8574,-3.8574,-3.8574,-3.8574,-3.8574,-3.8574,-3.8574,-3.8574,-3.8574,-3.8574,-3.8574,-3.8574,-3.8574,-3.8574,-3.8574,-3.8574,-3.8574,-3.8574,-3.8574,-3.8574,-3.8574,-3.8574,-3.8574,-3.8574,-3.8574,-3.8574,-3.8574,-3.8574,-3.8574,-3.8574,-3.8574,-3.8574,-3.8574,-3.8574,-3.8574,-3.8574,-3.8574,-3.8574,-3.8574,-3.8574,-3.8574,-3.8574,-3.8574,-3.8574,-3.8574,-3.8574,-3.8574,-3.8574,-3.8574,-3.8574,-3.8574,-3.3574,-3.3828,-3.3848,-3.3984,-3.4258,-3.4414,-3.4746,-3.5176,-3.5605,-3.5879,-3.5996,-3.6035,-3.6035,-3.6035,-3.6035,-3.6035,-3.6035,-3.6035,-3.6035,-3.6035,-3.6035,-3.6035,-3.6035,-3.6035,-3.6035,-3.6035,-3.6035,-3.6035,-3.6035,-3.6035,-3.6035,-3.6035,-3.6035,-3.6035,-3.6035,-3.6035,-3.6035,-3.6035,-3.6035,-3.6035,-3.6035,-3.6035,-3.6035,-3.6035,-3.6035,-3.6035,-3.6035,-3.6035,-3.6035,-3.6035,-3.6035,-3.6035,-3.6035,-3.6054,-3.6031,-3.6335,-3.7294,-3.8151,-3.8418,-3.8555,-3.8535,-3.8574,-3.8574,-3.8574,-3.8574,-3.8574,-3.8574,-3.8574,-3.8574,-3.8574,-3.8574,-3.8574,-3.8574,-3.8574,-3.8574,-3.8574,-3.8574,-3.8574,-3.8574,-3.8574,-3.8574,-3.8574,-3.8574,-3.8574,-3.8574,-3.8574,-3.8574,-3.8574,-3.8574,-3.8574,-3.8574,-3.8574,-3.8574,-3.8574,-3.8574,-3.8574,-3.8574,-3.8574,-3.8574,-3.8574,-3.8574,-3.8574,-3.8574,-3.8574,-3.8574,-3.8574,-3.8574,-3.8574,-3.8574,-3.8574,-3.8574,-3.8574,-3.8574,-3.8574,-3.8574,-3.3418,-3.3418,-3.3418,-3.3437,-3.3516,-3.3945,-3.4355,-3.4766,-3.5234,-3.5684,-3.6016,-3.6035,-3.6035,-3.6035,-3.6035,-3.6035,-3.6035,-3.6035,-3.6035,-3.6035,-3.6035,-3.6035,-3.6035,-3.6035,-3.6035,-3.6035,-3.6035,-3.6035,-3.6035,-3.6035,-3.6035,-3.6035,-3.6035,-3.6035,-3.6035,-3.6035,-3.6035,-3.6035,-3.6035,-3.6035,-3.6035,-3.6035,-3.6035,-3.6035,-3.6035,-3.6035,-3.6035,-3.6035,-3.6035,-3.6035,-3.6035,-3.6035,-3.5977,-3.6053,-3.5946,-3.6624,-3.7903,-3.8379,-3.8555,-3.8574,-3.8574,-3.8574,-3.8574,-3.8574,-3.8574,-3.8574,-3.8574,-3.8574,-3.8574,-3.8574,-3.8574,-3.8574,-3.8574,-3.8574,-3.8574,-3.8574,-3.8574,-3.8574,-3.8574,-3.8574,-3.8574,-3.8574,-3.8574,-3.8574,-3.8574,-3.8574,-3.8574,-3.8574,-3.8574,-3.8574,-3.8574,-3.8574,-3.8574,-3.8574,-3.8574,-3.8574,-3.8574,-3.8574,-3.8574,-3.8574,-3.8574,-3.8574,-3.8574,-3.8574,-3.8574,-3.8574,-3.8574,-3.8574,-3.8574,-3.8574,-3.8574,-3.8574,-3.8574,-3.8574,-3.8574,-3.3418,-3.3418,-3.3418,-3.3418,-3.3476,-3.3887,-3.4316,-3.4766,-3.5488,-3.5937,-3.6035,-3.6035,-3.6035,-3.6035,-3.6035,-3.6035,-3.6035,-3.6035,-3.6035,-3.6035,-3.6035,-3.6035,-3.6035,-3.6035,-3.6035,-3.6035,-3.6035,-3.6035,-3.6035,-3.6035,-3.6035,-3.6035,-3.6035,-3.6035,-3.6035,-3.6035,-3.6016,-3.6152,-3.6287,-3.6287,-3.6152,-3.6287,-3.6287,-3.6287,-3.6016,-3.6016,-3.6035,-3.6035,-3.6035,-3.6035,-3.6035,-3.6035,-3.6055,-3.6073,-3.634,-3.7715,-3.8406,-3.8574,-3.8574,-3.8574,-3.8574,-3.8574,-3.8574,-3.8574,-3.8574,-3.8574,-3.8574,-3.8574,-3.8574,-3.8574,-3.8574,-3.8574,-3.8574,-3.8574,-3.8574,-3.8574,-3.8574,-3.8574,-3.8574,-3.8574,-3.8574,-3.8574,-3.8574,-3.8574,-3.8574,-3.8574,-3.8574,-3.8574,-3.8574,-3.8574,-3.8574,-3.8574,-3.8574,-3.8574,-3.8574,-3.8574,-3.8574,-3.8574,-3.8574,-3.8574,-3.8574,-3.8574,-3.8574,-3.8574,-3.8574,-3.8574,-3.8574,-3.8535,-3.8437,-3.8535,-3.8535,-3.8555,-3.8574,-3.8555,-3.8555,-3.3418,-3.3418,-3.3418,-3.3418,-3.3496,-3.3887,-3.4219,-3.459,-3.5391,-3.584,-3.6016,-3.6035,-3.6035,-3.6035,-3.6035,-3.6035,-3.6035,-3.6035,-3.6035,-3.6035,-3.6035,-3.6035,-3.6035,-3.6035,-3.6035,-3.6035,-3.6035,-3.6035,-3.6035,-3.6035,-3.6035,-3.6035,-3.6035,-3.6035,-3.6035,-3.6016,-3.6539,-3.6789,-3.7059,-3.7059,-3.6924,-3.6924,-3.7059,-3.6829,-3.6423,-3.6055,-3.6055,-3.6055,-3.6035,-3.6035,-3.6035,-3.6035,-3.6152,-3.6385,-3.7129,-3.8275,-3.8504,-3.8555,-3.8574,-3.8574,-3.8574,-3.8574,-3.872,-3.8574,-3.8574,-3.8574,-3.8574,-3.8574,-3.8574,-3.8574,-3.8574,-3.8574,-3.8574,-3.8574,-3.8574,-3.8574,-3.8574,-3.8574,-3.8574,-3.8574,-3.8574,-3.8574,-3.8574,-3.8574,-3.8574,-3.8574,-3.8574,-3.8574,-3.8574,-3.8574,-3.8574,-3.8574,-3.8574,-3.8574,-3.8574,-3.8574,-3.8574,-3.8574,-3.8574,-3.8574,-3.8574,-3.8574,-3.8574,-3.8574,-3.8574,-3.8555,-3.8516,-3.834,-3.8242,-3.8301,-3.8223,-3.8066,-3.8164,-3.8418,-3.8457,-3.3418,-3.3418,-3.3418,-3.3418,-3.3476,-3.3828,-3.4043,-3.416,-3.498,-3.5566,-3.5898,-3.6016,-3.6035,-3.6035,-3.6035,-3.6035,-3.6035,-3.6035,-3.6035,-3.6035,-3.6035,-3.6035,-3.6035,-3.6035,-3.6035,-3.6035,-3.6035,-3.6035,-3.6035,-3.6035,-3.6035,-3.6035,-3.6035,-3.6035,-3.6035,-3.6539,-3.7173,-3.7955,-3.8729,-3.9125,-3.8507,-3.8507,-3.8528,-3.7924,-3.7064,-3.6191,-3.6172,-3.6133,-3.6074,-3.6074,-3.6035,-3.6035,-3.6348,-3.6699,-3.7524,-3.8216,-3.8445,-3.8476,-3.8681,-3.8991,-3.8865,-3.8865,-3.8846,-3.9261,-3.955,-3.8813,-3.8629,-3.8622,-3.8622,-3.8641,-3.8641,-3.8555,-3.8574,-3.8574,-3.8574,-3.8574,-3.8574,-3.8574,-3.8574,-3.8574,-3.8574,-3.8574,-3.8574,-3.8574,-3.8574,-3.8574,-3.8574,-3.8574,-3.8574,-3.8574,-3.8574,-3.8574,-3.8574,-3.8574,-3.8574,-3.8574,-3.8574,-3.8574,-3.8574,-3.8574,-3.8574,-3.8574,-3.8574,-3.8574,-3.8574,-3.8496,-3.8418,-3.8223,-3.8008,-3.7851,-3.7734,-3.7622,-3.7779,-3.8132,-3.8426,-3.3418,-3.3418,-3.3418,-3.3418,-3.3418,-3.3535,-3.3769,-3.4101,-3.4629,-3.5289,-3.5894,-3.6034,-3.6035,-3.6035,-3.6035,-3.6035,-3.6035,-3.6035,-3.6035,-3.6035,-3.6035,-3.6035,-3.6035,-3.6035,-3.6035,-3.6035,-3.6035,-3.6035,-3.6035,-3.6035,-3.6035,-3.6035,-3.6035,-3.6016,-3.6403,-3.7059,-3.8221,-3.9235,-4.0773,-4.0537,-3.9146,-3.8821,-3.8605,-3.7799,-3.6838,-3.6875,-3.6816,-3.6621,-3.6562,-3.6504,-3.6172,-3.6035,-3.5993,-3.6344,-3.7187,-3.8177,-3.866,-3.8858,-3.9286,-3.9921,-4.0105,-4.0249,-4.0514,-4.1063,-4.0959,-3.9394,-3.8803,-3.8838,-3.8649,-3.8668,-3.8747,-3.8826,-3.8574,-3.8574,-3.8574,-3.8574,-3.8574,-3.8574,-3.8574,-3.8574,-3.8574,-3.8574,-3.8574,-3.8574,-3.8574,-3.8574,-3.8574,-3.8574,-3.8574,-3.8574,-3.8574,-3.8574,-3.8574,-3.8574,-3.8574,-3.8574,-3.8574,-3.8574,-3.8574,-3.8574,-3.8574,-3.8574,-3.8574,-3.8574,-3.8555,-3.8476,-3.832,-3.8066,-3.7832,-3.7559,-3.7246,-3.7171,-3.733,-3.7626,-3.8039,-3.3418,-3.3418,-3.3418,-3.3418,-3.3418,-3.3418,-3.3574,-3.3828,-3.4238,-3.4838,-3.55,-3.5857,-3.6035,-3.6035,-3.6035,-3.6035,-3.6035,-3.6035,-3.6035,-3.6035,-3.6035,-3.6035,-3.6035,-3.6035,-3.6035,-3.6035,-3.6035,-3.6035,-3.6035,-3.6035,-3.6035,-3.6035,-3.6016,-3.6403,-3.7059,-3.82,-3.9497,-4.0902,-4.2958,-4.2074,-3.9953,-3.9926,-4.0201,-3.9333,-3.8225,-3.7727,-3.7148,-3.6914,-3.6738,-3.6543,-3.625,-3.6094,-3.5976,-3.6031,-3.7431,-3.9146,-3.9976,-4.0103,-4.0792,-4.1503,-4.201,-4.2031,-4.2312,-4.301,-4.2107,-4.1038,-4.2128,-4.2,-3.9211,-3.8763,-3.9593,-3.9919,-3.903,-3.8574,-3.8574,-3.8574,-3.8574,-3.8574,-3.8574,-3.8574,-3.8574,-3.8574,-3.8574,-3.8574,-3.8574,-3.8574,-3.8574,-3.8574,-3.8574,-3.8991,-3.8846,-3.8991,-3.9136,-3.8865,-3.8574,-3.8574,-3.8574,-3.8574,-3.8574,-3.8574,-3.8574,-3.8574,-3.8574,-3.8574,-3.8535,-3.8312,-3.8136,-3.7767,-3.7378,-3.7047,-3.6875,-3.672,-3.6897,-3.7468,-3.8499,-3.3418,-3.3418,-3.3418,-3.3418,-3.3418,-3.3418,-3.3418,-3.3516,-3.3945,-3.4355,-3.4673,-3.5644,-3.5976,-3.6035,-3.6035,-3.6035,-3.6035,-3.6035,-3.6035,-3.6035,-3.6035,-3.6035,-3.6035,-3.6035,-3.6035,-3.6035,-3.6035,-3.6035,-3.6035,-3.6035,-3.6035,-3.6016,-3.6539,-3.7059,-3.8221,-3.9497,-4.0773,-4.258,-4.3755,-4.3153,-4.2326,-4.1611,-4.1397,-4.0651,-3.9281,-3.7583,-3.7344,-3.707,-3.6836,-3.6818,-3.6638,-3.6127,-3.5973,-3.611,-3.8159,-3.9939,-4.1748,-4.2196,-4.3034,-4.3733,-4.3867,-4.4116,-4.439,-4.4369,-4.3623,-4.4098,-4.5048,-4.4142,-4.1337,-3.9617,-4.0473,-4.0227,-3.9176,-3.8574,-3.8574,-3.8574,-3.8574,-3.8574,-3.8574,-3.8574,-3.8574,-3.8574,-3.8574,-3.8574,-3.8574,-3.8574,-3.8574,-3.8574,-3.872,-3.9405,-3.9818,-4.0105,-4.0514,-3.9962,-3.8991,-3.872,-3.872,-3.8574,-3.8574,-3.8574,-3.8574,-3.8574,-3.8574,-3.8574,-3.8535,-3.8253,-3.7903,-3.7494,-3.7105,-3.7035,-3.7211,-3.728,-3.6777,-3.7504,-3.9316,-3.3418,-3.3418,-3.3418,-3.3418,-3.3418,-3.3418,-3.3418,-3.3555,-3.4219,-3.4289,-3.42,-3.5373,-3.6035,-3.6035,-3.6035,-3.6035,-3.6035,-3.6035,-3.6035,-3.6035,-3.6035,-3.6035,-3.6035,-3.6035,-3.6035,-3.6035,-3.6035,-3.6035,-3.6152,-3.6152,-3.6016,-3.6152,-3.7709,-3.8486,-3.8993,-4.0537,-4.2706,-4.4127,-4.4693,-4.4519,-4.3589,-4.2361,-4.0451,-3.9384,-3.8379,-3.8184,-3.8144,-3.7559,-3.8227,-3.8194,-3.7545,-3.6668,-3.6738,-3.7225,-3.9235,-4.1353,-4.3173,-4.3779,-4.452,-4.5582,-4.5792,-4.5209,-4.5885,-4.7221,-4.6897,-4.7185,-4.7773,-4.7533,-4.4844,-4.1461,-4.1209,-3.9754,-3.8574,-3.8574,-3.8574,-3.8574,-3.8574,-3.8574,-3.8574,-3.8574,-3.8574,-3.8574,-3.8574,-3.8574,-3.8574,-3.8574,-3.8574,-3.8574,-3.872,-3.953,-4.0636,-4.1063,-4.1467,-4.0514,-3.9281,-3.9136,-3.8991,-3.8865,-3.8574,-3.8574,-3.8574,-3.8574,-3.8574,-3.8457,-3.8214,-3.7972,-3.7565,-3.7324,-3.7646,-3.7861,-3.814,-3.8096,-3.7473,-3.8145,-4.0316]},{"header":{"parameterUnit":"m.s-1","parameterCategory":1,"la1":31.0,"la2":29.5877,"lo1":-88.7671,"lo2":-86.6584,"dy":0.0162,"dx":0.0185,"nx":115,"ny":88,"refTime":"2024-07-10T06:00:00:Z","depth":0,"parameterNumber":3,"parameterNumberName":"V-component_of_WINDS"},"data":[0.0,0.0,0.0,0.0,0.0,0.0,0.0,0.0,0.0,0.0,0.0,0.0,0.0,0.0,0.0,0.0,0.0,0.0,0.0,0.0,0.0,0.0,0.0,0.0,0.0,0.0,0.0,0.0,0.0,0.0,0.0,0.0,0.0,0.0,0.0,0.0,0.0,0.0,0.0,0.0,0.0,0.0,0.0,0.0,0.0,0.0,0.0,0.0,0.0,0.0,0.0,0.0,0.0,0.0,0.0,0.0,0.0,0.0,0.0,0.0,0.0,0.0,0.0,0.0,0.0,0.0,0.0,0.0,0.0,0.0,0.0,0.0,0.0,0.0,0.0,0.0,0.0,0.0,0.0,0.0,0.0,0.0,0.0,0.0,0.0,0.0,0.0,0.0,0.0,0.0,0.0,0.0,0.0,0.0,0.0,0.0,0.0,0.0,0.0,0.0,0.0,0.0,0.0,0.0,0.0,0.0,0.0,0.0,0.0,0.0,0.0,0.0,0.0,0.0,0.0,0.0,0.0,0.0,0.0,0.0,0.0,0.0,0.0,0.0,0.0,0.0,0.0,0.0,0.0,0.0,0.0,0.0,0.0,0.0,0.0,0.0,0.0,0.0,0.0,0.0,0.0,0.0,0.0,0.0,0.0,0.0,0.0,0.0,0.0,0.0,0.0,0.0,0.0,0.0,0.0,0.0,0.0,0.0,0.0,0.0,0.0,0.0,0.0,0.0,0.0,0.0,0.0,0.0,0.0,0.0,0.0,0.0,0.0,0.0,0.0,0.0,0.0,0.0,0.0,0.0,0.0,0.0,0.0,0.0,0.0,0.0,0.0,0.0,0.0,0.0,0.0,0.0,0.0,0.0,0.0,0.0,0.0,0.0,0.0,0.0,0.0,0.0,0.0,0.0,0.0,0.0,0.0,0.0,0.0,0.0,0.0,0.0,0.0,0.0,0.0,0.0,0.0,0.0,0.0,0.0,0.0,0.0,0.0,0.0,0.0,0.0,0.0,0.0,0.0,0.0,0.0,0.0,0.0,0.0,0.0,0.0,0.0,0.0,0.0,0.0,0.0,0.0,0.0,0.0,0.0,0.0,0.0,0.0,0.0,0.0,0.0,0.0,0.0,0.0,0.0,0.0,0.0,0.0,0.0,0.0,0.0,0.0,0.0,0.0,0.0,0.0,0.0,0.0,0.0,0.0,0.0,0.0,0.0,0.0,0.0,0.0,0.0,0.0,0.0,0.0,0.0,0.0,0.0,0.0,0.0,0.0,0.0,0.0,0.0,0.0,0.0,0.0,0.0,0.0,0.0,0.0,0.0,0.0,0.0,0.0,0.0,0.0,0.0,0.0,0.0,0.0,0.0,0.0,0.0,0.0,0.0,0.0,0.0,0.0,0.0,0.0,0.0,0.0,0.0,0.0,0.0,0.0,0.0,0.0,0.0,0.0,0.0,0.0,0.0,0.0,0.0,0.0,0.0,0.0,0.0,0.0,0.0,0.0,0.0,0.0,0.0,0.0,0.0,0.0,0.0,0.0,0.0,0.0,0.0,0.0,0.0,0.0,0.0,0.0,0.0,0.0,0.0,0.0,0.0,0.0,0.0,0.0,0.0,0.0,0.0,0.0,0.0,0.0,0.0,0.0,0.0,0.0,0.0,0.0,0.0,0.0,0.0,0.0,0.0,0.0,0.0,0.0,0.0,0.0,0.0,0.0,0.0,0.0,0.0,0.0,0.0,0.0,0.0,0.0,0.0,0.0,0.0,0.0,0.0,0.0,0.0,0.0,0.0,0.0,0.0,0.0,0.0,0.0,0.0,0.0,0.0,0.0,0.0,0.0,0.0,0.0,0.0,0.0,0.0,0.0,0.0,0.0,0.0,0.0,0.0,0.0,0.0,0.0,0.0,0.0,0.0,0.0,0.0,0.0,0.0,0.0,0.0,0.0,0.0,0.0,0.0,0.0,0.0,0.0,0.0,0.0,0.0,0.0,0.0,0.0,0.0,0.0,0.0,0.0,0.0,0.0,0.0,0.0,0.0,0.0,0.0,0.0,0.0,0.0,0.0,0.0,0.0,0.0,0.0,0.0,0.0,0.0,0.0,0.0,0.0,0.0,0.0,0.0,0.0,0.0,0.0,0.0,0.0,0.0,0.0,0.0,0.0,0.0,0.0,0.0,0.0,0.0,0.0,0.0,0.0,0.0,0.0,0.0,0.0,0.0,0.0,0.0,0.0,0.0,0.0,0.0,0.0,0.0,0.0,0.0,0.0,0.0,0.0,0.0,0.0,0.0,0.0,0.0,0.0,0.0,0.0,0.0,0.0,0.0,0.0,0.0,0.0,0.0,0.0,0.0,0.0,0.0,0.0,0.0,0.0,0.0,0.0,0.0,0.0,0.0,0.0,0.0,0.0,0.0,0.0,0.0,0.0,0.0,0.0,0.0,0.0,0.0,0.0,0.0,0.0,0.0,0.0,0.0,0.0,0.0,0.0,0.0,0.0,0.0,0.0,0.0,0.0,0.0,0.0,0.0,0.0,0.0,0.0,0.0,0.0,0.0,0.0,0.0,0.0,0.0,0.0,0.0,0.0,0.0,0.0,0.0,0.0,0.0,0.0,0.0,0.0,0.0,0.0,0.0,0.0,0.0,0.0,0.0,0.0,0.0,0.0,0.0,0.0,0.0,0.0,0.0,0.0,0.0,0.0,0.0,0.0,0.0,0.0,0.0,0.0,0.0,0.0,0.0,0.0,0.0,0.0,0.0,0.0,0.0,0.0,0.0,0.0,0.0,0.0,0.0,0.0,0.0,0.0,0.0,0.0,0.0,0.0,0.0,0.0,0.0,0.0,0.0,0.0,0.0,0.0,0.0,0.0,0.0,0.0,0.0,0.0,0.0,0.0,0.0,0.0,0.0,0.0,0.0,0.0,0.0,0.0,0.0,0.0,0.0,0.0,0.0,0.0,0.0,0.0,0.0,0.0,0.0,0.0,0.0,0.0,0.0,0.0,0.0,0.0,0.0,0.0,0.0,0.0,0.0,0.0,0.0,0.0,0.0,0.0,0.0,0.0,0.0,0.0,0.0,0.0,0.0,0.0,0.0,0.0,0.0,0.0,0.0,0.0,0.0,0.0,0.0,0.0,0.0,0.0,0.0,0.0,0.0,0.0,0.0,0.0,0.0,0.0,0.0,0.0,0.0,0.0,0.0,0.0,0.0,0.0,0.0,0.0,0.0,0.0,0.0,0.0,0.0,0.0,0.0,0.0,0.0,0.0,0.0,0.0,0.0,0.0,0.0,0.0,0.0,0.0,0.0,0.0,0.0,0.0,0.0,0.0,0.0,0.0,0.0,0.0,0.0,0.0,0.0,0.0,0.0,0.0,0.0,0.0,0.0,0.0,0.0,0.0,0.0,0.0,0.0,0.0,0.0,0.0,0.0,0.0,0.0,0.0,0.0,0.0,0.0,0.0,0.0,0.0,0.0,0.0,0.0,0.0,0.0,0.0,0.0,0.0,0.0,0.0,0.0,0.0,0.0,0.0,0.0,0.0,0.0,0.0,0.0,0.0,0.0,0.0,0.0,0.0,0.0,0.0,0.0,0.0,0.0,0.0,0.0,0.0,0.0,0.0,0.0,0.0,0.0,0.0,0.0,0.0,0.0,0.0,0.0,0.0,0.0,0.0,0.0,0.0,0.0,0.0,0.0,0.0,0.0,0.0,0.0,0.0,0.0,0.0,0.0,0.0,0.0,0.0,0.0,0.0,0.0,0.0,0.0,0.0,0.0,0.0,0.0,0.0,0.0,0.0,0.0,0.0,0.0,0.0,0.0,0.0,0.0,0.0,0.0,0.0,0.0,0.0,0.0,0.0,0.0,0.0,0.0,0.0,0.0,0.0,0.0,0.0,0.0,0.0,0.0,0.0,0.0,0.0,0.0,0.0,0.0,0.0,0.0,0.0,0.0,0.0,0.0,0.0,0.0,0.0,0.0,0.0,0.0,0.0,0.0,0.0,0.0,0.0,0.0,0.0,0.0,0.0,0.0,0.0,0.0,0.0,0.0,0.0,0.0,0.0,0.0,0.0,0.0,0.0,0.0,0.0,0.0,0.0,0.0,0.0,0.0,0.0,0.0,0.0,0.0,0.0,0.0,0.0,0.0,0.0,0.0,0.0,0.0,0.0,0.0,0.0,0.0,0.0,0.0,0.0,0.0,0.0,0.0,0.0,0.0,0.0,0.0,0.0,0.0,0.0,0.0,0.0,0.0,0.0,0.0,0.0,0.0,0.0,0.0,-1.4162,0.0,0.0,0.0,0.0,0.0,0.0,0.0,0.0,0.0,0.0,0.0,0.0,0.0,0.0,0.0,0.0,0.0,0.0,0.0,0.0,0.0,0.0,0.0,0.0,0.0,0.0,0.0,0.0,0.0,0.0,0.0,0.0,0.0,0.0,0.0,0.0,0.0,0.0,0.0,0.0,0.0,0.0,0.0,0.0,0.0,0.0,0.0,0.0,0.0,0.0,0.0,0.0,0.0,0.0,0.0,0.0,0.0,0.0,0.0,0.0,0.0,0.0,0.0,0.0,0.0,0.0,0.0,0.0,0.0,0.0,0.0,0.0,0.0,0.0,0.0,0.0,0.0,0.0,0.0,0.0,0.0,0.0,0.0,0.0,0.0,0.0,0.0,0.0,0.0,0.0,0.0,0.0,0.0,0.0,0.0,0.0,0.0,0.0,0.0,0.0,0.0,0.0,0.0,0.0,0.0,0.0,0.0,0.0,0.0,0.0,-1.543,-1.543,-1.5401,-1.5221,-1.482,0.0,0.0,0.0,0.0,0.0,0.0,0.0,0.0,0.0,0.0,0.0,0.0,0.0,0.0,0.0,0.0,0.0,0.0,0.0,0.0,0.0,0.0,0.0,0.0,0.0,0.0,0.0,0.0,0.0,0.0,0.0,0.0,0.0,0.0,0.0,0.0,0.0,0.0,0.0,0.0,0.0,0.0,0.0,0.0,0.0,0.0,0.0,0.0,0.0,0.0,0.0,0.0,0.0,0.0,0.0,0.0,0.0,0.0,0.0,0.0,0.0,0.0,0.0,0.0,0.0,0.0,0.0,0.0,0.0,0.0,0.0,0.0,0.0,0.0,0.0,0.0,0.0,0.0,0.0,0.0,0.0,0.0,0.0,0.0,0.0,0.0,0.0,0.0,0.0,0.0,0.0,0.0,0.0,0.0,0.0,0.0,0.0,0.0,0.0,0.0,0.0,0.0,0.0,0.0,0.0,0.0,0.0,0.0,0.0,0.0,0.0,0.0,-1.6266,-1.6265,-1.6258,0.0,0.0,0.0,0.0,0.0,0.0,0.0,0.0,0.0,0.0,0.0,0.0,0.0,0.0,0.0,0.0,0.0,0.0,0.0,0.0,0.0,0.0,0.0,0.0,0.0,0.0,0.0,0.0,0.0,0.0,0.0,0.0,0.0,0.0,0.0,0.0,0.0,0.0,0.0,0.0,0.0,0.0,0.0,0.0,0.0,0.0,0.0,0.0,0.0,0.0,0.0,0.0,0.0,0.0,0.0,0.0,0.0,0.0,0.0,0.0,0.0,0.0,0.0,0.0,0.0,0.0,0.0,0.0,0.0,0.0,0.0,0.0,0.0,0.0,0.0,0.0,0.0,0.0,0.0,0.0,0.0,0.0,0.0,0.0,0.0,0.0,0.0,0.0,0.0,0.0,0.0,0.0,0.0,0.0,0.0,0.0,0.0,0.0,0.0,0.0,0.0,0.0,0.0,0.0,0.0,0.0,0.0,0.0,0.0,0.0,-1.6523,-1.8867,-1.8927,0.0,-1.8841,0.0,0.0,0.0,0.0,0.0,0.0,0.0,0.0,0.0,0.0,0.0,0.0,0.0,0.0,0.0,0.0,0.0,0.0,0.0,0.0,0.0,0.0,0.0,0.0,0.0,0.0,0.0,0.0,0.0,0.0,0.0,0.0,0.0,0.0,0.0,0.0,0.0,0.0,0.0,0.0,0.0,0.0,0.0,0.0,0.0,0.0,0.0,0.0,0.0,0.0,0.0,0.0,0.0,0.0,0.0,0.0,0.0,0.0,0.0,0.0,0.0,0.0,0.0,0.0,0.0,0.0,0.0,0.0,0.0,0.0,0.0,0.0,0.0,0.0,0.0,0.0,0.0,0.0,0.0,0.0,0.0,0.0,0.0,0.0,0.0,0.0,0.0,0.0,0.0,0.0,0.0,0.0,0.0,0.0,0.0,0.0,0.0,0.0,0.0,0.0,0.0,0.0,0.0,0.0,0.0,0.0,0.0,0.0,0.0,0.0,0.0,-1.9258,-1.9239,-1.9239,0.0,0.0,0.0,0.0,0.0,0.0,0.0,0.0,0.0,0.0,0.0,0.0,0.0,0.0,0.0,0.0,0.0,0.0,0.0,0.0,0.0,0.0,0.0,0.0,0.0,0.0,0.0,0.0,0.0,0.0,0.0,0.0,0.0,0.0,0.0,0.0,0.0,0.0,0.0,0.0,0.0,0.0,0.0,0.0,0.0,0.0,0.0,0.0,0.0,0.0,0.0,0.0,0.0,0.0,0.0,0.0,0.0,0.0,0.0,0.0,0.0,0.0,0.0,0.0,0.0,0.0,0.0,0.0,0.0,0.0,0.0,0.0,0.0,0.0,0.0,0.0,0.0,0.0,0.0,0.0,0.0,0.0,0.0,0.0,0.0,0.0,0.0,0.0,0.0,0.0,0.0,0.0,0.0,0.0,0.0,0.0,0.0,0.0,0.0,0.0,0.0,0.0,0.0,0.0,0.0,0.0,0.0,0.0,0.0,0.0,-1.8613,0.0,-2.0264,-2.0238,-1.9794,-1.8866,0.0,0.0,0.0,0.0,0.0,0.0,0.0,0.0,0.0,0.0,0.0,0.0,0.0,0.0,0.0,0.0,0.0,0.0,0.0,0.0,0.0,0.0,0.0,0.0,0.0,0.0,0.0,0.0,0.0,0.0,0.0,0.0,0.0,0.0,0.0,0.0,0.0,0.0,0.0,0.0,0.0,0.0,0.0,0.0,0.0,0.0,0.0,0.0,0.0,0.0,0.0,0.0,0.0,0.0,0.0,0.0,0.0,0.0,0.0,0.0,0.0,0.0,0.0,0.0,0.0,0.0,0.0,0.0,0.0,0.0,0.0,0.0,0.0,0.0,0.0,0.0,0.0,0.0,0.0,0.0,0.0,0.0,0.0,0.0,0.0,0.0,0.0,0.0,0.0,0.0,0.0,0.0,0.0,0.0,0.0,0.0,0.0,0.0,0.0,0.0,0.0,0.0,0.0,0.0,0.0,0.0,0.0,0.0,0.0,-2.0361,-2.0382,-2.2731,-2.2751,-2.1258,0.0,0.0,0.0,0.0,0.0,0.0,0.0,0.0,0.0,0.0,0.0,0.0,0.0,0.0,0.0,0.0,0.0,0.0,0.0,0.0,0.0,0.0,0.0,0.0,0.0,0.0,0.0,0.0,0.0,0.0,0.0,0.0,0.0,0.0,0.0,0.0,0.0,0.0,0.0,0.0,0.0,0.0,0.0,0.0,0.0,0.0,0.0,0.0,0.0,0.0,0.0,0.0,0.0,0.0,0.0,0.0,0.0,0.0,0.0,0.0,0.0,0.0,0.0,0.0,0.0,0.0,0.0,0.0,0.0,0.0,0.0,0.0,0.0,0.0,0.0,0.0,0.0,0.0,0.0,0.0,0.0,0.0,0.0,0.0,0.0,0.0,0.0,0.0,0.0,0.0,0.0,0.0,0.0,0.0,0.0,0.0,0.0,0.0,0.0,0.0,0.0,0.0,0.0,0.0,0.0,0.0,0.0,0.0,0.0,-1.8059,-1.883,-2.1193,-2.5072,-2.2216,-2.0669,0.0,0.0,0.0,0.0,0.0,0.0,0.0,0.0,0.0,0.0,0.0,0.0,0.0,0.0,0.0,0.0,0.0,0.0,0.0,0.0,0.0,0.0,0.0,0.0,0.0,0.0,0.0,0.0,0.0,0.0,0.0,0.0,0.0,0.0,0.0,0.0,0.0,0.0,0.0,0.0,0.0,0.0,0.0,0.0,0.0,0.0,0.0,0.0,0.0,0.0,0.0,0.0,0.0,0.0,0.0,0.0,0.0,0.0,0.0,0.0,0.0,0.0,0.0,0.0,0.0,0.0,0.0,0.0,0.0,0.0,0.0,0.0,0.0,0.0,0.0,0.0,0.0,0.0,0.0,0.0,0.0,0.0,0.0,0.0,0.0,0.0,0.0,0.0,0.0,0.0,0.0,0.0,0.0,0.0,0.0,0.0,0.0,0.0,0.0,0.0,0.0,0.0,0.0,0.0,0.0,0.0,0.0,0.0,0.0,-1.7818,0.0,-2.2889,0.0,-2.2153,-2.0248,0.0,0.0,0.0,0.0,0.0,0.0,0.0,0.0,0.0,0.0,0.0,0.0,0.0,0.0,0.0,0.0,0.0,0.0,0.0,0.0,0.0,0.0,0.0,0.0,0.0,0.0,0.0,0.0,0.0,0.0,0.0,0.0,0.0,0.0,0.0,0.0,0.0,0.0,0.0,0.0,0.0,0.0,0.0,0.0,0.0,0.0,0.0,0.0,0.0,0.0,0.0,0.0,0.0,0.0,0.0,0.0,0.0,0.0,0.0,0.0,0.0,0.0,0.0,0.0,0.0,0.0,0.0,0.0,0.0,0.0,0.0,0.0,0.0,0.0,0.0,0.0,0.0,0.0,0.0,0.0,0.0,0.0,0.0,0.0,0.0,0.0,0.0,0.0,0.0,0.0,0.0,0.0,0.0,0.0,0.0,0.0,0.0,0.0,0.0,0.0,0.0,0.0,0.0,0.0,0.0,0.0,0.0,0.0,-1.7895,-2.259,-2.5101,-2.5255,-2.3013,-2.2844,-2.0109,0.0,0.0,0.0,0.0,0.0,0.0,0.0,0.0,0.0,0.0,0.0,0.0,0.0,0.0,0.0,0.0,0.0,0.0,0.0,0.0,0.0,0.0,0.0,0.0,0.0,0.0,0.0,0.0,0.0,0.0,0.0,0.0,0.0,0.0,0.0,0.0,0.0,0.0,0.0,0.0,0.0,0.0,0.0,0.0,0.0,0.0,0.0,0.0,0.0,0.0,0.0,0.0,0.0,0.0,0.0,0.0,0.0,0.0,0.0,0.0,0.0,0.0,0.0,0.0,0.0,0.0,0.0,0.0,0.0,0.0,0.0,0.0,0.0,0.0,0.0,0.0,0.0,0.0,0.0,0.0,0.0,0.0,0.0,0.0,0.0,0.0,0.0,0.0,0.0,0.0,0.0,0.0,0.0,0.0,0.0,0.0,0.0,0.0,0.0,0.0,0.0,0.0,0.0,0.0,0.0,0.0,0.0,0.0,0.0,-2.1116,-2.2996,-2.5014,-2.69,-2.3217,-2.1334,0.0,0.0,0.0,0.0,0.0,0.0,0.0,0.0,0.0,0.0,0.0,0.0,0.0,0.0,0.0,0.0,0.0,0.0,0.0,0.0,0.0,0.0,0.0,0.0,0.0,0.0,0.0,0.0,0.0,0.0,0.0,0.0,0.0,0.0,0.0,0.0,0.0,0.0,0.0,0.0,0.0,0.0,0.0,0.0,0.0,0.0,0.0,0.0,0.0,0.0,0.0,0.0,0.0,0.0,0.0,0.0,0.0,0.0,0.0,0.0,0.0,0.0,0.0,0.0,0.0,0.0,0.0,0.0,0.0,0.0,0.0,0.0,0.0,0.0,0.0,0.0,0.0,0.0,0.0,0.0,0.0,0.0,0.0,0.0,0.0,0.0,0.0,0.0,0.0,0.0,0.0,0.0,0.0,0.0,0.0,0.0,0.0,0.0,0.0,0.0,0.0,0.0,0.0,0.0,0.0,0.0,0.0,0.0,0.0,-2.4216,-2.6023,-2.7852,-2.9544,-2.539,-2.3206,-2.3321,0.0,0.0,0.0,0.0,0.0,0.0,0.0,0.0,0.0,0.0,0.0,0.0,0.0,0.0,0.0,0.0,0.0,0.0,0.0,0.0,0.0,0.0,0.0,0.0,0.0,0.0,0.0,0.0,0.0,0.0,0.0,0.0,0.0,0.0,0.0,0.0,0.0,0.0,0.0,0.0,0.0,0.0,0.0,0.0,0.0,0.0,0.0,0.0,0.0,0.0,0.0,0.0,0.0,0.0,0.0,0.0,0.0,0.0,0.0,0.0,0.0,0.0,0.0,0.0,0.0,0.0,0.0,0.0,0.0,0.0,0.0,0.0,0.0,0.0,0.0,0.0,0.0,0.0,0.0,0.0,0.0,0.0,0.0,0.0,0.0,0.0,0.0,0.0,0.0,0.0,0.0,0.0,0.0,0.0,0.0,0.0,0.0,0.0,0.0,0.0,0.0,0.0,0.0,0.0,0.0,0.0,0.0,0.0,-3.0676,-3.3263,-3.343,-3.1032,-2.9044,-2.5755,0.0,0.0,0.0,0.0,0.0,0.0,0.0,0.0,0.0,0.0,0.0,0.0,0.0,0.0,0.0,0.0,0.0,0.0,0.0,0.0,0.0,0.0,0.0,0.0,0.0,0.0,0.0,0.0,0.0,0.0,0.0,0.0,0.0,0.0,0.0,0.0,0.0,0.0,0.0,0.0,0.0,0.0,0.0,0.0,0.0,0.0,0.0,0.0,0.0,0.0,0.0,0.0,0.0,0.0,0.0,0.0,0.0,0.0,0.0,0.0,0.0,0.0,0.0,0.0,0.0,0.0,0.0,0.0,0.0,0.0,0.0,0.0,0.0,0.0,0.0,0.0,0.0,0.0,0.0,0.0,0.0,0.0,0.0,0.0,0.0,0.0,0.0,0.0,0.0,0.0,0.0,0.0,0.0,0.0,0.0,0.0,0.0,0.0,0.0,0.0,0.0,0.0,0.0,0.0,0.0,0.0,0.0,0.0,0.0,-3.3273,-3.7555,-3.8892,-3.693,-3.2275,-2.8813,0.0,0.0,0.0,0.0,0.0,0.0,0.0,0.0,0.0,0.0,0.0,0.0,0.0,0.0,0.0,0.0,0.0,0.0,0.0,0.0,0.0,0.0,0.0,0.0,0.0,0.0,0.0,0.0,0.0,0.0,0.0,0.0,0.0,0.0,0.0,0.0,0.0,0.0,0.0,0.0,0.0,0.0,0.0,0.0,0.0,0.0,0.0,0.0,0.0,0.0,0.0,0.0,0.0,0.0,0.0,0.0,0.0,0.0,0.0,0.0,0.0,0.0,0.0,0.0,0.0,0.0,0.0,0.0,0.0,0.0,0.0,0.0,0.0,0.0,0.0,0.0,0.0,0.0,0.0,0.0,0.0,0.0,0.0,0.0,0.0,0.0,0.0,0.0,0.0,0.0,0.0,0.0,0.0,0.0,0.0,0.0,0.0,0.0,0.0,0.0,0.0,0.0,0.0,0.0,0.0,0.0,0.0,0.0,-3.1995,-3.5867,-4.0822,-4.2777,-4.1431,-3.6315,-3.216,0.0,0.0,0.0,0.0,0.0,0.0,0.0,0.0,0.0,0.0,0.0,0.0,0.0,0.0,0.0,0.0,0.0,0.0,0.0,0.0,0.0,0.0,0.0,0.0,0.0,0.0,0.0,0.0,0.0,0.0,0.0,0.0,0.0,0.0,0.0,0.0,0.0,0.0,0.0,0.0,0.0,0.0,0.0,0.0,0.0,0.0,0.0,0.0,0.0,0.0,0.0,0.0,0.0,0.0,0.0,0.0,0.0,0.0,0.0,0.0,0.0,0.0,0.0,0.0,0.0,0.0,0.0,0.0,0.0,0.0,0.0,0.0,0.0,0.0,0.0,0.0,0.0,0.0,0.0,0.0,0.0,0.0,0.0,0.0,0.0,0.0,0.0,0.0,0.0,0.0,0.0,0.0,0.0,0.0,0.0,0.0,0.0,0.0,0.0,0.0,0.0,0.0,0.0,0.0,0.0,0.0,0.0,0.0,-3.499,-3.8306,-4.309,-4.5201,-4.4355,-4.0239,-3.5353,0.0,0.0,0.0,0.0,0.0,0.0,0.0,0.0,0.0,0.0,0.0,0.0,0.0,0.0,0.0,0.0,0.0,0.0,0.0,0.0,0.0,0.0,0.0,0.0,0.0,0.0,0.0,0.0,0.0,0.0,0.0,0.0,0.0,0.0,0.0,0.0,0.0,0.0,0.0,0.0,0.0,0.0,0.0,0.0,0.0,0.0,0.0,0.0,0.0,0.0,0.0,0.0,0.0,0.0,0.0,0.0,0.0,0.0,0.0,0.0,0.0,0.0,0.0,0.0,0.0,0.0,0.0,0.0,0.0,0.0,0.0,0.0,0.0,0.0,0.0,0.0,0.0,0.0,0.0,0.0,0.0,0.0,0.0,0.0,0.0,0.0,0.0,0.0,0.0,0.0,0.0,0.0,0.0,0.0,0.0,0.0,0.0,0.0,0.0,0.0,0.0,0.0,0.0,0.0,0.0,0.0,0.0,0.0,-3.6742,-4.0015,-4.3688,-4.5509,-4.5316,-4.0585,-3.6185,0.0,0.0,0.0,0.0,0.0,0.0,0.0,0.0,0.0,0.0,0.0,0.0,0.0,0.0,0.0,0.0,0.0,0.0,0.0,0.0,0.0,0.0,0.0,0.0,0.0,0.0,0.0,0.0,0.0,0.0,0.0,0.0,0.0,0.0,0.0,0.0,0.0,0.0,0.0,0.0,0.0,0.0,0.0,0.0,0.0,0.0,0.0,0.0,-2.2991,0.0,0.0,0.0,0.0,0.0,0.0,0.0,0.0,0.0,0.0,0.0,0.0,0.0,0.0,0.0,0.0,0.0,0.0,0.0,0.0,0.0,0.0,0.0,0.0,0.0,0.0,0.0,0.0,0.0,0.0,0.0,0.0,0.0,0.0,0.0,0.0,0.0,0.0,0.0,0.0,0.0,0.0,0.0,0.0,0.0,0.0,0.0,0.0,0.0,0.0,0.0,0.0,0.0,0.0,0.0,0.0,0.0,0.0,0.0,-3.8065,-4.1694,-4.4299,-4.5586,-4.547,-4.2239,-3.8223,0.0,0.0,0.0,0.0,0.0,0.0,0.0,0.0,0.0,0.0,0.0,0.0,0.0,0.0,0.0,0.0,0.0,0.0,0.0,0.0,0.0,0.0,0.0,0.0,0.0,0.0,0.0,0.0,0.0,0.0,0.0,0.0,0.0,0.0,0.0,0.0,0.0,0.0,0.0,0.0,0.0,0.0,0.0,0.0,0.0,0.0,0.0,0.0,0.0,0.0,0.0,0.0,0.0,0.0,0.0,0.0,0.0,0.0,0.0,0.0,0.0,0.0,0.0,0.0,0.0,0.0,0.0,0.0,0.0,0.0,0.0,0.0,0.0,0.0,0.0,0.0,0.0,0.0,0.0,0.0,0.0,0.0,0.0,0.0,0.0,0.0,0.0,0.0,0.0,0.0,0.0,0.0,0.0,0.0,0.0,0.0,0.0,0.0,0.0,0.0,0.0,0.0,0.0,0.0,0.0,0.0,0.0,-3.4952,-3.8925,-4.3316,-4.4855,-4.5586,-4.5586,-4.4085,-4.0431,-3.4481,0.0,0.0,0.0,0.0,0.0,0.0,0.0,0.0,0.0,0.0,0.0,0.0,0.0,0.0,0.0,0.0,0.0,0.0,0.0,0.0,0.0,0.0,0.0,0.0,0.0,0.0,0.0,0.0,0.0,0.0,0.0,0.0,0.0,0.0,0.0,0.0,0.0,0.0,-1.9316,-2.2006,0.0,0.0,0.0,0.0,0.0,0.0,0.0,0.0,-2.9694,0.0,0.0,0.0,0.0,0.0,0.0,0.0,0.0,0.0,0.0,0.0,0.0,0.0,0.0,0.0,0.0,0.0,0.0,0.0,0.0,0.0,0.0,0.0,0.0,0.0,0.0,0.0,0.0,0.0,0.0,0.0,0.0,0.0,0.0,0.0,0.0,0.0,0.0,0.0,0.0,0.0,0.0,0.0,0.0,0.0,0.0,0.0,0.0,0.0,0.0,0.0,0.0,0.0,0.0,0.0,0.0,-3.5754,-3.5856,-3.8831,-4.5009,-4.5432,-4.5586,-4.5586,-4.4624,-4.1008,-3.4545,0.0,0.0,0.0,0.0,0.0,0.0,0.0,0.0,0.0,0.0,0.0,0.0,0.0,0.0,0.0,0.0,0.0,0.0,0.0,0.0,0.0,0.0,0.0,0.0,0.0,0.0,0.0,0.0,0.0,0.0,0.0,0.0,0.0,0.0,0.0,0.0,0.0,0.0,0.0,-2.6942,-2.8603,0.0,0.0,0.0,0.0,0.0,0.0,0.0,0.0,-3.2952,0.0,0.0,0.0,0.0,0.0,0.0,0.0,0.0,0.0,0.0,0.0,0.0,0.0,0.0,0.0,0.0,0.0,0.0,0.0,0.0,0.0,0.0,0.0,0.0,0.0,0.0,0.0,0.0,0.0,0.0,0.0,0.0,0.0,0.0,0.0,0.0,0.0,0.0,0.0,0.0,0.0,0.0,0.0,0.0,0.0,0.0,0.0,0.0,0.0,0.0,0.0,0.0,0.0,0.0,0.0,-3.4715,-3.7536,-4.1053,-4.5393,-4.5586,-4.5586,-4.5509,-4.3085,-3.9354,0.0,0.0,0.0,0.0,0.0,0.0,0.0,0.0,0.0,0.0,0.0,0.0,0.0,0.0,0.0,0.0,0.0,0.0,0.0,0.0,0.0,0.0,0.0,0.0,0.0,0.0,0.0,0.0,0.0,0.0,0.0,0.0,0.0,0.0,0.0,0.0,0.0,0.0,0.0,0.0,-2.8599,-3.0163,-3.3205,0.0,0.0,0.0,0.0,0.0,0.0,-3.4575,-3.4541,0.0,0.0,0.0,0.0,0.0,0.0,0.0,0.0,0.0,0.0,0.0,0.0,0.0,0.0,0.0,0.0,0.0,0.0,0.0,0.0,0.0,0.0,0.0,0.0,0.0,0.0,0.0,0.0,0.0,0.0,0.0,0.0,0.0,0.0,0.0,0.0,0.0,0.0,0.0,0.0,0.0,0.0,0.0,0.0,0.0,0.0,0.0,0.0,0.0,0.0,0.0,0.0,0.0,0.0,0.0,-3.3134,-3.8401,-4.2535,-4.5322,-4.5514,-4.5457,-4.5323,-4.1869,-3.8009,0.0,0.0,0.0,0.0,0.0,0.0,0.0,0.0,0.0,0.0,0.0,0.0,0.0,0.0,0.0,0.0,0.0,0.0,0.0,0.0,0.0,0.0,0.0,0.0,0.0,0.0,0.0,0.0,0.0,0.0,0.0,0.0,0.0,0.0,0.0,0.0,0.0,0.0,0.0,0.0,0.0,-3.2039,-3.5656,-3.356,0.0,0.0,0.0,0.0,-3.4701,-3.7081,0.0,0.0,0.0,0.0,0.0,0.0,0.0,0.0,0.0,0.0,0.0,0.0,0.0,0.0,0.0,0.0,0.0,0.0,0.0,0.0,0.0,0.0,0.0,0.0,0.0,0.0,0.0,0.0,0.0,0.0,0.0,0.0,0.0,0.0,0.0,0.0,0.0,0.0,0.0,0.0,0.0,0.0,0.0,0.0,0.0,0.0,0.0,0.0,0.0,0.0,0.0,0.0,0.0,0.0,0.0,0.0,-3.2924,-3.6579,-4.0624,-4.4913,-4.5159,-4.5011,-4.4713,-4.3025,-3.9128,0.0,0.0,0.0,0.0,0.0,0.0,0.0,0.0,0.0,0.0,0.0,0.0,0.0,0.0,0.0,0.0,0.0,0.0,0.0,0.0,0.0,0.0,0.0,0.0,0.0,0.0,0.0,0.0,0.0,0.0,0.0,0.0,0.0,0.0,0.0,0.0,0.0,0.0,0.0,0.0,0.0,-3.6164,-3.528,-3.5528,-3.5639,0.0,0.0,-3.2088,-3.8574,-4.2479,0.0,0.0,0.0,0.0,0.0,0.0,0.0,0.0,0.0,0.0,0.0,0.0,0.0,0.0,0.0,0.0,0.0,0.0,0.0,0.0,0.0,0.0,0.0,0.0,0.0,0.0,0.0,0.0,0.0,0.0,0.0,0.0,0.0,0.0,0.0,0.0,0.0,0.0,0.0,0.0,0.0,0.0,0.0,0.0,0.0,0.0,0.0,0.0,0.0,0.0,0.0,0.0,0.0,0.0,0.0,-2.9997,-3.2783,-3.8213,-4.2221,-4.4711,-4.4988,-4.5049,-4.4896,-4.1208,-3.7146,0.0,0.0,0.0,0.0,0.0,0.0,0.0,0.0,0.0,0.0,0.0,0.0,0.0,0.0,0.0,0.0,0.0,0.0,0.0,0.0,0.0,0.0,0.0,0.0,0.0,0.0,0.0,0.0,0.0,0.0,0.0,0.0,0.0,0.0,0.0,0.0,0.0,0.0,0.0,0.0,0.0,0.0,-3.8902,-3.8716,0.0,0.0,0.0,-3.4711,-4.1627,0.0,0.0,0.0,0.0,0.0,0.0,0.0,0.0,0.0,0.0,0.0,0.0,0.0,0.0,0.0,0.0,0.0,0.0,0.0,0.0,0.0,0.0,0.0,0.0,0.0,0.0,0.0,0.0,0.0,0.0,0.0,0.0,0.0,0.0,0.0,0.0,0.0,0.0,0.0,0.0,0.0,0.0,0.0,0.0,0.0,0.0,0.0,0.0,0.0,0.0,0.0,0.0,0.0,0.0,0.0,0.0,0.0,-3.2581,-3.9632,-4.378,-4.4851,-4.5152,-4.527,-4.5194,-4.0979,0.0,0.0,0.0,0.0,0.0,0.0,0.0,0.0,0.0,0.0,0.0,0.0,0.0,0.0,0.0,0.0,0.0,0.0,0.0,0.0,0.0,0.0,0.0,0.0,0.0,0.0,0.0,-1.352,0.0,0.0,0.0,0.0,0.0,0.0,0.0,0.0,0.0,0.0,0.0,0.0,0.0,0.0,-3.8601,-4.1578,-4.1646,-4.2165,0.0,0.0,-3.9032,-4.4796,-4.6851,-4.6061,0.0,0.0,0.0,0.0,0.0,0.0,0.0,0.0,0.0,0.0,0.0,0.0,0.0,0.0,0.0,0.0,0.0,0.0,0.0,0.0,0.0,0.0,0.0,0.0,0.0,0.0,0.0,0.0,0.0,0.0,0.0,0.0,0.0,0.0,0.0,0.0,0.0,0.0,0.0,0.0,0.0,0.0,0.0,0.0,0.0,0.0,0.0,0.0,0.0,0.0,0.0,0.0,0.0,0.0,0.0,-3.2593,-3.9588,-4.4082,-4.5617,-4.5719,-4.5746,-4.5746,-4.465,-4.0329,0.0,0.0,0.0,0.0,0.0,0.0,0.0,0.0,0.0,0.0,0.0,0.0,0.0,0.0,0.0,0.0,0.0,0.0,0.0,0.0,0.0,0.0,0.0,0.0,0.0,0.0,0.0,0.0,0.0,0.0,0.0,0.0,0.0,0.0,0.0,0.0,0.0,0.0,0.0,0.0,0.0,-4.0889,-4.1149,-4.3685,-4.581,0.0,0.0,-4.6541,-4.8389,-5.0934,-5.0526,-4.4143,0.0,0.0,0.0,0.0,0.0,0.0,0.0,0.0,0.0,0.0,0.0,0.0,0.0,0.0,0.0,0.0,0.0,0.0,0.0,0.0,0.0,0.0,0.0,0.0,0.0,0.0,0.0,0.0,0.0,0.0,0.0,0.0,0.0,0.0,0.0,0.0,0.0,0.0,0.0,0.0,0.0,0.0,0.0,0.0,0.0,0.0,0.0,0.0,0.0,0.0,0.0,0.0,0.0,-3.175,-3.2202,-4.0049,-4.4475,-4.5101,-4.5805,-4.6151,-4.6188,-4.4589,-4.0815,0.0,0.0,0.0,0.0,0.0,0.0,0.0,0.0,0.0,0.0,0.0,0.0,0.0,0.0,0.0,0.0,0.0,0.0,0.0,0.0,0.0,0.0,0.0,0.0,0.0,0.0,0.0,0.0,-1.9465,-2.0184,-2.0466,0.0,0.0,0.0,0.0,0.0,0.0,0.0,0.0,0.0,0.0,-4.3457,-4.5924,-4.7802,0.0,0.0,-4.9973,-5.0023,-5.2081,-5.1136,-4.898,-4.5533,-4.2598,0.0,0.0,0.0,0.0,0.0,0.0,0.0,0.0,0.0,0.0,0.0,0.0,0.0,0.0,0.0,0.0,0.0,0.0,0.0,0.0,0.0,0.0,0.0,0.0,0.0,0.0,0.0,0.0,0.0,0.0,0.0,0.0,0.0,0.0,0.0,0.0,0.0,0.0,0.0,0.0,0.0,0.0,0.0,0.0,0.0,0.0,0.0,0.0,0.0,0.0,0.0,0.0,-3.2147,-3.267,-4.0597,-4.5,-4.5582,-4.6368,-4.6824,-4.6912,-4.5123,-4.1867,0.0,0.0,0.0,0.0,0.0,0.0,0.0,0.0,0.0,0.0,0.0,0.0,0.0,0.0,0.0,0.0,0.0,0.0,0.0,0.0,0.0,0.0,0.0,0.0,0.0,0.0,0.0,0.0,-2.0572,-2.0886,-2.0886,0.0,0.0,0.0,0.0,0.0,0.0,0.0,0.0,0.0,0.0,-4.6246,-4.8779,-5.0602,-5.1996,-5.2711,-5.1825,-5.1753,-5.3649,-5.1381,-4.8871,-4.7273,0.0,0.0,0.0,0.0,0.0,0.0,0.0,0.0,0.0,0.0,0.0,0.0,0.0,0.0,0.0,0.0,0.0,0.0,0.0,0.0,0.0,0.0,0.0,0.0,0.0,0.0,0.0,0.0,0.0,0.0,-1.2894,0.0,0.0,0.0,0.0,0.0,0.0,0.0,0.0,0.0,0.0,0.0,0.0,0.0,0.0,0.0,0.0,0.0,0.0,0.0,0.0,0.0,0.0,-3.2708,-3.439,-4.1188,-4.5655,-4.7504,-4.7648,-4.7772,-4.8068,-4.7011,-4.4132,-3.9171,0.0,0.0,0.0,0.0,0.0,0.0,0.0,0.0,0.0,0.0,0.0,0.0,0.0,0.0,0.0,0.0,0.0,0.0,0.0,0.0,0.0,0.0,0.0,0.0,0.0,0.0,-1.957,-2.0782,-2.1784,0.0,0.0,0.0,0.0,0.0,0.0,0.0,0.0,0.0,0.0,-4.493,-4.9177,-4.8539,-5.1443,-5.3346,-5.2316,-5.175,-5.1707,-5.2675,-5.2231,-5.134,0.0,0.0,0.0,0.0,0.0,0.0,0.0,0.0,0.0,0.0,0.0,0.0,0.0,0.0,0.0,0.0,0.0,0.0,0.0,0.0,0.0,0.0,0.0,0.0,0.0,0.0,0.0,-2.2786,-2.074,0.0,0.0,0.0,0.0,0.0,0.0,0.0,0.0,0.0,0.0,0.0,-3.5507,-3.7469,0.0,0.0,0.0,0.0,0.0,0.0,0.0,0.0,0.0,0.0,0.0,0.0,-3.297,-3.5399,-4.1963,-4.6066,-4.7277,-4.7831,-4.7942,-4.7675,-4.6757,-4.3762,-3.8368,0.0,0.0,0.0,0.0,0.0,0.0,0.0,0.0,0.0,0.0,0.0,0.0,0.0,0.0,0.0,0.0,0.0,0.0,0.0,0.0,0.0,0.0,0.0,0.0,0.0,-2.157,0.0,0.0,0.0,0.0,0.0,0.0,0.0,0.0,0.0,0.0,0.0,-4.057,-4.4532,-4.8161,-5.0678,-5.1449,-5.3736,-5.5469,0.0,0.0,0.0,0.0,0.0,0.0,0.0,0.0,0.0,0.0,0.0,0.0,0.0,0.0,-4.9257,-4.2032,-4.3138,-4.4628,-4.2765,0.0,0.0,0.0,0.0,0.0,0.0,0.0,0.0,0.0,0.0,0.0,0.0,0.0,0.0,-2.9098,0.0,-2.7105,0.0,0.0,0.0,0.0,0.0,0.0,0.0,0.0,-3.82,-4.0469,-4.0723,-4.2522,-4.2353,0.0,-4.0329,-3.7221,0.0,0.0,0.0,0.0,0.0,0.0,0.0,0.0,-3.4423,-3.7317,-4.3185,-4.6617,-4.7167,-4.7709,-4.7715,-4.7088,-4.6291,-4.3734,-3.9218,-3.5435,-3.261,0.0,0.0,0.0,0.0,0.0,0.0,0.0,0.0,0.0,0.0,0.0,0.0,0.0,0.0,0.0,0.0,0.0,0.0,0.0,0.0,0.0,0.0,0.0,-2.2978,0.0,0.0,0.0,0.0,0.0,0.0,0.0,0.0,0.0,-3.9329,-4.2099,-4.5312,-4.8713,-5.1109,-5.2547,-5.2724,0.0,0.0,0.0,0.0,0.0,0.0,0.0,-5.1929,-5.1677,-5.1046,-5.0783,-5.154,-5.4559,-5.6602,-5.5784,0.0,0.0,-4.9381,-4.9307,-4.9824,-4.8088,-4.7497,-4.7035,-4.6283,-4.6578,-4.6632,0.0,0.0,0.0,0.0,0.0,0.0,0.0,0.0,-3.4724,-3.4391,0.0,-3.3032,0.0,0.0,0.0,0.0,0.0,-3.5811,0.0,0.0,-4.6088,-4.8914,-4.8145,-4.8541,-4.8438,-4.7629,-4.7068,-4.4777,-4.0715,-3.5587,0.0,0.0,0.0,0.0,0.0,0.0,-3.7044,-4.0341,-4.4851,-4.7239,-4.7492,-4.7487,-4.7104,-4.6445,-4.5584,-4.4047,-4.1736,-3.9399,-3.7071,-3.4684,-2.9582,0.0,0.0,0.0,0.0,0.0,0.0,0.0,0.0,0.0,0.0,0.0,0.0,0.0,0.0,0.0,0.0,0.0,0.0,0.0,0.0,-2.386,0.0,0.0,0.0,0.0,0.0,0.0,0.0,0.0,0.0,0.0,-4.4277,-4.7232,-4.9973,-5.0746,0.0,0.0,0.0,0.0,-5.5278,-5.2688,-5.2565,-5.2791,-5.2467,-5.3592,-5.4503,-5.4496,0.0,0.0,-5.828,-5.9406,-5.9729,-5.7491,-5.9553,-6.0992,-5.8905,-5.6319,-5.4993,-5.55,-5.378,-5.2386,-5.236,-5.2272,-5.2061,-4.3897,0.0,0.0,0.0,0.0,-3.9431,-4.1315,-4.4548,-4.3937,-4.2087,-3.9451,-3.9207,0.0,0.0,0.0,0.0,0.0,0.0,-4.1524,-4.3894,-4.7049,-4.9007,-4.9982,-5.0667,-5.0903,-5.061,-4.9402,-4.8477,-4.7671,-4.4271,-3.8691,-3.1278,0.0,0.0,0.0,0.0,-3.9793,-4.3606,-4.6608,-4.8417,-4.9017,-4.8554,-4.7745,-4.658,-4.482,-4.382,-4.3527,-4.1945,-4.0112,-3.7993,-3.4912,0.0,0.0,0.0,0.0,0.0,0.0,0.0,0.0,0.0,0.0,0.0,0.0,0.0,0.0,0.0,0.0,0.0,0.0,0.0,-2.6337,-2.662,-2.796,0.0,0.0,0.0,0.0,0.0,0.0,0.0,0.0,0.0,-5.3389,-5.2328,-5.161,0.0,0.0,-5.345,-5.215,-5.4411,-5.6139,-5.5946,-5.6992,0.0,0.0,-5.7195,-5.6912,-5.683,-5.9278,-6.0847,-5.9716,-6.1426,-6.2434,-6.1117,-6.1676,-6.2093,-6.1552,-6.0929,-6.0433,-6.0543,-5.9239,-5.8039,-5.7993,-5.7173,-5.6194,-5.1743,-4.6587,-4.4442,-4.4496,-4.597,-4.5856,-4.7591,-5.0448,-4.9955,-4.8541,-4.6531,-4.5848,-4.3262,-3.9332,-3.8479,0.0,0.0,0.0,-4.5767,-4.8637,-4.9697,-5.0894,-5.2194,-5.2568,-5.2715,-5.2639,-5.1271,-5.0675,-5.0741,-4.852,-4.3939,-3.7301,0.0,0.0,-3.7555,-4.0274,-4.3085,-4.592,-4.7959,-4.8944,-4.8919,-4.8295,-4.7415,-4.6275,-4.498,-4.4313,-4.4403,-4.3314,-4.2023,-4.0493,-3.8115,-3.5505,0.0,0.0,0.0,0.0,0.0,0.0,0.0,0.0,0.0,0.0,0.0,-2.2235,0.0,0.0,0.0,0.0,-2.6666,-2.9454,-3.0415,-3.1541,0.0,0.0,0.0,0.0,0.0,0.0,0.0,-4.5332,-5.0505,-5.531,-5.8474,-5.6846,-5.5374,-5.5558,-5.586,-5.575,-5.4972,0.0,-5.7904,-5.8133,-5.8663,-5.9051,-5.9039,-5.8932,-5.9122,-6.0026,-6.1364,-6.2362,-6.2222,-6.3374,-6.4113,-6.3741,-6.3554,-6.3518,-6.3518,-6.3645,-6.3398,-6.2855,-6.1686,-6.0861,-6.0786,-5.9698,-5.8744,-5.7263,-5.6207,-5.2372,-5.0809,-5.0986,-5.1769,-5.2559,-5.3348,-5.3348,-5.3518,-5.3721,-5.2233,-5.0084,-4.75,-4.5534,0.0,-4.7392,-4.897,-5.0857,-5.3071,-5.3163,-5.3599,-5.4374,-5.3953,-5.385,-5.3936,-5.2679,-5.1811,-5.114,-4.971,-4.7796,-4.56,-4.4709,-4.4118,-4.398,-4.5257,-4.6494,-4.7399,-4.8866,-4.9052,-4.785,-4.7214,-4.6532,-4.5838,-4.5669,-4.5263,-4.4485,-4.3741,-4.2997,-4.2151,-3.9613,-3.8757,-3.9681,0.0,0.0,0.0,0.0,0.0,0.0,0.0,0.0,0.0,0.0,0.0,0.0,0.0,0.0,0.0,-3.1006,0.0,-3.527,-3.781,0.0,0.0,0.0,-4.4196,-4.7606,-5.0652,-5.161,-4.9334,0.0,0.0,-6.0823,-6.0765,-6.0337,-5.9769,-6.0114,-6.0114,-5.9296,-5.9771,-6.0123,-5.9276,-5.8743,-5.8351,-5.8703,-5.9601,-6.1049,-6.2842,-6.3771,-6.3912,-6.4383,-6.4693,-6.4813,-6.4636,-6.4835,-6.4803,-6.487,-6.4767,-6.4485,-6.311,-6.2158,-6.1606,-6.1606,-6.0964,-6.0461,-5.9163,-5.858,-5.7597,-5.6101,-5.4425,-5.4613,-5.4975,-5.5473,-5.5473,-5.5018,-5.4265,-5.3829,-5.2982,-5.1678,-5.0569,-5.0657,-5.169,-5.1551,-5.1718,-5.2091,-5.2137,-5.2257,-5.2432,-5.2333,-5.2755,-5.3335,-5.2656,-5.2459,-5.2748,-5.2413,-5.1928,-5.1261,-5.1058,-4.8575,-4.4084,-4.5929,-4.7515,-4.8461,-4.8835,-4.8945,-4.8643,-4.7996,-4.7267,-4.6549,-4.5432,-4.4485,-4.3707,-4.2963,-4.2219,-4.1508,-4.083,-4.0357,-4.002,-3.2923,0.0,0.0,0.0,0.0,0.0,0.0,0.0,0.0,0.0,-2.8747,-2.2353,0.0,-3.4363,0.0,-3.492,-3.9401,-4.2062,-4.2917,0.0,0.0,-4.8229,-4.9866,-5.4798,-5.6098,-5.6345,-5.5757,-5.8811,-6.2266,-6.5506,-6.3753,-6.2654,-6.3635,-6.1857,-6.0092,-5.9325,-6.0359,-6.0906,-6.0285,-6.1255,-6.2099,-6.1431,-6.1628,-6.2015,-6.2631,-6.3302,-6.3542,-6.3117,-6.3615,-6.3767,-6.3213,-6.3452,-6.3794,-6.3905,-6.4273,-6.4512,-6.4136,-6.3589,-6.3134,-6.3131,-6.2875,-6.2707,-5.9319,-5.9065,-5.8874,-5.7973,-5.6703,-5.7108,-5.7406,-5.7604,-5.7413,-5.6908,-5.6276,-5.5395,-5.4547,-5.3727,-5.2472,-5.236,-5.2979,-5.1845,-5.1458,-5.1688,-5.1758,-5.1826,-5.1891,-5.2379,-5.3038,-5.3882,-5.3505,-5.3533,-5.3863,-5.3584,-5.3419,-5.3274,-5.3015,-5.0925,-4.7333,-4.8378,-4.9159,-4.9346,-4.9089,-4.9104,-4.9424,-4.8781,-4.7564,-4.5872,-4.5331,-4.4079,-4.2016,-4.1847,-4.1305,-4.029,-4.0222,-4.0189,-3.9986,-3.4688,-2.9391,0.0,0.0,0.0,0.0,0.0,0.0,0.0,0.0,0.0,0.0,0.0,-3.8818,-3.516,-3.9964,-4.4078,-4.593,-4.7608,-4.975,-5.2626,-5.3125,-5.495,-5.9132,-5.9901,-6.0405,-6.1178,-6.275,-6.4746,-6.732,-6.5786,-6.4729,-6.5637,-6.3872,-6.2314,-6.1903,-6.2224,-6.2322,-6.1905,-6.2579,-6.2989,-6.2473,-6.2429,-6.2415,-6.2448,-6.3046,-6.343,-6.2956,-6.3543,-6.3928,-6.3497,-6.3734,-6.4005,-6.4005,-6.4309,-6.4613,-6.4559,-6.4381,-6.4092,-6.4092,-6.4057,-6.4019,-5.8716,-5.8673,-5.8238,-5.8142,-5.8238,-5.9028,-5.9354,-5.9284,-5.8951,-5.8756,-5.8557,-5.6708,-5.5418,-5.4532,-5.2752,-5.2295,-5.2695,-5.109,-5.068,-5.131,-5.1605,-5.1849,-5.2103,-5.2974,-5.3912,-5.4695,-5.4757,-5.4734,-5.4697,-5.4221,-5.3812,-5.3509,-5.2892,-5.2171,-5.1384,-5.1185,-5.071,-4.9896,-4.9385,-4.9458,-5.0067,-4.9289,-4.753,-4.4925,-4.5094,-4.3639,-4.029,-4.0629,-4.0324,-3.9106,-3.9093,-3.943,-3.9968,-3.6109,-3.3305,0.0,-3.145,0.0,0.0,0.0,0.0,0.0,0.0,0.0,0.0,-3.9869,-4.1,-4.1423,-4.5736,-4.8601,-4.9041,-5.2142,-5.4678,-5.6028,-5.756,-5.9455,-6.1595,-6.265,-6.3783,-6.538,-6.6124,-6.6749,-6.7467,-6.6936,-6.6353,-6.6425,-6.5609,-6.4928,-6.5037,-6.4207,-6.3549,-6.3574,-6.2931,-6.2547,-6.2561,-6.2595,-6.2618,-6.2719,-6.3249,-6.3634,-6.3632,-6.4126,-6.4566,-6.458,-6.4647,-6.4749,-6.4749,-6.4816,-6.4918,-6.4986,-6.5,-6.4864,-6.4674,-6.4665,-6.4778,-5.8684,-5.8676,-5.8591,-5.8796,-5.9139,-5.9319,-5.9176,-5.8835,-5.9139,-5.9065,-5.8595,-5.7291,-5.6132,-5.5056,-5.3501,-5.2505,-5.1719,-5.0839,-5.0434,-5.0639,-5.0671,-5.1426,-5.2842,-5.3078,-5.3994,-5.5402,-5.5495,-5.5446,-5.5511,-5.599,-5.5598,-5.4323,-5.4232,-5.3449,-5.2146,0.0,0.0,0.0,-4.9656,-4.9965,-5.0033,-4.8781,-4.7293,-4.5534,-4.3842,0.0,-4.0223,-3.9681,-3.9276,-3.9039,-3.953,0.0,0.0,0.0,0.0,0.0,0.0,0.0,0.0,0.0,0.0,0.0,-4.3163,-4.1596,-3.9603,-4.3631,-4.7044,-4.8694,-5.2001,-5.4397,-5.5042,-5.6836,-5.8181,-5.8481,-6.0417,-6.226,-6.3396,-6.4809,-6.617,-6.71,-6.6753,-6.6626,-6.7122,-6.6663,-6.6442,-6.6899,-6.6351,-6.5821,-6.5724,-6.4565,-6.3496,-6.2813,-6.2639,-6.2651,-6.3193,-6.3294,-6.3497,-6.4051,-6.4291,-6.4359,-6.4458,-6.4503,-6.4622,-6.4667,-6.5087,-6.5493,-6.5493,-6.5967,-6.6305,-6.6373,-6.6373,-6.6068,-6.4904,-6.5053,-6.5474,-5.8974,0.0,-5.8517,-5.8503,0.0,-5.8951,-5.8913,-5.8713,-5.8951,-5.8598,-5.7767,-5.6753,-5.5525,-5.4129,-5.2468,-5.1507,-5.0885,-5.0023,-5.0069,-5.096,-5.1507,-5.2363,-5.3631,-5.4143,-5.5038,-5.6259,-5.6313,-5.6474,-5.684,-5.6912,-5.6295,-5.5101,-5.4723,-5.4052,-5.2912,-5.253,-5.1792,-5.0642,-5.0642,-5.0811,-5.1116,-5.0101,-4.8477,-4.6346,0.0,0.0,0.0,0.0,0.0,0.0,0.0,0.0,0.0,0.0,0.0,-4.2392,-4.1801,-4.1822,-4.2932,-4.4417,-4.5994,-4.7725,-4.8578,-4.7937,-4.5455,-4.8609,-5.1418,-5.3107,-5.506,-5.6554,-5.7335,-5.8348,-5.9238,-5.9582,-6.1011,-6.2328,-6.3231,-6.435,-6.5779,-6.7268,-6.6837,-6.6233,-6.5986,-6.6035,-6.6138,-6.6524,-6.5807,-6.5271,-6.5186,-6.4658,-6.3947,-6.3543,-6.3497,-6.3599,-6.3971,-6.4072,-6.414,-6.4512,-6.4924,-6.5094,-6.5169,-6.5429,-6.5649,-6.5681,-6.6,-6.6237,-6.6271,-6.6576,-6.6812,-6.6812,-6.6812,-6.6643,-6.5816,-6.6,-6.6237,-5.9428,-5.9355,-5.8694,-5.84,-5.8447,-5.8863,-5.8916,-5.8794,0.0,0.0,0.0,-5.5948,-5.4618,-5.3011,-5.1353,-5.0595,-5.0563,-4.971,-5.0262,-5.2131,-5.3007,-5.397,-5.4921,-5.5679,-5.6455,-5.718,-5.7166,-5.7401,-5.795,-5.7401,-5.6616,-5.5724,-5.5084,-5.4391,-5.3551,-5.3518,-5.3179,-5.2503,-5.1792,-5.1691,-5.2266,-5.1454,-4.9796,-4.7225,-4.753,-4.6177,-4.3064,-4.3504,-4.3267,-4.2083,-4.2692,-4.2974,-4.2806,-4.4302,-4.5994,-4.7796,-4.8158,-4.8399,-4.8692,-5.0379,-5.1261,-5.0943,-5.2604,-5.3236,-5.2042,-5.3312,-5.4601,-5.5794,-5.6693,-5.7446,-5.8005,-5.8923,-5.9616,-6.0293,-6.112,-6.2084,-6.2747,-6.3483,-6.4866,-6.6523,-6.6289,-6.5584,-6.4914,-6.5425,-6.5922,-6.5937,-6.5641,-6.4959,-6.4976,-6.4802,-6.4525,-6.4444,-6.4309,-6.4444,-6.4749,-6.4715,-6.4783,-6.5087,-6.5508,-6.5861,-6.6016,-6.6406,-6.6779,-6.6711,-6.6812,-6.6862,-6.7029,-6.6946,-6.6862,-6.7029,-6.6896,-6.6812,-6.6812,-6.6812,-6.6779,-6.0224,-6.0236,-6.0126,-6.0052,-6.0052,-6.0147,-5.9749,-5.9066,-5.8113,-5.7629,-5.7397,-5.5596,-5.4155,-5.3078,-5.2108,-5.1572,-5.1343,-5.1165,-5.2337,0.0,-5.4605,-5.5737,-5.7648,-5.7474,-5.7712,-5.8386,-5.806,-5.7904,-5.7997,-5.7867,-5.713,-5.5836,-5.561,-5.4818,-5.3618,-5.3518,-5.345,-5.3315,-5.257,-5.2198,-5.2266,-5.0947,-4.9763,-4.8714,-4.7597,-4.6447,-4.5297,-4.5365,-4.5297,-4.5094,-4.5771,-4.6404,-4.702,-4.7291,-4.8112,-4.959,-4.9759,-5.0326,-5.1564,-5.1966,-5.2673,-5.3822,-5.4262,-5.459,-5.5097,-5.5839,-5.6467,-5.6645,-5.7864,-5.869,-5.8964,-6.0078,-6.0951,-6.1166,-6.2419,-6.3401,-6.3439,-6.4148,-6.4667,-6.477,-6.4831,-6.5127,-6.5284,-6.5581,-6.6052,-6.6452,-6.637,-6.6458,-6.6221,-6.5343,-6.4681,-6.4546,-6.4241,-6.4478,-6.5256,-6.5358,-6.5561,-6.6406,-6.6474,-6.6508,-6.6542,-6.6677,-6.6812,-6.6812,-6.6812,-6.7112,-6.7628,-6.7291,-6.7161,-6.7582,-6.7291,-6.6812,-6.6812,-6.6812,-6.6812,-6.1031,-6.1006,-6.0566,-6.0419,-6.0334,-5.9917,-5.9522,-5.9096,-5.7743,-5.6914,-5.6466,-5.5164,-5.384,-5.2497,-5.2497,-5.2466,-5.2434,-5.3065,-5.4443,-5.6313,-5.6637,-5.7493,-5.8765,-5.8405,-5.8354,-5.8673,-5.8194,-5.7997,-5.795,-5.7594,-5.6825,-5.5724,-5.4939,-5.4171,-5.3551,-5.3518,-5.3518,-5.3518,-5.3145,-5.2942,-5.2942,-5.23,-5.1589,-5.0811,-5.0101,-4.9458,-4.8714,-4.8714,-4.8511,-4.8105,-4.8781,-4.9154,-4.912,-4.9859,-5.0582,-5.1263,-5.1698,-5.2236,-5.2944,-5.3348,-5.4058,-5.5108,-5.5581,-5.5928,-5.6249,-5.6577,-5.7182,-5.809,-5.8714,-5.9405,-6.0114,-6.0863,-6.1501,-6.1897,-6.2566,-6.2973,-6.3117,-6.3692,-6.4117,-6.4064,-6.4789,-6.5462,-6.6068,-6.6205,-6.6424,-6.6779,-6.6812,-6.6812,-6.6812,-6.6271,-6.5797,-6.5797,-6.5628,-6.5696,-6.617,-6.6203,-6.6339,-6.6779,-6.6812,-6.6812,-6.6812,-6.6812,-6.6812,-6.6812,-6.6812,-6.6946,-6.742,-6.7161,-6.7078,-6.7243,-6.7161,-6.6812,-6.6812,-6.6812,-6.6812,-6.1887,-6.1814,-6.119,-6.0836,-6.0601,-6.0013,-5.9509,-5.9023,-5.7646,-5.666,-5.5912,-5.5154,-5.3989,-5.2653,-5.3349,-5.3679,-5.3891,-5.4952,-5.6378,-5.7956,-5.8497,-5.906,-5.9592,-5.9139,-5.8874,-5.8796,-5.8282,-5.7997,-5.7914,-5.7252,-5.6367,-5.5437,-5.4171,-5.3518,-5.3518,-5.3518,-5.3518,-5.3518,-5.3518,-5.3518,-5.3518,-5.3518,-5.3179,-5.2638,-5.257,-5.23,-5.1758,-5.1725,-5.1454,-5.0947,-5.142,-5.1423,-5.0984,-5.1928,-5.2604,-5.264,-5.3112,-5.3585,-5.3788,-5.4431,-5.5175,-5.5919,-5.6494,-5.6833,-5.704,-5.7216,-5.7831,-5.9021,-5.9268,-5.9775,-6.0998,-6.1491,-6.1772,-6.2313,-6.2415,-6.2561,-6.2685,-6.3159,-6.3666,-6.4119,-6.5017,-6.596,-6.6354,-6.6711,-6.6812,-6.6812,-6.6812,-6.6812,-6.6812,-6.6812,-6.6812,-6.6812,-6.6812,-6.6745,-6.6812,-6.6779,-6.6779,-6.6812,-6.6812,-6.6812,-6.6812,-6.6812,-6.6812,-6.6812,-6.6812,-6.6946,-6.7112,-6.6946,-6.6946,-6.7161,-6.7078,-6.6812,-6.6812,-6.6812,-6.6812,-6.2695,-6.2695,-6.2548,-6.2157,-6.148,-6.1315,-6.044,-5.906,-5.8276,-5.7431,-5.6673,-5.5924,-5.5177,-5.4499,-5.5132,-5.5479,-5.5588,-5.679,-5.8036,-5.9138,-5.9684,-6.0189,-6.0482,-5.969,-5.9319,-5.9176,-5.8418,-5.7997,-5.7867,-5.7166,-5.6095,-5.4791,-5.3881,-5.3518,-5.3518,-5.3518,-5.3518,-5.3518,-5.3518,-5.3518,-5.3518,-5.3518,-5.345,-5.3416,-5.3382,-5.3382,-5.3213,-5.3281,-5.3247,-5.3213,-5.3179,-5.3247,-5.3179,-5.3315,-5.3382,-5.3416,-5.3484,-5.3754,-5.4465,-5.5209,-5.5919,-5.663,-5.6765,-5.7137,-5.7712,-5.8366,-5.8817,-5.9186,-5.9674,-6.0391,-6.1234,-6.1897,-6.2279,-6.2347,-6.2415,-6.2651,-6.326,-6.3463,-6.3768,-6.4478,-6.5332,-6.5739,-6.6016,-6.6474,-6.6812,-6.6812,-6.6812,-6.6812,-6.6812,-6.6812,-6.6812,-6.6812,-6.6812,-6.6812,-6.6812,-6.6812,-6.6812,-6.6812,-6.6812,-6.6812,-6.6812,-6.6812,-6.6812,-6.6812,-6.6812,-6.7029,-6.7454,-6.7454,-6.7078,-6.742,-6.7209,-6.6812,-6.6812,-6.6812,-6.6812,-6.2805,-6.2805,-6.2805,-6.2324,-6.1604,-6.1113,-6.0176,-5.9076,-5.8255,-5.7732,-5.748,-5.7137,-5.6359,-5.5346,-5.6571,-5.7127,-5.7185,-5.8432,-5.9223,-5.9665,-5.9685,-5.9792,-5.9885,-5.9319,-5.899,-5.8951,-5.8326,-5.7774,-5.7216,-5.615,-5.4999,-5.4042,-5.3618,-5.3518,-5.3518,-5.3518,-5.3518,-5.3518,-5.3518,-5.3518,-5.3518,-5.3518,-5.3518,-5.3518,-5.3518,-5.3518,-5.3518,-5.3518,-5.3518,-5.3518,-5.3518,-5.3518,-5.3518,-5.3518,-5.3518,-5.3551,-5.3855,-5.4702,-5.5818,-5.619,-5.6664,-5.7374,-5.7442,-5.7746,-5.8457,-5.8807,-5.9321,-6.0231,-6.0646,-6.1099,-6.1784,-6.2245,-6.2415,-6.2415,-6.2415,-6.2685,-6.3429,-6.3903,-6.4444,-6.5155,-6.5914,-6.6354,-6.6373,-6.6609,-6.6812,-6.6812,-6.6812,-6.6812,-6.6812,-6.6812,-6.6812,-6.6812,-6.6812,-6.6812,-6.6812,-6.6812,-6.6812,-6.6812,-6.6812,-6.6812,-6.6812,-6.6812,-6.6812,-6.6812,-6.6812,-6.6896,-6.7161,-6.7161,-6.6946,-6.7291,-6.7209,-6.6812,-6.6812,-6.6812,-6.6812,-6.2805,-6.2805,-6.2805,-6.2219,-6.1229,-6.064,-5.9768,-5.8737,-5.8137,-5.7881,-5.7881,-5.7881,-5.7306,-5.6641,-5.7786,-5.8308,-5.8316,-5.9585,-6.0236,-6.0245,-6.0079,-6.0068,-5.9998,-5.9324,-5.9048,-5.8929,-5.8305,-5.7498,-5.6527,-5.5297,-5.42,-5.3618,-5.3518,-5.3518,-5.3518,-5.3518,-5.3518,-5.3518,-5.3518,-5.3518,-5.3518,-5.3518,-5.3518,-5.3518,-5.3518,-5.3518,-5.3518,-5.3518,-5.3518,-5.3518,-5.3518,-5.3518,-5.3518,-5.3518,-5.3619,-5.3889,-5.4664,-5.568,-5.6765,-5.6968,-5.734,-5.7814,-5.7881,-5.8186,-5.8829,-5.9214,-5.9892,-6.1037,-6.1491,-6.1818,-6.2313,-6.2415,-6.2415,-6.2415,-6.255,-6.299,-6.3734,-6.4444,-6.5189,-6.5899,-6.6406,-6.6812,-6.6812,-6.6812,-6.6812,-6.6812,-6.6812,-6.6812,-6.6812,-6.6812,-6.6812,-6.6812,-6.6812,-6.6812,-6.6812,-6.6812,-6.6812,-6.6812,-6.6812,-6.6812,-6.6812,-6.6812,-6.6812,-6.6812,-6.6812,-6.6812,-6.6946,-6.6896,-6.6812,-6.6812,-6.6812,-6.6812,-6.6812,-6.6812,-6.6812,-6.2805,-6.2805,-6.2805,-6.1915,-6.0494,-6.0397,-5.9443,-5.7993,-5.7954,-5.7881,-5.7881,-5.7881,-5.7848,-5.7789,-5.8666,-5.8744,-5.8459,-6.0078,-6.097,-6.1055,-6.1354,-6.1656,-6.1618,-6.0444,-5.9827,-5.9706,-5.8747,-5.7411,-5.5907,-5.4974,-5.4235,-5.3551,-5.3518,-5.3518,-5.3518,-5.3518,-5.3518,-5.3518,-5.3518,-5.3518,-5.3518,-5.3518,-5.3518,-5.3518,-5.3518,-5.3518,-5.3518,-5.3518,-5.3518,-5.3518,-5.3518,-5.3518,-5.3518,-5.3551,-5.3889,-5.4662,-5.5871,-5.6723,-5.6934,-5.7408,-5.7814,-5.7881,-5.7949,-5.8254,-5.9066,-5.9749,-6.0461,-6.124,-6.1907,-6.2347,-6.2381,-6.2415,-6.2415,-6.2448,-6.3024,-6.37,-6.4444,-6.5087,-6.5899,-6.6508,-6.6745,-6.6812,-6.6812,-6.6812,-6.6812,-6.6812,-6.6812,-6.6812,-6.6812,-6.6812,-6.6812,-6.6812,-6.6812,-6.6812,-6.6812,-6.6812,-6.6812,-6.6812,-6.6812,-6.6812,-6.6812,-6.6812,-6.6812,-6.6812,-6.6812,-6.6812,-6.6812,-6.6812,-6.6812,-6.6812,-6.6812,-6.6812,-6.6812,-6.6812,-6.6812,-6.2805,-6.2805,-6.2805,-6.186,-6.0458,-6.0397,-5.9478,-5.7954,-5.7881,-5.7881,-5.7881,-5.7881,-5.7881,-5.792,-5.8801,-5.9334,-5.9632,-6.0375,-6.0909,-6.1292,-6.1085,-6.0914,-6.0833,-6.0433,-6.0231,-6.0149,-5.9742,-5.85,-5.6467,-5.5208,-5.4226,-5.3619,-5.3518,-5.3518,-5.3518,-5.3518,-5.3518,-5.3518,-5.3518,-5.3518,-5.3518,-5.3518,-5.3518,-5.3518,-5.3518,-5.3518,-5.3518,-5.3518,-5.3518,-5.3518,-5.3518,-5.3721,-5.416,-5.4635,-5.5212,-5.5943,-5.6477,-5.706,-5.7476,-5.7712,-5.7881,-5.7915,-5.8355,-5.8896,-5.9641,-6.0393,-6.1181,-6.1849,-6.2178,-6.2381,-6.2415,-6.2415,-6.2415,-6.2482,-6.3091,-6.3835,-6.4546,-6.5256,-6.5967,-6.6609,-6.6812,-6.6812,-6.6812,-6.6812,-6.6812,-6.6812,-6.6812,-6.6812,-6.6812,-6.6812,-6.6812,-6.6812,-6.6812,-6.6812,-6.6812,-6.6812,-6.6812,-6.6812,-6.6812,-6.6812,-6.6812,-6.6812,-6.6812,-6.6812,-6.6812,-6.6812,-6.6812,-6.6812,-6.6812,-6.6812,-6.6812,-6.6812,-6.6812,-6.6812,-6.6812,-6.3209,-6.3122,-6.2625,-6.1659,-6.0432,-6.0086,-5.9212,-5.7954,-5.7881,-5.7881,-5.7881,-5.7881,-5.8035,-5.8324,-5.8839,-5.9733,-6.0725,-6.0804,-6.1224,-6.1911,-6.1447,-6.119,-6.1153,-6.0896,-6.0786,-6.0616,-5.9976,-5.8772,-5.7258,-5.5713,-5.4736,-5.4262,-5.4228,-5.4093,-5.3923,-5.3856,-5.3754,-5.3585,-5.3518,-5.3619,-5.3822,-5.3856,-5.3991,-5.4194,-5.4228,-5.3957,-5.3551,-5.3518,-5.3518,-5.3518,-5.3721,-5.4194,-5.494,-5.569,-5.6268,-5.6757,-5.7021,-5.733,-5.7814,-5.7881,-5.7983,-5.8254,-5.8727,-5.9404,-6.0317,-6.1019,-6.1588,-6.2222,-6.2415,-6.2415,-6.2415,-6.2415,-6.2482,-6.2787,-6.3429,-6.4174,-6.485,-6.5628,-6.6237,-6.6677,-6.6812,-6.6812,-6.6812,-6.6812,-6.6812,-6.6812,-6.6812,-6.6812,-6.6812,-6.6812,-6.6812,-6.6812,-6.6812,-6.6812,-6.6812,-6.6812,-6.6812,-6.6812,-6.6812,-6.6812,-6.6812,-6.6812,-6.6812,-6.6812,-6.6812,-6.6812,-6.6812,-6.6812,-6.6812,-6.6812,-6.6812,-6.6812,-6.6812,-6.6812,-6.6812,-6.409,-6.3789,-6.2332,-6.1279,-6.0317,-5.9509,-5.8703,-5.7954,-5.7881,-5.7881,-5.7881,-5.7954,-5.8359,-5.8969,-5.9164,-6.0051,-6.1286,-6.144,-6.1914,-6.2608,-6.2658,-6.2622,-6.2548,-6.1924,-6.1545,-6.1372,-5.9271,-5.8225,-5.7952,-5.6469,-5.5649,-5.5649,-5.5513,-5.5141,-5.46,-5.4566,-5.4262,-5.3856,-5.3754,-5.3991,-5.4499,-5.46,-5.4905,-5.548,-5.5547,-5.4938,-5.3687,-5.3653,-5.3721,-5.3721,-5.4262,-5.4938,-5.5685,-5.6371,-5.685,-5.6998,-5.7504,-5.7848,-5.7881,-5.7949,-5.8321,-5.8795,-5.9066,-5.981,-6.0901,-6.1282,-6.1732,-6.229,-6.2415,-6.2415,-6.2415,-6.2482,-6.2753,-6.3429,-6.4038,-6.4783,-6.5527,-6.6305,-6.6812,-6.6812,-6.6812,-6.6812,-6.6812,-6.6812,-6.6812,-6.6812,-6.6812,-6.6812,-6.6812,-6.6812,-6.6812,-6.6812,-6.6812,-6.6812,-6.6812,-6.6812,-6.6812,-6.6812,-6.6812,-6.6812,-6.6812,-6.6812,-6.6812,-6.6812,-6.6812,-6.6812,-6.6812,-6.6812,-6.6812,-6.6812,-6.6812,-6.6812,-6.6812,-6.6812,-6.6812,-6.4546,-6.3892,-6.2872,-6.164,-6.0307,-5.9421,-5.8633,-5.7954,-5.7881,-5.7881,-5.8027,-5.8494,-5.8863,-5.9186,-5.9706,-6.058,-6.1512,-6.1604,-6.2023,-6.2705,-6.2805,-6.2805,-6.2768,-6.2548,-6.215,-6.148,-6.0367,-5.91,-5.8049,-5.6953,-5.6224,-5.5818,-5.575,-5.5615,-5.5378,-5.5378,-5.5209,-5.5074,-5.504,-5.5175,-5.5344,-5.5378,-5.5513,-5.5683,-5.5716,-5.548,-5.504,-5.504,-5.5006,-5.5006,-5.5243,-5.5719,-5.6399,-5.7148,-5.7518,-5.7611,-5.778,-5.7881,-5.7949,-5.8355,-5.8727,-5.9167,-5.9945,-6.0689,-6.1264,-6.1782,-6.212,-6.2381,-6.2415,-6.2415,-6.2482,-6.2843,-6.3214,-6.3497,-6.4174,-6.4918,-6.5662,-6.6373,-6.6745,-6.6812,-6.6812,-6.6812,-6.6812,-6.6812,-6.6812,-6.6812,-6.6812,-6.6812,-6.6812,-6.6812,-6.6812,-6.6812,-6.6812,-6.6812,-6.6812,-6.6812,-6.6812,-6.6812,-6.6812,-6.6812,-6.6812,-6.6812,-6.6812,-6.6812,-6.6812,-6.6812,-6.6812,-6.6812,-6.6812,-6.6812,-6.6812,-6.6812,-6.6812,-6.6812,-6.6812,-6.4685,-6.38,-6.2745,-6.1671,-6.0566,-5.9564,-5.8798,-5.8327,-5.7983,-5.8056,-5.8409,-5.8841,-5.951,-6.0036,-6.0652,-6.1286,-6.2023,-6.2023,-6.2324,-6.2755,-6.2805,-6.2805,-6.2805,-6.2805,-6.2412,-6.1604,-6.076,-5.9714,-5.8452,-5.76,-5.6968,-5.6596,-5.6528,-5.6393,-5.6156,-5.6089,-5.6021,-5.5784,-5.5683,-5.5852,-5.6055,-5.6122,-5.6258,-5.6494,-5.6528,-5.6528,-5.6528,-5.6528,-5.6258,-5.5886,-5.5956,-5.6467,-5.7145,-5.7649,-5.7881,-5.7881,-5.7915,-5.7983,-5.8287,-5.8761,-5.9336,-5.9911,-6.0757,-6.1434,-6.1704,-6.2178,-6.2381,-6.2415,-6.2415,-6.2415,-6.2516,-6.3045,-6.3552,-6.3937,-6.4613,-6.529,-6.6083,-6.6855,-6.7044,-6.7014,-6.7133,-6.7133,-6.6914,-6.6812,-6.6812,-6.6812,-6.6812,-6.6812,-6.6812,-6.6812,-6.6812,-6.6812,-6.6812,-6.6812,-6.6812,-6.6812,-6.6812,-6.6812,-6.6812,-6.6812,-6.6812,-6.6812,-6.6812,-6.6812,-6.6812,-6.6812,-6.6812,-6.6812,-6.6812,-6.6812,-6.6812,-6.6812,-6.6812,-6.6812,-6.6812,-6.4598,-6.3635,-6.2126,-6.1502,-6.1151,-5.9677,-5.897,-5.8863,-5.8332,-5.8405,-5.8927,-5.9353,-6.0154,-6.1313,-6.1534,-6.2023,-6.2705,-6.2705,-6.2705,-6.2755,-6.2805,-6.2805,-6.2805,-6.2705,-6.2166,-6.14,-6.064,-5.9797,-5.8737,-5.8144,-5.7881,-5.7712,-5.7645,-5.7543,-5.6968,-5.6867,-5.6562,-5.6122,-5.5987,-5.6292,-5.6833,-5.6867,-5.7137,-5.7712,-5.7712,-5.7679,-5.7645,-5.7645,-5.7137,-5.6122,-5.6568,-5.7145,-5.7751,-5.7881,-5.7881,-5.7881,-5.7915,-5.8321,-5.8829,-5.9268,-5.981,-6.0926,-6.1298,-6.1637,-6.2212,-6.2347,-6.2415,-6.2415,-6.2415,-6.2415,-6.2516,-6.3147,-6.389,-6.4715,-6.5392,-6.6034,-6.6727,-6.7501,-6.742,-6.7131,-6.7523,-6.781,-6.688,-6.6812,-6.6812,-6.6812,-6.6812,-6.6812,-6.6812,-6.6812,-6.6812,-6.6812,-6.6812,-6.6812,-6.6812,-6.6812,-6.6812,-6.6812,-6.6812,-6.6812,-6.6812,-6.6812,-6.6812,-6.6812,-6.6812,-6.6812,-6.6812,-6.6812,-6.6812,-6.6812,-6.6812,-6.6812,-6.6812,-6.6812,-6.6812,-6.4517,-6.3659,-6.2647,-6.1903,-6.1136,-5.9682,-5.9032,-5.897,-5.8836,-5.8871,-5.932,-6.0396,-6.1096,-6.1601,-6.2223,-6.2618,-6.2755,-6.2805,-6.2805,-6.2805,-6.2805,-6.2805,-6.2618,-6.2129,-6.1492,-6.07,-5.9896,-5.9011,-5.8246,-5.7993,-5.7881,-5.7881,-5.7881,-5.7814,-5.7611,-5.7543,-5.7509,-5.734,-5.7306,-5.734,-5.7509,-5.7577,-5.7679,-5.7814,-5.7881,-5.7881,-5.7881,-5.7881,-5.778,-5.7408,-5.7514,-5.7683,-5.7848,-5.7881,-5.7915,-5.8017,-5.8457,-5.8754,-5.9201,-6.0047,-6.0858,-6.1264,-6.1772,-6.2178,-6.2347,-6.2415,-6.2415,-6.2415,-6.2415,-6.2415,-6.2584,-6.3565,-6.4783,-6.6,-6.6339,-6.6542,-6.6795,-6.6946,-6.6995,-6.693,-6.7066,-6.7112,-6.688,-6.6812,-6.6812,-6.6812,-6.6812,-6.6812,-6.6812,-6.6812,-6.6812,-6.6812,-6.6812,-6.6812,-6.6812,-6.6812,-6.6812,-6.6812,-6.6812,-6.6812,-6.6812,-6.6812,-6.6812,-6.6812,-6.6812,-6.6812,-6.6812,-6.6812,-6.6812,-6.6812,-6.6812,-6.6812,-6.6812,-6.6812,-6.6812,-6.3971,-6.3165,-6.2719,-6.2207,-6.1569,-6.0148,-5.9471,-5.9309,-5.8832,-5.9081,-5.9763,-6.0635,-6.1443,-6.2141,-6.2572,-6.2805,-6.2805,-6.2805,-6.2805,-6.2755,-6.2427,-6.2271,-6.2129,-6.1715,-6.0997,-5.9861,-5.9377,-5.8703,-5.8065,-5.7881,-5.7881,-5.7881,-5.7881,-5.7881,-5.7848,-5.7881,-5.7881,-5.7848,-5.7881,-5.7881,-5.7881,-5.7881,-5.7881,-5.7881,-5.7881,-5.7881,-5.7881,-5.7881,-5.7881,-5.7848,-5.7881,-5.7881,-5.7881,-5.7881,-5.8051,-5.8349,-5.8795,-5.9241,-5.9979,-6.0825,-6.1366,-6.1738,-6.2212,-6.2347,-6.2415,-6.2415,-6.2415,-6.2415,-6.2415,-6.2595,-6.3035,-6.4187,-6.5459,-6.6474,-6.6812,-6.6812,-6.6812,-6.7189,-6.7141,-6.7005,-6.7109,-6.7211,-6.6874,-6.6812,-6.6812,-6.6812,-6.6812,-6.6812,-6.6812,-6.6812,-6.6812,-6.6812,-6.6812,-6.6812,-6.6812,-6.6812,-6.6812,-6.6812,-6.6812,-6.6812,-6.6812,-6.6812,-6.6812,-6.6812,-6.6812,-6.6812,-6.6812,-6.6812,-6.6812,-6.6812,-6.6812,-6.6812,-6.6812,-6.6812,-6.6812,-6.3124,-6.2415,-6.2415,-6.2415,-6.211,-6.0757,-6.0013,-5.981,-5.8749,-5.8978,-6.0148,-6.0441,-6.1512,-6.2805,-6.2768,-6.2805,-6.2805,-6.2805,-6.2705,-6.2464,-6.2023,-6.1604,-6.1171,-6.1077,-6.0361,-5.9276,-5.9044,-5.8564,-5.7993,-5.7881,-5.7881,-5.7881,-5.7881,-5.7881,-5.7881,-5.7881,-5.7881,-5.7881,-5.7881,-5.7881,-5.7881,-5.7881,-5.7881,-5.7881,-5.7881,-5.7881,-5.7881,-5.7881,-5.7881,-5.7881,-5.7881,-5.7881,-5.7881,-5.7915,-5.8349,-5.895,-5.9268,-5.9994,-6.0926,-6.1341,-6.1714,-6.2178,-6.2347,-6.2415,-6.2415,-6.2415,-6.2415,-6.2415,-6.2448,-6.3035,-6.3814,-6.4966,-6.5831,-6.6643,-6.6812,-6.6812,-6.6912,-6.7501,-6.7748,-6.6976,-6.7587,-6.7553,-6.7152,-6.6812,-6.6812,-6.6812,-6.6812,-6.6812,-6.6812,-6.6812,-6.6812,-6.6812,-6.6812,-6.6812,-6.6812,-6.6812,-6.6812,-6.6812,-6.6812,-6.6812,-6.6812,-6.6812,-6.6812,-6.6812,-6.6812,-6.6812,-6.6812,-6.6812,-6.6812,-6.6812,-6.6812,-6.6812,-6.6812,-6.6812,-6.6812,-6.2581,-6.2415,-6.2415,-6.2415,-6.2144,-6.0791,-6.0114,-6.002,-5.9215,-5.9391,-6.0323,-6.098,-6.1806,-6.2805,-6.2755,-6.2805,-6.2705,-6.2654,-6.2515,-6.186,-6.1715,-6.0784,-5.9988,-5.9803,-5.9509,-5.8943,-5.8424,-5.8065,-5.7881,-5.7881,-5.7881,-5.7881,-5.7881,-5.7881,-5.7881,-5.7881,-5.7881,-5.7881,-5.7881,-5.7881,-5.7881,-5.7881,-5.7881,-5.7881,-5.7881,-5.7881,-5.7881,-5.7881,-5.7881,-5.7881,-5.7915,-5.8022,-5.8017,-5.8444,-5.8942,-5.9456,-6.0283,-6.0901,-6.1298,-6.1806,-6.2178,-6.2347,-6.2415,-6.2415,-6.2415,-6.2415,-6.2415,-6.2595,-6.308,-6.3962,-6.4937,-6.5462,-6.612,-6.6677,-6.6812,-6.6812,-6.6812,-6.6962,-6.7044,-6.6908,-6.6929,-6.7033,-6.6878,-6.6812,-6.6812,-6.6812,-6.6812,-6.6812,-6.6812,-6.6812,-6.6812,-6.6812,-6.6812,-6.6812,-6.6812,-6.6812,-6.6812,-6.6812,-6.6812,-6.6812,-6.6812,-6.6812,-6.6812,-6.6812,-6.6812,-6.6812,-6.6812,-6.6812,-6.6812,-6.6812,-6.6812,-6.6812,-6.6812,-6.6812,-6.6812,-6.2415,-6.2415,-6.2415,-6.2415,-6.2212,-6.1163,-6.0452,-6.0088,-5.975,-5.9864,-6.0352,-6.0809,-6.1645,-6.2668,-6.2376,-6.2219,-6.2129,-6.1806,-6.1436,-6.1104,-6.096,-6.0487,-5.98,-5.9184,-5.8905,-5.8526,-5.8137,-5.7881,-5.7881,-5.7881,-5.7881,-5.7881,-5.7915,-5.7881,-5.7881,-5.7915,-5.7881,-5.7881,-5.7881,-5.7881,-5.7881,-5.7881,-5.7881,-5.7881,-5.7881,-5.7881,-5.7881,-5.7881,-5.8084,-5.8287,-5.8395,-5.8225,-5.8186,-5.8942,-5.9598,-6.0223,-6.0723,-6.1477,-6.1849,-6.2144,-6.2381,-6.2415,-6.2415,-6.2415,-6.2415,-6.2415,-6.2629,-6.2933,-6.3543,-6.4377,-6.5547,-6.6137,-6.6458,-6.6627,-6.6812,-6.6812,-6.6812,-6.6812,-6.6812,-6.6812,-6.6829,-6.6844,-6.6812,-6.6812,-6.6812,-6.6812,-6.6812,-6.6812,-6.6812,-6.6812,-6.6812,-6.6812,-6.6812,-6.6812,-6.6812,-6.6812,-6.6812,-6.6812,-6.6812,-6.6812,-6.6812,-6.6812,-6.6812,-6.6812,-6.6812,-6.6812,-6.6812,-6.6812,-6.6812,-6.6812,-6.6812,-6.6812,-6.6812,-6.6812,-6.6812,-6.2415,-6.2415,-6.2415,-6.2415,-6.2279,-6.1603,-6.0926,-6.0351,-6.0148,-6.0245,-6.0442,-6.0358,-6.1149,-6.2109,-6.1732,-6.1436,-6.1229,-6.0915,-6.0555,-6.0537,-6.0443,-6.0323,-6.0011,-5.9507,-5.9044,-5.8254,-5.7983,-5.7915,-5.7915,-5.8017,-5.8186,-5.8118,-5.8254,-5.8457,-5.8321,-5.8254,-5.8423,-5.8457,-5.849,-5.8428,-5.8395,-5.8395,-5.8389,-5.8423,-5.8423,-5.8423,-5.8457,-5.8457,-5.8592,-5.9133,-5.9248,-5.8909,-5.8795,-5.9439,-6.0528,-6.1054,-6.1477,-6.1748,-6.2188,-6.2347,-6.2415,-6.2415,-6.2415,-6.2415,-6.2415,-6.2448,-6.273,-6.3374,-6.4051,-6.4788,-6.575,-6.6306,-6.666,-6.6812,-6.6812,-6.6812,-6.6812,-6.6812,-6.6812,-6.6812,-6.6812,-6.6812,-6.6812,-6.6812,-6.6812,-6.6812,-6.6812,-6.6812,-6.6812,-6.6812,-6.6812,-6.6812,-6.6812,-6.6812,-6.6812,-6.6812,-6.6812,-6.6812,-6.6812,-6.6812,-6.6812,-6.6812,-6.6812,-6.6812,-6.6812,-6.6812,-6.6812,-6.6812,-6.6812,-6.6812,-6.6812,-6.6812,-6.6812,-6.6812,-6.6812,-6.2415,-6.2415,-6.2415,-6.2415,-6.2279,-6.1637,-6.1264,-6.0994,-6.0452,-6.0536,-6.1075,-6.0598,-6.0843,-6.1352,-6.0901,-6.0651,-6.0626,-6.0388,-6.0253,-6.0349,-6.0359,-6.032,-6.0183,-6.0062,-5.981,-5.9438,-5.8727,-5.8084,-5.8186,-5.8457,-5.8795,-5.8964,-5.9336,-5.9573,-5.9539,-5.9708,-5.9505,-5.9438,-5.9471,-5.9519,-5.9457,-5.9478,-5.9539,-5.9505,-5.9471,-5.9505,-5.9607,-5.9674,-5.981,-5.9945,-6.0502,-6.0367,-6.008,-6.0593,-6.1335,-6.1897,-6.2042,-6.2222,-6.2347,-6.2415,-6.2415,-6.2415,-6.2415,-6.2415,-6.2415,-6.2482,-6.29,-6.378,-6.4816,-6.5682,-6.6492,-6.6745,-6.6812,-6.6812,-6.6812,-6.6812,-6.6812,-6.6812,-6.6812,-6.6812,-6.6812,-6.6812,-6.6812,-6.6812,-6.6812,-6.6812,-6.6812,-6.6812,-6.6812,-6.6812,-6.6812,-6.6812,-6.6812,-6.6812,-6.6812,-6.6812,-6.6812,-6.6812,-6.6812,-6.6812,-6.6812,-6.6812,-6.6812,-6.6812,-6.6812,-6.6812,-6.6812,-6.6812,-6.6812,-6.6812,-6.6812,-6.6812,-6.6812,-6.6812,-6.6812,-6.2415,-6.2415,-6.2415,-6.2415,-6.2347,-6.2042,-6.1637,-6.1332,-6.1298,-6.1274,-6.1189,-6.1018,-6.1043,-6.119,-6.0697,-6.0334,-6.0268,-5.9837,-5.9874,-6.0138,-6.0579,-6.0808,-6.0689,-6.0723,-6.0723,-6.0419,-5.9607,-5.9032,-5.9066,-5.9404,-5.9573,-5.9641,-5.9979,-6.008,-6.008,-6.0013,-6.0148,-6.0148,-6.0114,-6.0122,-6.0136,-6.014,-6.0165,-6.0072,-6.0114,-6.008,-6.008,-6.008,-6.0317,-6.0732,-6.1045,-6.1249,-6.1409,-6.1559,-6.2032,-6.2347,-6.2415,-6.2415,-6.2415,-6.2415,-6.2415,-6.2415,-6.2415,-6.2415,-6.2415,-6.2516,-6.3272,-6.4864,-6.5527,-6.6424,-6.6779,-6.6812,-6.6812,-6.6812,-6.6812,-6.6812,-6.6812,-6.6812,-6.6812,-6.6812,-6.6812,-6.6812,-6.6812,-6.6812,-6.6812,-6.6812,-6.6812,-6.6812,-6.6812,-6.6812,-6.6812,-6.6812,-6.6812,-6.6812,-6.6812,-6.6812,-6.6812,-6.6812,-6.6812,-6.6812,-6.6812,-6.6812,-6.6812,-6.6812,-6.6812,-6.6812,-6.6812,-6.6812,-6.6812,-6.6812,-6.6812,-6.6812,-6.6812,-6.6812,-6.6812,-6.2415,-6.2415,-6.2415,-6.2415,-6.2415,-6.2415,-6.2042,-6.1738,-6.211,-6.1975,-6.1579,-6.1341,-6.1292,-6.1187,-6.0704,-6.0254,-6.0184,-5.957,-5.979,-6.0469,-6.0935,-6.1298,-6.1501,-6.1535,-6.1501,-6.14,-6.096,-6.0385,-6.0013,-6.025,-6.0351,-6.0452,-6.0452,-6.0554,-6.0689,-6.0825,-6.0554,-6.0554,-6.0554,-6.0554,-6.0545,-6.0593,-6.0583,-6.0588,-6.0554,-6.0622,-6.0757,-6.0757,-6.0994,-6.1332,-6.1656,-6.1757,-6.2324,-6.2381,-6.2415,-6.2415,-6.2415,-6.2415,-6.2415,-6.2415,-6.2415,-6.2415,-6.2415,-6.2415,-6.2584,-6.299,-6.4005,-6.617,-6.6812,-6.6779,-6.6812,-6.6812,-6.6812,-6.6812,-6.6812,-6.6812,-6.6812,-6.6812,-6.6812,-6.6812,-6.6812,-6.6812,-6.6812,-6.6812,-6.6812,-6.6812,-6.6812,-6.6812,-6.6812,-6.6812,-6.6812,-6.6812,-6.6812,-6.6812,-6.6812,-6.6812,-6.6812,-6.6812,-6.6812,-6.6812,-6.6812,-6.6812,-6.6812,-6.6812,-6.6812,-6.6812,-6.6812,-6.6812,-6.6812,-6.6812,-6.6812,-6.6812,-6.6812,-6.6812,-6.6812,-6.2415,-6.2415,-6.2415,-6.2415,-6.2415,-6.2415,-6.2347,-6.2279,-6.2347,-6.2347,-6.211,-6.1603,-6.1384,-6.117,-6.0449,-6.017,-6.0095,-6.0163,-6.0419,-6.1095,-6.1366,-6.1704,-6.2144,-6.2245,-6.2144,-6.211,-6.2042,-6.1298,-6.0757,-6.0926,-6.1163,-6.1264,-6.1637,-6.2042,-6.1806,-6.1772,-6.211,-6.2076,-6.2042,-6.2009,-6.2009,-6.1964,-6.1964,-6.2009,-6.1975,-6.1907,-6.1839,-6.1839,-6.2009,-6.211,-6.2212,-6.2279,-6.2415,-6.2415,-6.2415,-6.2415,-6.2415,-6.2415,-6.2415,-6.2415,-6.2415,-6.2415,-6.2415,-6.2415,-6.2753,-6.3687,-6.4937,-6.6508,-6.6812,-6.6812,-6.6812,-6.6812,-6.6812,-6.6812,-6.6812,-6.6812,-6.6812,-6.6812,-6.6812,-6.6812,-6.6812,-6.6812,-6.6812,-6.6812,-6.6812,-6.6812,-6.6812,-6.6812,-6.6812,-6.6812,-6.6812,-6.6812,-6.6812,-6.6812,-6.6812,-6.6812,-6.6812,-6.6812,-6.6812,-6.6812,-6.6812,-6.6812,-6.6812,-6.6812,-6.6812,-6.6812,-6.6812,-6.6812,-6.6812,-6.6812,-6.6812,-6.6812,-6.6812,-6.6812,-6.6812,-6.2415,-6.2415,-6.2415,-6.2415,-6.2415,-6.2415,-6.2415,-6.2415,-6.2415,-6.2415,-6.2347,-6.2076,-6.1704,-6.1231,-6.0452,-6.0351,-6.0689,-6.0757,-6.1197,-6.1738,-6.1907,-6.2076,-6.2313,-6.2381,-6.2415,-6.2415,-6.2381,-6.2144,-6.1637,-6.1637,-6.1941,-6.1941,-6.2178,-6.2313,-6.2415,-6.2415,-6.2381,-6.2347,-6.2381,-6.2381,-6.2415,-6.2415,-6.2415,-6.2415,-6.2415,-6.2415,-6.2415,-6.2415,-6.2415,-6.2415,-6.2415,-6.2415,-6.2415,-6.2415,-6.2415,-6.2415,-6.2415,-6.2415,-6.2415,-6.2415,-6.2448,-6.2415,-6.2448,-6.2662,-6.3317,-6.4424,-6.5628,-6.6711,-6.6812,-6.6812,-6.6812,-6.6812,-6.6812,-6.6812,-6.6812,-6.6812,-6.6812,-6.6812,-6.6812,-6.6812,-6.6812,-6.6812,-6.6812,-6.6812,-6.6812,-6.6812,-6.6812,-6.6812,-6.6812,-6.6812,-6.6812,-6.6812,-6.6812,-6.6812,-6.6812,-6.6812,-6.6812,-6.6812,-6.6812,-6.6812,-6.6812,-6.6812,-6.6812,-6.6812,-6.6812,-6.6812,-6.6812,-6.6812,-6.6812,-6.6812,-6.6812,-6.6812,-6.6812,-6.6812,-6.6812,-6.2415,-6.2415,-6.2415,-6.2415,-6.2415,-6.2415,-6.2415,-6.2415,-6.2415,-6.2415,-6.2415,-6.2347,-6.2042,-6.1603,-6.1095,-6.1129,-6.1535,-6.1569,-6.1873,-6.2245,-6.2415,-6.2381,-6.2415,-6.2415,-6.2415,-6.2415,-6.2415,-6.2313,-6.2347,-6.2347,-6.2313,-6.2415,-6.2347,-6.2415,-6.2415,-6.2415,-6.2415,-6.2415,-6.2415,-6.2415,-6.2415,-6.2415,-6.2415,-6.2415,-6.2415,-6.2415,-6.2415,-6.2415,-6.2415,-6.2415,-6.2415,-6.2415,-6.2415,-6.2415,-6.2415,-6.2448,-6.2595,-6.2753,-6.2821,-6.2741,-6.2719,-6.2719,-6.2956,-6.3475,-6.4177,-6.5217,-6.6016,-6.6745,-6.6812,-6.6812,-6.6812,-6.6812,-6.6812,-6.6812,-6.6812,-6.6812,-6.6812,-6.6812,-6.6812,-6.6812,-6.6812,-6.6812,-6.6812,-6.6812,-6.6812,-6.6812,-6.6812,-6.6812,-6.6812,-6.6812,-6.6812,-6.6812,-6.6812,-6.6812,-6.6812,-6.6812,-6.6812,-6.6812,-6.6812,-6.6812,-6.6812,-6.6812,-6.6812,-6.6812,-6.6812,-6.6812,-6.6812,-6.6812,-6.6812,-6.6812,-6.6812,-6.6812,-6.6812,-6.6812,-6.6812,-6.2415,-6.2415,-6.2381,-6.2381,-6.2415,-6.2415,-6.2415,-6.2415,-6.2415,-6.2415,-6.2415,-6.2381,-6.2347,-6.2212,-6.2076,-6.2076,-6.2279,-6.2313,-6.2313,-6.2347,-6.2415,-6.2415,-6.2415,-6.2415,-6.2415,-6.2415,-6.2415,-6.2415,-6.2415,-6.2415,-6.2415,-6.2415,-6.2415,-6.2415,-6.2415,-6.2415,-6.2415,-6.2415,-6.2415,-6.2415,-6.2415,-6.2415,-6.2415,-6.2415,-6.2415,-6.2415,-6.2415,-6.2415,-6.2415,-6.2415,-6.2415,-6.2415,-6.2415,-6.2415,-6.2415,-6.2662,-6.2967,-6.3226,-6.337,-6.3404,-6.3383,-6.3632,-6.3971,-6.4491,-6.4877,-6.542,-6.6083,-6.6711,-6.6812,-6.6812,-6.6812,-6.6812,-6.6812,-6.6812,-6.6812,-6.6812,-6.6812,-6.6812,-6.6812,-6.6812,-6.6812,-6.6812,-6.6812,-6.6812,-6.6812,-6.6812,-6.6812,-6.6812,-6.6812,-6.6812,-6.6812,-6.6812,-6.6812,-6.6812,-6.6812,-6.6812,-6.6812,-6.6812,-6.6812,-6.6812,-6.6812,-6.6812,-6.6812,-6.6812,-6.6812,-6.6812,-6.6812,-6.6812,-6.6812,-6.6812,-6.6812,-6.6812,-6.6812,-6.6812,-6.6812,-6.1298,-6.1704,-6.1704,-6.1975,-6.2415,-6.2415,-6.2415,-6.2415,-6.2415,-6.2415,-6.2415,-6.2415,-6.2415,-6.2415,-6.2415,-6.2415,-6.2415,-6.2415,-6.2415,-6.2415,-6.2415,-6.2415,-6.2415,-6.2415,-6.2415,-6.2415,-6.2415,-6.2415,-6.2415,-6.2415,-6.2415,-6.2415,-6.2415,-6.2415,-6.2415,-6.2415,-6.2415,-6.2415,-6.2415,-6.2415,-6.2415,-6.2415,-6.2415,-6.2415,-6.2415,-6.2415,-6.2415,-6.2415,-6.2415,-6.2415,-6.2415,-6.2415,-6.2415,-6.2415,-6.2629,-6.2978,-6.3385,-6.3721,-6.4166,-6.4132,-6.4208,-6.4343,-6.4816,-6.5338,-6.5488,-6.5914,-6.6339,-6.6745,-6.6812,-6.6812,-6.6812,-6.6812,-6.6812,-6.6812,-6.6812,-6.6812,-6.6812,-6.6812,-6.6812,-6.6812,-6.6812,-6.6812,-6.6812,-6.6812,-6.6812,-6.6812,-6.6812,-6.6812,-6.6812,-6.6812,-6.6812,-6.6812,-6.6812,-6.6812,-6.6812,-6.6812,-6.6812,-6.6812,-6.6812,-6.6812,-6.6812,-6.6812,-6.6812,-6.6812,-6.6812,-6.6812,-6.6812,-6.6812,-6.6812,-6.6812,-6.6812,-6.6812,-6.6812,-6.6812,-6.6812,-6.0419,-6.0926,-6.0926,-6.1501,-6.2313,-6.2144,-6.2076,-6.2042,-6.2042,-6.2212,-6.2381,-6.2415,-6.2415,-6.2415,-6.2415,-6.2415,-6.2415,-6.2415,-6.2415,-6.2415,-6.2415,-6.2415,-6.2415,-6.2415,-6.2415,-6.2415,-6.2415,-6.2415,-6.2415,-6.2415,-6.2415,-6.2415,-6.2415,-6.2415,-6.2415,-6.2415,-6.2415,-6.2415,-6.2415,-6.2415,-6.2415,-6.2415,-6.2415,-6.2415,-6.2415,-6.2415,-6.2415,-6.2415,-6.2415,-6.2415,-6.2415,-6.2415,-6.2415,-6.2482,-6.2764,-6.3283,-6.3746,-6.4146,-6.4656,-6.4956,-6.5019,-6.5358,-6.5696,-6.5914,-6.6016,-6.6373,-6.6711,-6.6779,-6.6812,-6.6812,-6.6812,-6.6812,-6.6812,-6.6812,-6.6812,-6.6812,-6.6812,-6.6812,-6.6812,-6.6812,-6.6812,-6.6812,-6.6812,-6.6812,-6.6812,-6.6812,-6.6812,-6.6812,-6.6812,-6.6812,-6.6812,-6.6812,-6.6812,-6.6812,-6.6812,-6.6812,-6.6812,-6.6812,-6.6812,-6.6812,-6.6812,-6.6812,-6.6812,-6.6812,-6.6812,-6.6812,-6.6812,-6.6812,-6.6812,-6.6812,-6.6812,-6.6812,-6.6812,-6.6812,-6.6812,-6.008,-6.0114,-6.0114,-6.0994,-6.211,-6.1603,-6.1332,-6.1467,-6.1501,-6.1839,-6.2381,-6.2415,-6.2415,-6.2415,-6.2415,-6.2415,-6.2415,-6.2415,-6.2415,-6.2415,-6.2415,-6.2415,-6.2415,-6.2415,-6.2415,-6.2415,-6.2415,-6.2415,-6.2415,-6.2415,-6.2415,-6.2415,-6.2415,-6.2415,-6.2415,-6.2415,-6.2415,-6.2415,-6.2415,-6.2415,-6.2415,-6.2415,-6.2415,-6.2415,-6.2415,-6.2415,-6.2415,-6.2415,-6.2415,-6.2415,-6.2415,-6.2415,-6.2415,-6.2415,-6.2764,-6.3498,-6.4153,-6.487,-6.5581,-6.5662,-6.5899,-6.6305,-6.6474,-6.6508,-6.6643,-6.6812,-6.6812,-6.6812,-6.6812,-6.6812,-6.6812,-6.6812,-6.6812,-6.6812,-6.6812,-6.6812,-6.6812,-6.6812,-6.6812,-6.6812,-6.6812,-6.6812,-6.6812,-6.6812,-6.6812,-6.6812,-6.6812,-6.6812,-6.6812,-6.6812,-6.6812,-6.6812,-6.6812,-6.6812,-6.6812,-6.6812,-6.6812,-6.6812,-6.6812,-6.6812,-6.6812,-6.6812,-6.6812,-6.6812,-6.6812,-6.6812,-6.6812,-6.6812,-6.6812,-6.6812,-6.6812,-6.6812,-6.6812,-6.6812,-6.6812,-5.893,-5.937,-5.937,-5.9945,-6.0757,-6.0622,-6.0791,-6.1332,-6.1772,-6.2144,-6.2347,-6.2415,-6.2415,-6.2415,-6.2415,-6.2415,-6.2415,-6.2415,-6.2415,-6.2415,-6.2415,-6.2415,-6.2415,-6.2415,-6.2415,-6.2415,-6.2415,-6.2415,-6.2415,-6.2415,-6.2415,-6.2415,-6.2415,-6.2415,-6.2415,-6.2415,-6.2415,-6.2415,-6.2415,-6.2415,-6.2415,-6.2415,-6.2415,-6.2415,-6.2415,-6.2415,-6.2415,-6.2415,-6.2415,-6.2415,-6.2415,-6.2415,-6.2415,-6.2415,-6.3012,-6.3917,-6.464,-6.5208,-6.6052,-6.644,-6.6508,-6.6745,-6.6812,-6.6812,-6.6812,-6.6812,-6.6812,-6.6812,-6.6812,-6.6812,-6.6812,-6.6812,-6.6812,-6.6812,-6.6812,-6.6812,-6.6812,-6.6812,-6.6812,-6.6812,-6.6812,-6.6812,-6.6812,-6.6812,-6.6812,-6.6812,-6.6812,-6.6812,-6.6812,-6.6812,-6.6812,-6.6812,-6.6812,-6.6812,-6.6812,-6.6812,-6.6812,-6.6812,-6.6812,-6.6812,-6.6812,-6.6812,-6.6812,-6.6812,-6.6812,-6.6812,-6.6812,-6.6812,-6.6812,-6.6812,-6.6812,-6.6812,-6.6812,-6.6812,-6.6812,-5.8152,-5.8592,-5.8626,-5.8863,-5.9336,-5.9607,-6.0182,-6.0926,-6.167,-6.2144,-6.2347,-6.2415,-6.2415,-6.2415,-6.2415,-6.2415,-6.2415,-6.2415,-6.2415,-6.2415,-6.2415,-6.2415,-6.2415,-6.2415,-6.2415,-6.2415,-6.2415,-6.2415,-6.2415,-6.2415,-6.2415,-6.2415,-6.2415,-6.2415,-6.2415,-6.2415,-6.2415,-6.2415,-6.2415,-6.2415,-6.2415,-6.2415,-6.2415,-6.2415,-6.2415,-6.2415,-6.2415,-6.2415,-6.2415,-6.2415,-6.2415,-6.2415,-6.2415,-6.2764,-6.3362,-6.4223,-6.525,-6.5748,-6.6542,-6.6779,-6.6745,-6.6812,-6.6812,-6.6812,-6.6812,-6.6812,-6.6812,-6.6812,-6.6812,-6.6812,-6.6812,-6.6812,-6.6812,-6.6812,-6.6812,-6.6812,-6.6812,-6.6812,-6.6812,-6.6812,-6.6812,-6.6812,-6.6812,-6.6812,-6.6812,-6.6812,-6.6812,-6.6812,-6.6812,-6.6812,-6.6812,-6.6812,-6.6812,-6.6812,-6.6812,-6.6812,-6.6812,-6.6812,-6.6812,-6.6812,-6.6812,-6.6812,-6.6812,-6.6812,-6.6812,-6.6812,-6.6812,-6.6812,-6.6812,-6.6812,-6.6812,-6.6812,-6.6812,-6.6812,-6.6812,-5.7881,-5.7881,-5.7881,-5.7915,-5.8051,-5.8795,-5.9505,-6.0216,-6.1028,-6.1806,-6.2381,-6.2415,-6.2415,-6.2415,-6.2415,-6.2415,-6.2415,-6.2415,-6.2415,-6.2415,-6.2415,-6.2415,-6.2415,-6.2415,-6.2415,-6.2415,-6.2415,-6.2415,-6.2415,-6.2415,-6.2415,-6.2415,-6.2415,-6.2415,-6.2415,-6.2415,-6.2415,-6.2415,-6.2415,-6.2415,-6.2415,-6.2415,-6.2415,-6.2415,-6.2415,-6.2415,-6.2415,-6.2415,-6.2415,-6.2415,-6.2415,-6.2415,-6.2629,-6.308,-6.3859,-6.4733,-6.5982,-6.6474,-6.6779,-6.6812,-6.6812,-6.6812,-6.6812,-6.6812,-6.6812,-6.6812,-6.6812,-6.6812,-6.6812,-6.6812,-6.6812,-6.6812,-6.6812,-6.6812,-6.6812,-6.6812,-6.6812,-6.6812,-6.6812,-6.6812,-6.6812,-6.6812,-6.6812,-6.6812,-6.6812,-6.6812,-6.6812,-6.6812,-6.6812,-6.6812,-6.6812,-6.6812,-6.6812,-6.6812,-6.6812,-6.6812,-6.6812,-6.6812,-6.6812,-6.6812,-6.6812,-6.6812,-6.6812,-6.6812,-6.6812,-6.6812,-6.6812,-6.6812,-6.6812,-6.6812,-6.6812,-6.6812,-6.6812,-6.6812,-6.6812,-5.7881,-5.7881,-5.7881,-5.7881,-5.7983,-5.8693,-5.9438,-6.0216,-6.1467,-6.2245,-6.2415,-6.2415,-6.2415,-6.2415,-6.2415,-6.2415,-6.2415,-6.2415,-6.2415,-6.2415,-6.2415,-6.2415,-6.2415,-6.2415,-6.2415,-6.2415,-6.2415,-6.2415,-6.2415,-6.2415,-6.2415,-6.2415,-6.2415,-6.2415,-6.2415,-6.2415,-6.2381,-6.2302,-6.2223,-6.2223,-6.2302,-6.2223,-6.2223,-6.2223,-6.2381,-6.2381,-6.2415,-6.2415,-6.2415,-6.2415,-6.2415,-6.2415,-6.2448,-6.3114,-6.3905,-6.5324,-6.6187,-6.6812,-6.6812,-6.6812,-6.6812,-6.6812,-6.6812,-6.6812,-6.6812,-6.6812,-6.6812,-6.6812,-6.6812,-6.6812,-6.6812,-6.6812,-6.6812,-6.6812,-6.6812,-6.6812,-6.6812,-6.6812,-6.6812,-6.6812,-6.6812,-6.6812,-6.6812,-6.6812,-6.6812,-6.6812,-6.6812,-6.6812,-6.6812,-6.6812,-6.6812,-6.6812,-6.6812,-6.6812,-6.6812,-6.6812,-6.6812,-6.6812,-6.6812,-6.6812,-6.6812,-6.6812,-6.6812,-6.6812,-6.6812,-6.6812,-6.6812,-6.6745,-6.6576,-6.6745,-6.6745,-6.6779,-6.6812,-6.6779,-6.6779,-5.7881,-5.7881,-5.7881,-5.7881,-5.8017,-5.8693,-5.9268,-5.9911,-6.1298,-6.2076,-6.2381,-6.2415,-6.2415,-6.2415,-6.2415,-6.2415,-6.2415,-6.2415,-6.2415,-6.2415,-6.2415,-6.2415,-6.2415,-6.2415,-6.2415,-6.2415,-6.2415,-6.2415,-6.2415,-6.2415,-6.2415,-6.2415,-6.2415,-6.2415,-6.2415,-6.2381,-6.203,-6.1837,-6.1676,-6.1676,-6.1756,-6.1756,-6.1676,-6.1904,-6.2144,-6.2448,-6.2448,-6.2448,-6.2415,-6.2415,-6.2415,-6.2415,-6.2618,-6.334,-6.4309,-6.5631,-6.6356,-6.6779,-6.6812,-6.6812,-6.6812,-6.6812,-6.6728,-6.6812,-6.6812,-6.6812,-6.6812,-6.6812,-6.6812,-6.6812,-6.6812,-6.6812,-6.6812,-6.6812,-6.6812,-6.6812,-6.6812,-6.6812,-6.6812,-6.6812,-6.6812,-6.6812,-6.6812,-6.6812,-6.6812,-6.6812,-6.6812,-6.6812,-6.6812,-6.6812,-6.6812,-6.6812,-6.6812,-6.6812,-6.6812,-6.6812,-6.6812,-6.6812,-6.6812,-6.6812,-6.6812,-6.6812,-6.6812,-6.6812,-6.6812,-6.6779,-6.6711,-6.6406,-6.6237,-6.6339,-6.6203,-6.5933,-6.6102,-6.6542,-6.6609,-5.7881,-5.7881,-5.7881,-5.7881,-5.7983,-5.8592,-5.8964,-5.9167,-6.0588,-6.1603,-6.2178,-6.2381,-6.2415,-6.2415,-6.2415,-6.2415,-6.2415,-6.2415,-6.2415,-6.2415,-6.2415,-6.2415,-6.2415,-6.2415,-6.2415,-6.2415,-6.2415,-6.2415,-6.2415,-6.2415,-6.2415,-6.2415,-6.2415,-6.2415,-6.2415,-6.203,-6.1561,-6.1036,-6.0501,-6.0247,-6.0736,-6.0736,-6.0769,-6.1285,-6.1991,-6.2685,-6.2651,-6.2584,-6.2482,-6.2482,-6.2415,-6.2415,-6.2956,-6.3565,-6.4667,-6.553,-6.6255,-6.6643,-6.666,-6.6525,-6.6643,-6.6643,-6.661,-6.632,-6.6148,-6.6221,-6.6238,-6.6559,-6.6559,-6.6593,-6.6593,-6.6779,-6.6812,-6.6812,-6.6812,-6.6812,-6.6812,-6.6812,-6.6812,-6.6812,-6.6812,-6.6812,-6.6812,-6.6812,-6.6812,-6.6812,-6.6812,-6.6812,-6.6812,-6.6812,-6.6812,-6.6812,-6.6812,-6.6812,-6.6812,-6.6812,-6.6812,-6.6812,-6.6812,-6.6812,-6.6812,-6.6812,-6.6812,-6.6812,-6.6812,-6.6677,-6.6542,-6.6203,-6.5831,-6.5561,-6.5358,-6.4836,-6.5106,-6.5714,-6.6221,-5.7881,-5.7881,-5.7881,-5.7881,-5.7881,-5.8084,-5.849,-5.9066,-5.9979,-6.0815,-6.1548,-6.2099,-6.2415,-6.2415,-6.2415,-6.2415,-6.2415,-6.2415,-6.2415,-6.2415,-6.2415,-6.2415,-6.2415,-6.2415,-6.2415,-6.2415,-6.2415,-6.2415,-6.2415,-6.2415,-6.2415,-6.2415,-6.2415,-6.2381,-6.211,-6.1676,-6.087,-6.0128,-5.9049,-5.9258,-6.0279,-6.1231,-6.1781,-6.2598,-6.3485,-6.3869,-6.3768,-6.3429,-6.3328,-6.3226,-6.2651,-6.273,-6.3294,-6.3589,-6.441,-6.5462,-6.5632,-6.5968,-6.6033,-6.5788,-6.5767,-6.568,-6.547,-6.5081,-6.4916,-6.524,-6.5547,-6.5935,-6.6272,-6.6306,-6.6441,-6.6576,-6.6812,-6.6812,-6.6812,-6.6812,-6.6812,-6.6812,-6.6812,-6.6812,-6.6812,-6.6812,-6.6812,-6.6812,-6.6812,-6.6812,-6.6812,-6.6812,-6.6812,-6.6812,-6.6812,-6.6812,-6.6812,-6.6812,-6.6812,-6.6812,-6.6812,-6.6812,-6.6812,-6.6812,-6.6812,-6.6812,-6.6812,-6.6812,-6.6779,-6.6643,-6.6373,-6.5933,-6.5527,-6.5053,-6.4512,-6.4059,-6.4011,-6.4518,-6.5226,-5.7881,-5.7881,-5.7881,-5.7881,-5.7881,-5.7881,-5.8152,-5.8592,-5.9302,-6.0038,-6.0873,-6.1795,-6.2415,-6.2415,-6.2415,-6.2415,-6.2415,-6.2415,-6.2415,-6.2415,-6.2415,-6.2415,-6.2415,-6.2415,-6.2415,-6.2415,-6.2415,-6.2415,-6.2415,-6.2415,-6.2415,-6.2415,-6.2381,-6.211,-6.1676,-6.0837,-5.9957,-5.8959,-5.7527,-5.8177,-5.9794,-6.0609,-6.1317,-6.2339,-6.3618,-6.4368,-6.4343,-6.3937,-6.3632,-6.3294,-6.2787,-6.2516,-6.2944,-6.3362,-6.3545,-6.3881,-6.4287,-6.4806,-6.4652,-6.4523,-6.4381,-6.4414,-6.423,-6.3764,-6.3616,-6.3801,-6.3649,-6.4061,-6.5258,-6.548,-6.5895,-6.6109,-6.6592,-6.6812,-6.6812,-6.6812,-6.6812,-6.6812,-6.6812,-6.6812,-6.6812,-6.6812,-6.6812,-6.6812,-6.6812,-6.6812,-6.6812,-6.6812,-6.6812,-6.6525,-6.661,-6.6525,-6.644,-6.6643,-6.6812,-6.6812,-6.6812,-6.6812,-6.6812,-6.6812,-6.6812,-6.6812,-6.6812,-6.6812,-6.6745,-6.6693,-6.6388,-6.5745,-6.5067,-6.4491,-6.3869,-6.3282,-6.3269,-6.2978,-6.3133,-5.7881,-5.7881,-5.7881,-5.7881,-5.7881,-5.7881,-5.7881,-5.8051,-5.8795,-5.9505,-6.0359,-6.1738,-6.2313,-6.2415,-6.2415,-6.2415,-6.2415,-6.2415,-6.2415,-6.2415,-6.2415,-6.2415,-6.2415,-6.2415,-6.2415,-6.2415,-6.2415,-6.2415,-6.2415,-6.2415,-6.2415,-6.2381,-6.203,-6.1676,-6.087,-5.9957,-5.9049,-5.7807,-5.7022,-5.7527,-5.8525,-5.9703,-6.0799,-6.2003,-6.3477,-6.4768,-6.4681,-6.4208,-6.3802,-6.2818,-6.2199,-6.1638,-6.1683,-6.1919,-6.1966,-6.2092,-6.2776,-6.2853,-6.2614,-6.2748,-6.294,-6.3004,-6.2811,-6.2491,-6.23,-6.2109,-6.2003,-6.246,-6.3654,-6.4967,-6.5404,-6.5968,-6.6507,-6.6812,-6.6812,-6.6812,-6.6812,-6.6812,-6.6812,-6.6812,-6.6812,-6.6812,-6.6812,-6.6812,-6.6812,-6.6812,-6.6812,-6.6812,-6.6728,-6.6235,-6.5942,-6.5767,-6.547,-6.5855,-6.6525,-6.6728,-6.6728,-6.6812,-6.6812,-6.6812,-6.6812,-6.6812,-6.6812,-6.6812,-6.6745,-6.6592,-6.5982,-6.5271,-6.4593,-6.3505,-6.2858,-6.2044,-6.1207,-6.0902,-6.0541,-5.7881,-5.7881,-5.7881,-5.7881,-5.7881,-5.7881,-5.7881,-5.8118,-5.9268,-5.9994,-6.0449,-6.1579,-6.2415,-6.2415,-6.2415,-6.2415,-6.2415,-6.2415,-6.2415,-6.2415,-6.2415,-6.2415,-6.2415,-6.2415,-6.2415,-6.2415,-6.2415,-6.2415,-6.2302,-6.2302,-6.2381,-6.2302,-6.1235,-6.0703,-6.0332,-5.9258,-5.7714,-5.6735,-5.6439,-5.6726,-5.8372,-5.994,-6.1993,-6.3643,-6.548,-6.6136,-6.6068,-6.5053,-6.3936,-6.2632,-6.0968,-6.0131,-5.9951,-6.0156,-6.0128,-6.0451,-6.1088,-6.1377,-6.1277,-6.132,-6.1602,-6.2225,-6.1728,-6.0712,-6.0568,-6.0393,-6.0328,-6.0567,-6.2007,-6.4458,-6.5312,-6.6162,-6.6812,-6.6812,-6.6812,-6.6812,-6.6812,-6.6812,-6.6812,-6.6812,-6.6812,-6.6812,-6.6812,-6.6812,-6.6812,-6.6812,-6.6812,-6.6812,-6.6728,-6.6115,-6.5349,-6.5081,-6.4778,-6.547,-6.6354,-6.644,-6.6525,-6.6643,-6.6812,-6.6812,-6.6812,-6.6812,-6.6812,-6.6609,-6.6524,-6.6437,-6.5725,-6.4647,-6.2963,-6.1783,-6.1335,-6.0672,-5.9679,-5.9019,-5.8936]}]]